[[{"header":{"parameterUnit":"m.s-1","parameterCategory":1,"la1":30.6,"la2":28.766,"lo1":-90.7593,"lo2":-88.6598,"dy":0.0162,"dx":0.0183,"nx":116,"ny":114,"refTime":"2024-04-29T12:00:00:Z","depth":0,"parameterNumber":2,"parameterNumberName":"U-component_of_WINDS"},"data":[0.0,0.0,0.0,0.0,0.0,0.0,0.0,0.0,0.0,0.0,0.0,0.0,0.0,0.0,0.0,0.0,0.0,0.0,0.0,0.0,0.0,0.0,0.0,0.0,0.0,0.0,0.0,0.0,0.0,0.0,0.0,0.0,0.0,0.0,0.0,0.0,0.0,0.0,0.0,0.0,0.0,0.0,0.0,0.0,0.0,0.0,0.0,0.0,0.0,0.0,0.0,0.0,0.0,0.0,0.0,0.0,0.0,0.0,0.0,0.0,0.0,0.0,0.0,0.0,0.0,0.0,0.0,0.0,0.0,0.0,0.0,0.0,0.0,0.0,0.0,0.0,0.0,0.0,0.0,0.0,0.0,0.0,0.0,0.0,0.0,0.0,0.0,0.0,0.0,0.0,0.0,0.0,0.0,0.0,0.0,0.0,0.0,0.0,0.0,0.0,0.0,0.0,0.0,0.0,0.0,0.0,0.0,0.0,0.0,0.0,0.0,0.0,0.0,0.0,0.0,0.0,0.0,0.0,0.0,0.0,0.0,0.0,0.0,0.0,0.0,0.0,0.0,0.0,0.0,0.0,0.0,0.0,0.0,0.0,0.0,0.0,0.0,0.0,0.0,0.0,0.0,0.0,0.0,0.0,0.0,0.0,0.0,0.0,0.0,0.0,0.0,0.0,0.0,0.0,0.0,0.0,0.0,0.0,0.0,0.0,0.0,0.0,0.0,0.0,0.0,0.0,0.0,0.0,0.0,0.0,0.0,0.0,0.0,0.0,0.0,0.0,0.0,0.0,0.0,0.0,0.0,0.0,0.0,0.0,0.0,0.0,0.0,0.0,0.0,0.0,0.0,0.0,0.0,0.0,0.0,0.0,0.0,0.0,0.0,0.0,0.0,0.0,0.0,0.0,0.0,0.0,0.0,0.0,0.0,0.0,0.0,0.0,0.0,0.0,0.0,0.0,0.0,0.0,0.0,0.0,0.0,0.0,0.0,0.0,0.0,0.0,0.0,0.0,0.0,0.0,0.0,0.0,0.0,0.0,0.0,0.0,0.0,0.0,0.0,0.0,0.0,0.0,0.0,0.0,0.0,0.0,0.0,0.0,0.0,0.0,0.0,0.0,0.0,0.0,0.0,0.0,0.0,0.0,0.0,0.0,0.0,0.0,0.0,0.0,0.0,0.0,0.0,0.0,0.0,0.0,0.0,0.0,0.0,0.0,0.0,0.0,0.0,0.0,0.0,0.0,0.0,0.0,0.0,0.0,0.0,0.0,0.0,0.0,0.0,0.0,0.0,0.0,0.0,0.0,0.0,0.0,0.0,0.0,0.0,0.0,0.0,0.0,0.0,0.0,0.0,0.0,0.0,0.0,0.0,0.0,0.0,0.0,0.0,0.0,0.0,0.0,0.0,0.0,0.0,0.0,0.0,0.0,0.0,0.0,0.0,0.0,0.0,0.0,0.0,0.0,0.0,0.0,0.0,0.0,0.0,0.0,0.0,0.0,0.0,0.0,0.0,0.0,0.0,0.0,0.0,0.0,0.0,0.0,0.0,0.0,0.0,0.0,0.0,0.0,0.0,0.0,0.0,0.0,0.0,0.0,0.0,0.0,0.0,0.0,0.0,0.0,0.0,0.0,0.0,0.0,0.0,0.0,0.0,0.0,0.0,0.0,0.0,0.0,0.0,0.0,0.0,0.0,0.0,0.0,0.0,0.0,0.0,0.0,0.0,0.0,0.0,0.0,0.0,0.0,0.0,0.0,0.0,0.0,0.0,0.0,0.0,0.0,0.0,0.0,0.0,0.0,0.0,0.0,0.0,0.0,0.0,0.0,0.0,0.0,0.0,0.0,0.0,0.0,0.0,0.0,0.0,0.0,0.0,0.0,0.0,0.0,0.0,0.0,0.0,0.0,0.0,0.0,0.0,0.0,0.0,0.0,0.0,0.0,0.0,0.0,0.0,0.0,0.0,0.0,0.0,0.0,0.0,0.0,0.0,0.0,0.0,0.0,0.0,0.0,0.0,0.0,0.0,0.0,0.0,0.0,0.0,0.0,0.0,0.0,0.0,0.0,0.0,0.0,0.0,0.0,0.0,0.0,0.0,0.0,0.0,0.0,0.0,0.0,0.0,0.0,0.0,0.0,0.0,0.0,0.0,0.0,0.0,0.0,0.0,0.0,0.0,0.0,0.0,0.0,0.0,0.0,0.0,0.0,0.0,0.0,0.0,0.0,0.0,0.0,0.0,0.0,0.0,0.0,0.0,0.0,0.0,0.0,0.0,0.0,0.0,0.0,0.0,0.0,0.0,0.0,0.0,0.0,0.0,0.0,0.0,0.0,0.0,0.0,0.0,0.0,0.0,0.0,0.0,0.0,0.0,0.0,0.0,0.0,0.0,0.0,0.0,0.0,0.0,0.0,0.0,0.0,0.0,0.0,0.0,0.0,0.0,0.0,0.0,0.0,0.0,0.0,0.0,0.0,0.0,0.0,0.0,0.0,0.0,0.0,0.0,0.0,0.0,0.0,0.0,0.0,0.0,0.0,0.0,0.0,0.0,0.0,0.0,0.0,0.0,0.0,0.0,0.0,0.0,0.0,0.0,0.0,0.0,0.0,0.0,0.0,0.0,0.0,0.0,0.0,0.0,0.0,0.0,0.0,0.0,0.0,0.0,0.0,0.0,0.0,0.0,0.0,0.0,0.0,0.0,0.0,0.0,0.0,0.0,0.0,0.0,0.0,0.0,0.0,0.0,0.0,0.0,0.0,0.0,0.0,0.0,0.0,0.0,0.0,0.0,0.0,0.0,0.0,0.0,0.0,0.0,0.0,0.0,0.0,0.0,0.0,0.0,0.0,0.0,0.0,0.0,0.0,0.0,0.0,0.0,0.0,0.0,0.0,0.0,0.0,0.0,0.0,0.0,0.0,0.0,0.0,0.0,0.0,0.0,0.0,0.0,0.0,0.0,0.0,0.0,0.0,0.0,0.0,0.0,0.0,0.0,0.0,0.0,0.0,0.0,0.0,0.0,0.0,0.0,0.0,0.0,0.0,0.0,0.0,0.0,0.0,0.0,0.0,0.0,0.0,0.0,0.0,0.0,0.0,0.0,0.0,0.0,0.0,0.0,0.0,0.0,0.0,0.0,0.0,0.0,0.0,0.0,0.0,0.0,0.0,0.0,0.0,0.0,0.0,0.0,0.0,0.0,0.0,0.0,0.0,0.0,0.0,0.0,0.0,0.0,0.0,0.0,0.0,0.0,0.0,0.0,0.0,0.0,0.0,0.0,0.0,0.0,0.0,0.0,0.0,0.0,0.0,0.0,0.0,0.0,0.0,0.0,0.0,0.0,0.0,0.0,0.0,0.0,0.0,0.0,0.0,0.0,0.0,0.0,0.0,0.0,0.0,0.0,0.0,0.0,0.0,0.0,0.0,0.0,0.0,0.0,0.0,0.0,0.0,0.0,0.0,0.0,0.0,0.0,0.0,0.0,0.0,0.0,0.0,0.0,0.0,0.0,0.0,0.0,0.0,0.0,0.0,0.0,0.0,0.0,0.0,0.0,0.0,0.0,0.0,0.0,0.0,0.0,0.0,0.0,0.0,0.0,0.0,0.0,0.0,0.0,0.0,0.0,0.0,0.0,0.0,0.0,0.0,0.0,0.0,0.0,0.0,0.0,0.0,0.0,0.0,0.0,0.0,0.0,0.0,0.0,0.0,0.0,0.0,0.0,0.0,0.0,0.0,0.0,0.0,0.0,0.0,0.0,0.0,0.0,0.0,0.0,0.0,0.0,0.0,0.0,0.0,0.0,0.0,0.0,0.0,0.0,0.0,0.0,0.0,0.0,0.0,0.0,0.0,0.0,0.0,0.0,0.0,0.0,0.0,0.0,0.0,0.0,0.0,0.0,0.0,0.0,0.0,0.0,0.0,0.0,0.0,0.0,0.0,0.0,0.0,0.0,0.0,0.0,0.0,0.0,0.0,0.0,0.0,0.0,0.0,0.0,0.0,0.0,0.0,0.0,0.0,0.0,0.0,0.0,0.0,0.0,0.0,0.0,0.0,0.0,0.0,0.0,0.0,0.0,0.0,0.0,0.0,0.0,0.0,0.0,0.0,0.0,0.0,0.0,0.0,0.0,0.0,0.0,0.0,0.0,0.0,0.0,0.0,0.0,0.0,0.0,0.0,0.0,0.0,0.0,0.0,0.0,0.0,0.0,0.0,0.0,0.0,0.0,0.0,0.0,0.0,0.0,0.0,0.0,0.0,0.0,0.0,0.0,0.0,0.0,0.0,0.0,0.0,0.0,0.0,0.0,0.0,0.0,0.0,0.0,0.0,0.0,0.0,0.0,0.0,0.0,0.0,0.0,0.0,0.0,0.0,0.0,0.0,0.0,0.0,0.0,0.0,0.0,0.0,0.0,0.0,0.0,0.0,0.0,0.0,0.0,0.0,0.0,0.0,0.0,0.0,0.0,0.0,0.0,0.0,0.0,0.0,0.0,0.0,0.0,0.0,0.0,0.0,0.0,0.0,0.0,0.0,0.0,0.0,0.0,0.0,0.0,0.0,0.0,0.0,0.0,0.0,0.0,0.0,0.0,0.0,0.0,0.0,0.0,0.0,0.0,0.0,0.0,0.0,0.0,0.0,0.0,0.0,0.0,0.0,0.0,0.0,0.0,0.0,0.0,0.0,0.0,0.0,0.0,0.0,0.0,0.0,0.0,0.0,0.0,0.0,0.0,0.0,0.0,0.0,0.0,0.0,0.0,0.0,0.0,0.0,0.0,0.0,0.0,0.0,0.0,0.0,0.0,0.0,0.0,0.0,0.0,0.0,0.0,0.0,0.0,0.0,0.0,0.0,0.0,0.0,0.0,0.0,0.0,0.0,0.0,0.0,0.0,0.0,0.0,0.0,0.0,0.0,0.0,0.0,0.0,0.0,0.0,0.0,0.0,0.0,0.0,0.0,0.0,0.0,0.0,0.0,0.0,0.0,0.0,0.0,0.0,0.0,0.0,0.0,0.0,0.0,0.0,0.0,0.0,0.0,0.0,0.0,0.0,0.0,0.0,0.0,0.0,0.0,0.0,0.0,0.0,0.0,0.0,0.0,0.0,0.0,0.0,0.0,0.0,0.0,0.0,0.0,0.0,0.0,0.0,0.0,0.0,0.0,0.0,0.0,0.0,0.0,0.0,0.0,0.0,0.0,0.0,0.0,0.0,0.0,0.0,0.0,0.0,0.0,0.0,0.0,0.0,0.0,0.0,0.0,0.0,0.0,0.0,0.0,0.0,0.0,0.0,0.0,0.0,0.0,0.0,0.0,0.0,0.0,0.0,0.0,0.0,0.0,0.0,0.0,0.0,0.0,0.0,0.0,0.0,0.0,0.0,0.0,0.0,0.0,0.0,0.0,0.0,0.0,0.0,0.0,0.0,0.0,0.0,0.0,0.0,0.0,0.0,0.0,0.0,0.0,0.0,0.0,0.0,0.0,0.0,0.0,0.0,0.0,0.0,0.0,0.0,0.0,0.0,0.0,0.0,0.0,0.0,0.0,0.0,0.0,0.0,0.0,0.0,0.0,0.0,0.0,0.0,0.0,0.0,0.0,0.0,0.0,0.0,0.0,0.0,0.0,0.0,0.0,0.0,0.0,0.0,0.0,0.0,0.0,0.0,0.0,0.0,0.0,0.0,0.0,0.0,0.0,0.0,0.0,0.0,0.0,0.0,0.0,0.0,0.0,0.0,0.0,0.0,0.0,0.0,0.0,0.0,0.0,0.0,0.0,0.0,0.0,0.0,0.0,0.0,0.0,0.0,0.0,0.0,0.0,0.0,0.0,0.0,0.0,0.0,0.0,0.0,0.0,0.0,0.0,0.0,0.0,0.0,0.0,0.0,0.0,0.0,0.0,0.0,0.0,0.0,0.0,0.0,0.0,0.0,0.0,0.0,0.0,0.0,0.0,0.0,0.0,0.0,0.0,0.0,0.0,0.0,0.0,0.0,0.0,0.0,0.0,0.0,0.0,0.0,0.0,0.0,0.0,0.0,0.0,0.0,0.0,0.0,0.0,0.0,0.0,0.0,0.0,0.0,0.0,0.0,0.0,0.0,0.0,0.0,0.0,0.0,0.0,-2.9561,0.0,0.0,0.0,0.0,0.0,0.0,0.0,0.0,0.0,0.0,0.0,0.0,0.0,0.0,0.0,0.0,0.0,0.0,0.0,0.0,0.0,0.0,0.0,0.0,-3.1909,-3.1909,-3.2055,-3.2005,-3.2173,-3.2648,0.0,0.0,0.0,0.0,0.0,-3.3232,-3.3296,-3.336,-3.3423,-3.3423,-3.322,-3.2814,-3.2442,-3.1867,-3.119,0.0,0.0,0.0,0.0,0.0,0.0,0.0,0.0,0.0,0.0,0.0,0.0,0.0,0.0,0.0,0.0,0.0,0.0,0.0,0.0,0.0,0.0,0.0,0.0,0.0,0.0,0.0,0.0,0.0,0.0,0.0,0.0,0.0,0.0,0.0,0.0,0.0,0.0,0.0,0.0,0.0,0.0,0.0,0.0,0.0,0.0,0.0,0.0,0.0,0.0,0.0,0.0,0.0,0.0,0.0,0.0,0.0,0.0,0.0,0.0,0.0,0.0,0.0,0.0,0.0,0.0,0.0,0.0,0.0,0.0,0.0,-3.0494,0.0,0.0,0.0,0.0,0.0,0.0,0.0,0.0,0.0,0.0,0.0,0.0,0.0,0.0,0.0,0.0,0.0,0.0,0.0,0.0,0.0,-3.2917,-3.3081,-3.3016,-3.3004,-3.3177,-3.3168,-3.3256,-3.355,-3.355,0.0,0.0,-3.3753,-3.3753,-3.3753,-3.3774,-3.3774,-3.3774,-3.366,-3.3634,-3.3718,-3.3583,-3.291,-3.1818,-3.1506,0.0,0.0,0.0,0.0,0.0,0.0,0.0,0.0,0.0,0.0,0.0,0.0,0.0,0.0,0.0,0.0,0.0,0.0,0.0,0.0,0.0,0.0,0.0,0.0,0.0,0.0,0.0,0.0,0.0,0.0,0.0,0.0,0.0,0.0,0.0,0.0,0.0,0.0,0.0,0.0,0.0,0.0,0.0,0.0,0.0,0.0,0.0,0.0,0.0,0.0,0.0,0.0,0.0,0.0,0.0,0.0,0.0,0.0,0.0,0.0,0.0,0.0,0.0,-3.2416,-3.2477,-3.255,-3.2609,-3.2655,-3.2667,-3.2667,-3.2332,-3.1812,0.0,0.0,0.0,0.0,0.0,0.0,0.0,0.0,0.0,0.0,0.0,0.0,0.0,0.0,0.0,0.0,0.0,0.0,0.0,0.0,-3.2851,-3.3156,-3.3125,-3.3103,-3.3198,-3.3232,-3.3523,-3.415,-3.413,-3.4387,-3.5002,-3.5183,-3.5228,-3.5228,-3.5284,-3.5295,-3.5295,-3.4675,-3.4551,-3.4932,-3.4243,-3.4025,-3.4175,-3.2789,-3.2358,-3.2601,0.0,0.0,0.0,0.0,0.0,0.0,0.0,0.0,0.0,0.0,0.0,0.0,0.0,0.0,0.0,0.0,0.0,0.0,0.0,0.0,0.0,0.0,0.0,0.0,0.0,0.0,0.0,0.0,0.0,0.0,0.0,0.0,0.0,0.0,0.0,0.0,0.0,0.0,0.0,0.0,0.0,-3.2614,-3.335,0.0,0.0,0.0,0.0,0.0,0.0,0.0,0.0,0.0,0.0,0.0,0.0,0.0,-3.4894,-3.5642,-3.5642,-3.5656,-3.5656,-3.5726,-3.5795,-3.5863,-3.5943,-3.6009,-3.6049,-3.6049,0.0,-3.1812,-3.1812,0.0,0.0,0.0,0.0,0.0,0.0,0.0,0.0,0.0,0.0,0.0,0.0,0.0,0.0,0.0,0.0,0.0,0.0,0.0,0.0,0.0,-3.441,-3.4466,-3.4499,-3.4432,-3.46,-3.4936,-3.4959,-3.507,-3.5406,-3.5498,-3.5566,-3.5566,-3.5577,-3.5734,-3.5985,-3.5677,-3.5725,-3.6153,-3.5769,-3.5727,-3.5901,-3.4785,-3.3982,-3.349,-3.297,0.0,0.0,0.0,0.0,0.0,0.0,0.0,0.0,0.0,0.0,0.0,0.0,0.0,0.0,0.0,0.0,0.0,0.0,0.0,0.0,0.0,0.0,0.0,0.0,0.0,0.0,0.0,0.0,0.0,0.0,0.0,0.0,0.0,0.0,0.0,0.0,0.0,0.0,0.0,-3.3036,-3.3403,-3.377,-3.3807,-3.3807,0.0,0.0,0.0,0.0,0.0,0.0,0.0,0.0,0.0,-3.5716,-3.5752,-3.5899,-3.6303,-3.6303,-3.6332,-3.6374,-3.6403,-3.6436,-3.6582,-3.6609,-3.6626,-3.6718,-3.6718,-3.59,-3.4562,-3.4562,-3.4302,-3.3819,0.0,0.0,0.0,0.0,-3.179,-3.1767,0.0,0.0,0.0,0.0,0.0,0.0,0.0,0.0,0.0,0.0,0.0,0.0,-3.5245,-3.5383,-3.5508,-3.5429,-3.5383,-3.5383,-3.552,-3.5498,-3.5531,-3.552,-3.5554,-3.56,-3.56,-3.5734,-3.5985,-3.6451,-3.6346,-3.6512,-3.69,-3.6781,-3.6801,-3.6865,-3.6322,-3.5505,-3.458,-3.4295,-3.4051,-3.3848,0.0,0.0,0.0,0.0,0.0,0.0,0.0,0.0,0.0,0.0,0.0,0.0,0.0,0.0,0.0,0.0,0.0,0.0,0.0,0.0,0.0,0.0,0.0,0.0,0.0,0.0,0.0,0.0,0.0,0.0,0.0,0.0,0.0,0.0,0.0,0.0,0.0,-3.3807,-3.388,-3.41,-3.41,-3.4174,0.0,0.0,0.0,0.0,0.0,0.0,-3.6266,-3.6303,-3.6376,-3.6597,-3.6817,-3.7,-3.7221,-3.7441,-3.7544,-3.7588,-3.7588,-3.7661,-3.7789,-3.7789,-3.7794,-3.7877,-3.7877,-3.7765,-3.7506,-3.6952,-3.6333,-3.5713,-3.5082,-3.4439,-3.3833,-3.3239,-3.3005,-3.2993,0.0,0.0,0.0,0.0,0.0,0.0,0.0,0.0,0.0,0.0,0.0,-3.5128,-3.5128,-3.5337,-3.5463,-3.5314,-3.5406,-3.552,-3.5577,-3.5543,-3.552,-3.56,-3.56,-3.56,-3.56,-3.6062,-3.6471,-3.686,-3.6492,-3.6512,-3.688,-3.6512,-3.6533,-3.69,-3.6865,-3.66,-3.6132,-3.5082,-3.4853,-3.5064,-3.4782,0.0,0.0,0.0,0.0,0.0,0.0,0.0,0.0,0.0,0.0,0.0,0.0,0.0,0.0,0.0,0.0,0.0,0.0,0.0,0.0,0.0,0.0,0.0,0.0,0.0,0.0,0.0,0.0,0.0,0.0,0.0,0.0,0.0,0.0,0.0,0.0,0.0,0.0,-3.4857,-3.4931,0.0,0.0,0.0,0.0,-3.6229,-3.6229,-3.6266,-3.6303,-3.6303,-3.6633,-3.7419,-3.8175,-3.8946,-3.9717,-4.0487,-4.0838,-4.0855,-4.0855,-4.0903,-4.0962,-4.0962,-4.0993,-4.1055,-4.1055,-4.0628,-3.9771,-3.758,-3.6628,-3.6549,-3.6512,-3.6398,-3.6306,-3.6269,-3.6228,-3.6187,0.0,0.0,0.0,-3.3924,-3.4101,-3.43,-3.4906,-3.4963,-3.4987,-3.5198,-3.5152,-3.5175,-3.5337,-3.536,-3.5406,-3.5464,-3.5429,-3.5406,-3.552,-3.5498,-3.5498,-3.552,-3.5577,-3.56,-3.56,-3.5778,-3.5831,-3.5824,-3.6609,-3.7129,-3.7394,-3.8196,-3.8544,-3.851,-3.851,-3.7972,-3.7041,-3.6388,-3.6188,-3.6301,-3.6169,-3.613,0.0,0.0,0.0,0.0,0.0,0.0,0.0,0.0,0.0,0.0,0.0,0.0,0.0,0.0,0.0,0.0,0.0,0.0,0.0,0.0,0.0,0.0,0.0,0.0,0.0,0.0,0.0,0.0,0.0,0.0,0.0,0.0,0.0,0.0,0.0,0.0,0.0,-3.5789,-3.5862,0.0,-3.6266,-3.6303,-3.6486,-3.7015,-3.7088,-3.7529,-3.8542,-3.8615,-3.8982,-3.979,-4.0068,-4.0361,-4.0671,-4.0948,-4.1095,-4.1095,-4.1095,-4.1144,-4.1204,-4.1204,-4.1235,-4.1298,-4.1298,-4.1129,-4.0797,-4.0008,-3.8728,-3.7295,-3.7295,-3.7013,-3.6545,-3.6545,-3.6572,-3.6599,0.0,-3.2382,0.0,-3.3924,-3.4101,-3.4325,-3.493,-3.4987,-3.4954,-3.5152,-3.5128,-3.5152,-3.5268,-3.5337,-3.5406,-3.5487,-3.5429,-3.5406,-3.552,-3.5498,-3.5498,-3.552,-3.5577,-3.5554,-3.5492,-3.5708,-3.5895,-3.5992,-3.7102,-3.7877,-3.8382,-3.9089,-3.938,-3.9353,-3.9204,-3.8683,-3.7879,-3.7617,-3.736,-3.7113,-3.7265,-3.7356,-3.7356,0.0,0.0,0.0,0.0,0.0,0.0,0.0,0.0,0.0,0.0,0.0,0.0,0.0,0.0,0.0,0.0,0.0,0.0,0.0,0.0,0.0,0.0,0.0,0.0,0.0,0.0,0.0,0.0,0.0,0.0,0.0,0.0,0.0,0.0,0.0,-3.6376,-3.6684,-3.6721,-3.6942,-3.7441,-3.7514,-3.7845,-3.8652,-3.8689,-3.9166,-4.0267,-4.0304,-4.0561,-4.1058,-4.1352,-4.1515,-4.1515,-4.1772,-4.1919,-4.1919,-4.1919,-4.1952,-4.1965,-4.1965,-4.1997,-4.203,-4.203,-4.1899,-4.1625,-4.1625,-4.0535,-3.884,-3.887,-3.8405,-3.7696,-3.7696,-3.7576,-3.7387,0.0,-3.2355,-3.2738,-3.3866,-3.4075,-3.425,-3.4811,-3.4883,-3.4883,-3.4883,-3.5034,-3.5058,-3.4906,-3.5245,-3.5429,-3.5314,-3.5406,-3.552,-3.56,-3.5543,-3.552,-3.56,-3.5566,-3.547,-3.5269,-3.5959,-3.6736,-3.7577,-3.796,-3.8737,-3.9822,-3.9019,-3.8903,-3.9314,-3.8847,-3.8671,-3.8737,-3.8719,-3.8255,-3.7577,-3.8038,-3.8174,-3.8174,0.0,0.0,0.0,0.0,0.0,0.0,0.0,0.0,0.0,0.0,0.0,0.0,0.0,0.0,0.0,0.0,0.0,0.0,0.0,0.0,0.0,0.0,0.0,0.0,0.0,0.0,0.0,0.0,0.0,0.0,0.0,0.0,0.0,-3.6597,-3.6413,-3.6707,-3.7492,-3.7603,-3.8227,-3.979,-3.9937,-4.0267,-4.1022,-4.1095,-4.1095,-4.1132,-4.1168,-4.1205,-4.1242,-4.2029,-4.247,-4.2506,-4.324,-4.3662,-4.3662,-4.3608,-4.3625,-4.3625,-4.3551,-4.3551,-4.3551,-4.3515,-4.3057,-4.2323,-4.2323,-4.1882,-4.1185,-4.1192,-4.0678,-3.9953,-3.9953,-3.9423,-3.8756,-3.171,-3.1739,-3.2104,-3.324,-3.3449,-3.3783,-3.4763,-3.4883,-3.4906,-3.5034,-3.4977,-3.5058,-3.5314,-3.5175,-3.5198,-3.5487,-3.5429,-3.5406,-3.552,-3.5566,-3.5577,-3.56,-3.5081,-3.5282,-3.6355,-3.6328,-3.6546,-3.7025,-3.8533,-3.9159,-3.8977,-3.9801,-4.0323,-4.0537,-4.0024,-3.9729,-3.9523,-3.8895,-3.8538,-3.8363,-3.8254,-3.7984,-3.7739,0.0,0.0,0.0,0.0,0.0,0.0,0.0,0.0,0.0,0.0,0.0,0.0,0.0,0.0,0.0,0.0,0.0,0.0,0.0,0.0,0.0,0.0,0.0,0.0,0.0,0.0,0.0,0.0,0.0,0.0,0.0,-3.8449,-3.8542,-3.8102,-3.8542,-3.8982,-3.9218,-3.9753,-4.0304,-4.0728,-4.0781,-4.0838,-4.1058,-4.1095,-4.1352,-4.1956,-4.2506,-4.3351,-4.4525,-4.5351,-4.6049,-4.6654,-4.6874,-4.6985,-4.6985,-4.6397,-4.6085,-4.6049,-4.4892,-4.4378,-4.4342,-4.3754,-4.3351,-4.3167,-4.3167,-4.302,-4.2727,-4.1568,-4.1013,-4.0841,-4.0841,-4.0357,-3.9718,-3.1511,-3.1682,-3.216,-3.3024,-3.3423,-3.386,-3.4763,-3.4883,-3.4939,-3.5011,-3.4963,-3.5011,-3.5222,-3.5152,-3.5198,-3.5441,-3.5418,-3.5475,-3.5543,-3.5577,-3.5464,-3.5126,-3.5351,-3.5577,-3.5847,-3.658,-3.7148,-3.7558,-3.8998,-3.9743,-3.9829,-4.0504,-4.0941,-4.1194,-4.0723,-4.0453,-4.0324,-3.9822,-3.9174,-3.8457,-3.8617,-3.8344,-3.7792,-3.7898,-3.8019,-3.8191,-3.8191,-3.8191,-3.8191,-3.8191,0.0,0.0,0.0,0.0,0.0,0.0,0.0,0.0,0.0,0.0,0.0,0.0,0.0,0.0,0.0,0.0,0.0,0.0,0.0,0.0,0.0,0.0,0.0,0.0,-3.9124,-3.9313,-3.9664,-3.9827,-4.001,-4.0377,-4.0818,-4.1242,-4.1572,-4.2196,-4.2746,-4.3094,-4.3737,-4.4324,-4.4782,-4.4929,-4.5443,-4.6361,-4.6544,-4.6838,-4.7278,-4.7278,-4.7278,-4.7278,-4.6838,-4.6599,-4.6562,-4.5626,-4.5223,0.0,-4.4709,-4.4305,-4.4011,-4.4011,-4.3791,0.0,0.0,0.0,0.0,0.0,-4.0909,-4.0566,-3.1511,-3.1938,-3.2492,-3.3077,-3.363,-3.4226,-3.4787,-3.4883,-3.4883,-3.4883,-3.4883,-3.4883,-3.4906,-3.5128,-3.5291,-3.5314,-3.5498,-3.56,-3.56,-3.56,-3.5295,-3.4641,-3.5926,-3.6118,-3.4912,-3.6943,-3.824,-3.8756,-3.9468,-4.0354,-4.1343,-4.0943,-4.0955,-4.141,-4.0943,-4.0847,-4.1045,-4.0897,-3.9919,-3.8466,-3.903,-3.876,-3.795,-3.7685,-3.7792,-3.8123,-3.8174,-3.8191,-3.8191,-3.8191,0.0,0.0,0.0,0.0,0.0,0.0,0.0,0.0,0.0,0.0,0.0,0.0,0.0,0.0,0.0,0.0,0.0,0.0,0.0,0.0,0.0,0.0,0.0,0.0,-3.991,-4.0304,-4.1132,-4.0708,-4.0561,-4.1295,-4.1535,-4.1939,-4.2763,-4.4104,-4.5259,-4.5993,-4.7278,-4.8049,-4.8049,0.0,0.0,0.0,0.0,-4.6361,-4.6434,-4.6434,-4.6434,-4.6434,-4.6361,-4.6324,-4.6287,-4.6104,-4.603,-4.603,-4.5957,-4.548,-4.4838,-4.4838,-4.4378,-4.3625,-4.3551,-4.3057,-4.2359,-4.1609,-4.1344,-4.1335,-3.1511,-3.1567,-3.1992,-3.3024,-3.3319,-3.3707,-3.4739,-3.4883,-3.4883,-3.4883,-3.4883,-3.493,-3.5058,-3.5105,-3.5222,-3.5429,-3.5475,-3.5543,-3.56,-3.5566,-3.5476,-3.5397,-3.5667,-3.6276,-3.7212,-3.8037,-3.8928,-3.9821,-4.0336,-4.0497,-4.0377,-4.0279,-4.05,-4.0919,-4.0417,-4.0675,-4.1327,-4.0314,-4.0079,-4.0328,-3.8852,-3.7642,-3.6776,-3.7721,-3.7898,-3.7685,-3.8036,-3.8191,-3.8191,-3.8191,-3.8191,-3.8191,-3.8191,-3.8191,0.0,0.0,0.0,0.0,0.0,0.0,0.0,0.0,0.0,0.0,0.0,0.0,0.0,0.0,0.0,0.0,0.0,0.0,0.0,-3.9756,-4.0386,-4.1148,-4.1956,-4.247,-4.2854,-4.302,-4.4195,-4.5296,-4.6085,-4.6452,-4.6709,-4.6856,-4.6581,-4.6361,-4.6361,-4.6819,-4.7406,-4.803,-4.86,-4.9187,-4.9848,-4.9848,-4.9848,-4.9848,0.0,0.0,-4.8839,-4.7498,-4.6856,-4.6819,-4.6177,-4.581,-4.5663,-4.5663,-4.5186,-4.4415,-4.3754,-4.3387,-4.324,-4.3094,-4.2633,-4.2083,-3.1511,-3.1739,-3.2104,-3.268,-3.3266,-3.3841,-3.4423,-3.4715,-3.4883,-3.4883,-3.4883,-3.4939,-3.4977,-3.5081,-3.5152,-3.5291,-3.5406,-3.552,-3.56,-3.5554,-3.5419,-3.5081,-3.6163,-3.6941,-3.7347,-3.8659,-3.9603,-4.0113,-4.0328,-4.0328,-4.0113,-4.0113,-4.0204,-4.0451,-4.0179,-4.0466,-4.1105,-4.0481,-4.0261,-4.027,-3.9076,-3.7896,-3.6886,-3.7385,-3.7667,-3.7827,-3.7827,-3.7984,-3.8191,-3.8191,-3.8191,-3.8191,-3.8191,-3.8191,-3.8191,0.0,0.0,0.0,0.0,0.0,0.0,0.0,0.0,0.0,0.0,0.0,0.0,0.0,0.0,-3.8824,-3.8908,0.0,-4.0387,-4.0926,-4.1742,-4.258,-4.3387,-4.4562,-4.5149,-4.4745,-4.5406,-4.6214,-4.7003,-4.7443,-4.77,-4.77,-4.8122,-4.8343,-4.8343,-4.8343,-4.8526,-4.893,-4.893,-4.915,-4.9554,-4.9554,-4.9554,-4.9554,-4.915,-4.893,-4.893,-4.8086,-4.77,-4.7663,-4.7278,-4.6874,-4.6471,-4.6067,-4.5663,-4.5259,-4.4856,-4.4195,-4.3515,-4.3515,-4.324,-4.291,-3.1511,-3.1881,-3.2244,-3.2355,-3.3245,-3.3942,-3.4075,-3.4546,-3.4883,-3.4883,-3.4883,-3.4883,-3.4883,-3.5034,-3.5128,-3.5175,-3.536,-3.552,-3.56,-3.56,-3.5329,-3.4742,-3.6772,-3.7618,-3.7032,-3.9029,-4.0113,-4.0113,-4.0113,-4.0113,-4.0113,-4.0113,-4.0113,-4.0113,-4.0113,-4.0303,-4.0659,-4.0659,-4.0363,-3.9882,-3.929,-3.8537,-3.7698,-3.7111,-3.7358,-3.8019,-3.7739,-3.7898,-3.8191,-3.8191,-3.8191,-3.8191,-3.8191,-3.8191,-3.8191,-3.8191,-3.8191,0.0,0.0,0.0,0.0,0.0,0.0,0.0,0.0,-3.8191,-3.8263,-3.8408,-3.8952,-3.9476,-3.9724,-4.0448,-4.128,-4.2077,-4.3079,-4.4011,-4.4819,-4.6159,-4.6966,-4.6654,-4.6617,-4.6874,-4.7516,-4.8159,-4.8563,-4.8563,-4.9664,-5.0325,-5.0325,-4.9701,-4.9353,-4.9353,-4.8673,-4.8306,-4.8306,-4.8306,-4.8306,-4.8306,-4.8306,-4.8306,-4.8306,-4.8306,-4.8306,-4.8306,-4.8306,-4.792,-4.7259,-4.6617,-4.6287,-4.614,-4.614,-4.5259,-4.3938,-4.3791,-4.3608,-4.3515,-3.1511,-3.1568,-3.1768,-3.2299,-3.2895,-3.3475,-3.4025,-3.4546,-3.4883,-3.4883,-3.4883,-3.4883,-3.4883,-3.5034,-3.5198,-3.5429,-3.5486,-3.552,-3.56,-3.56,-3.5566,-3.5464,-3.7019,-3.7855,-3.7787,-3.93,-4.0113,-4.0113,-4.0113,-4.0113,-4.0113,-4.0113,-4.0113,-4.0113,-4.0113,-4.0138,-4.0154,-4.0154,-4.0358,-4.056,-3.9134,-3.8777,-3.8839,-3.7441,-3.7189,-3.765,-3.7984,-3.8157,-3.8191,-3.8191,-3.8191,-3.8191,-3.8191,-3.8191,-3.8191,-3.8191,-3.8191,-3.8191,-3.8191,-3.8191,-3.8191,-3.8191,-3.8191,-3.8191,0.0,0.0,-3.8408,-3.9133,-3.9333,-3.9638,-4.0501,-4.1301,-4.1971,-4.2235,-4.3553,-4.4856,-4.5663,-4.6526,-4.7645,-4.9023,-4.9206,-4.9243,-4.9317,-4.939,-4.9463,-4.9463,-4.8893,-4.86,-4.86,-4.8489,-4.8453,-4.8453,-4.8343,-4.8306,-4.8306,-4.8306,-4.8306,-4.8306,-4.8306,-4.8306,-4.8306,-4.8306,-4.8306,-4.8306,-4.8306,-4.8269,-4.8159,-4.8086,-4.759,-4.6966,-4.6966,-4.6434,-4.5553,-4.4819,-4.4121,-4.3515,-3.1511,-3.1511,-3.1597,-3.1824,-3.2355,-3.2922,-3.3475,-3.4068,-3.4546,-3.4859,-3.4883,-3.4883,-3.4883,-3.493,-3.5081,-3.5245,-3.5337,-3.5429,-3.5543,-3.5577,-3.56,-3.56,-3.6671,-3.7449,-3.7889,-3.8903,-3.9673,-4.0113,-4.0113,-4.0113,-4.0113,-4.0113,-4.0113,-4.0113,-4.0113,-4.0113,-4.0079,-3.9639,-3.9593,-3.9617,-3.8127,-3.7892,-3.8389,-3.7321,-3.7302,-3.7915,-3.7809,-3.7967,0.0,-3.8191,-3.8191,-3.8191,-3.8191,-3.8191,-3.8191,-3.8191,-3.8191,-3.8191,-3.8191,-3.8191,-3.8191,-3.8191,-3.8191,-3.8336,-3.879,-3.8915,-3.9115,-3.9876,-4.0473,-4.0961,-4.1359,-4.2211,-4.2993,0.0,-4.5022,-4.6195,-4.6526,-4.8103,-4.915,-4.8893,-4.926,-4.9574,-4.961,-4.9114,-4.882,-4.882,-4.8526,-4.8306,-4.8306,-4.8306,-4.8306,-4.8306,-4.8306,-4.8306,-4.8306,-4.8306,-4.8306,-4.8306,-4.8306,-4.8306,-4.8306,-4.8306,-4.8306,-4.8306,-4.8306,-4.8306,-4.8306,-4.8306,-4.8122,-4.7773,-4.7773,-4.7296,-4.6434,-4.5168,-4.4488,-4.4121,-3.1511,-3.1511,-3.1511,-3.1511,-3.1853,-3.2382,-3.3077,-3.3713,-3.43,-3.4811,-3.4883,-3.4883,-3.4883,-3.4883,-3.493,-3.5105,-3.5198,-3.5314,-3.5508,-3.5543,-3.5577,-3.56,-3.6366,-3.7066,-3.7584,-3.8328,-3.8937,-3.9503,-3.9503,-3.9503,-3.9503,-3.9503,-3.9503,-3.9503,-3.9503,-3.9503,-3.9469,-3.8903,-3.87,-3.8599,-3.7337,-3.7136,-3.7603,-3.7081,-3.7265,-3.7828,-3.7721,-3.7915,-3.8191,-3.8191,-3.8191,-3.8191,-3.8191,-3.8191,-3.8191,-3.8191,-3.8191,-3.8191,-3.8191,-3.8191,-3.8263,-3.848,-3.8553,-3.8717,-3.9514,-3.9695,-3.9912,-4.0691,-4.1379,-4.1923,-4.2232,-4.2868,-4.3632,-4.4473,-4.5828,-4.6929,-4.7369,-4.9003,-4.9738,-4.8783,-4.8967,-4.9187,-4.9243,-4.8673,-4.8306,-4.8306,-4.8306,-4.8306,-4.8306,-4.8306,-4.8306,-4.8306,-4.8306,-4.8306,-4.8306,-4.8306,-4.8306,-4.8306,-4.8306,-4.8306,-4.8306,-4.8306,-4.8306,-4.8306,-4.8306,-4.8306,-4.8306,-4.8306,-4.8306,-4.8306,-4.8306,-4.792,-4.7259,-4.5865,-4.5205,-4.4929,-3.1511,-3.1511,-3.1511,-3.1511,-3.1511,-3.191,-3.3024,-3.3713,-3.43,-3.4811,-3.4883,-3.4883,-3.4883,-3.4883,-3.493,-3.5105,-3.5105,-3.5222,-3.5486,-3.5475,-3.552,-3.56,-3.6366,-3.6829,-3.6829,-3.755,-3.7956,-3.799,-3.799,-3.799,-3.799,-3.799,-3.799,-3.799,-3.799,-3.799,-3.799,-3.7956,-3.7922,-3.7889,-3.7134,-3.6818,-3.6831,-3.6893,-3.6919,-3.7036,-3.788,-3.8174,-3.8191,-3.8191,-3.8191,-3.8191,-3.8191,-3.8191,-3.8191,-3.8191,-3.8191,-3.8191,-3.8191,-3.8191,-3.8408,-3.9169,-3.9369,-3.955,-4.0293,-4.0474,-4.0691,-4.1488,-4.1705,-4.1996,-4.2996,-4.3178,-4.3524,-4.4526,-4.5406,-4.6471,-4.8049,-4.8343,-4.8673,-4.9463,-4.882,-4.8343,0.0,-4.8306,-4.8306,-4.8306,-4.8306,-4.8306,-4.8306,-4.8306,-4.8306,-4.8306,-4.8306,-4.8306,-4.8306,-4.8306,-4.8306,-4.8306,-4.8306,-4.8306,-4.8306,-4.8306,-4.8306,-4.8306,-4.8306,-4.8306,-4.8306,-4.8306,-4.8306,-4.8306,-4.8306,-4.8306,-4.8159,-4.7333,-4.6526,-4.5736,-3.1511,-3.1511,-3.1511,-3.1511,-3.1511,-3.1768,-3.2574,-3.3135,-3.3707,-3.43,-3.4667,0.0,0.0,0.0,0.0,0.0,-3.5058,-3.5152,-3.5222,-3.5383,-3.5498,-3.552,-3.5847,-3.6265,-3.6795,-3.7032,-3.7415,-3.7922,-3.7922,-3.7922,-3.7922,-3.7922,-3.7922,-3.7922,-3.7922,-3.7922,-3.7889,-3.7381,-3.7178,-3.7077,-3.6332,-3.6174,-3.647,-3.6492,-3.6661,-3.6978,0.0,-3.7933,-3.8191,-3.8191,-3.8191,-3.8191,-3.8191,-3.8191,-3.8191,-3.8191,-3.8191,-3.8336,-3.8843,-3.9024,-3.9188,-3.9948,-4.013,-4.0329,-4.1126,-4.1307,-4.1524,-4.2339,-4.2576,-4.2759,-4.3142,-4.3269,-4.3797,-4.5278,-4.6177,-4.7095,-4.8159,-4.8746,-4.9003,-4.8783,-4.8489,0.0,0.0,0.0,0.0,-4.8306,-4.8306,-4.8306,-4.8306,-4.8306,-4.8306,-4.8306,-4.8306,-4.8306,-4.8306,-4.8306,-4.8306,-4.8306,-4.8306,-4.8306,-4.8306,-4.8306,-4.8306,-4.8306,-4.8306,-4.8306,-4.8306,-4.8306,-4.8306,-4.8306,-4.8306,-4.8306,-4.8269,-4.8012,-4.7719,-4.7315,0.0,-3.1511,-3.1511,-3.1511,-3.1511,0.0,0.0,0.0,0.0,0.0,0.0,0.0,0.0,0.0,0.0,0.0,0.0,-3.5058,-3.5105,-3.5268,-3.536,-3.5406,-3.552,-3.5825,-3.632,-3.6343,-3.6603,-3.7087,-3.7087,-3.7087,-3.7087,-3.7087,-3.7087,-3.7087,-3.7087,-3.7087,-3.7053,-3.6569,-3.6366,-3.6332,-3.5825,-3.58,-3.6084,-3.6255,-3.6471,0.0,-3.7151,-3.756,-3.7967,-3.814,-3.8191,-3.8191,-3.8191,-3.8191,-3.8191,-3.8191,-3.8408,-3.8717,-3.926,-3.9586,-3.9985,-4.0727,-4.0945,-4.1126,-4.194,-4.2122,-4.2266,-4.2792,-4.2975,-4.305,-4.3142,-4.3251,-4.3888,-4.5517,-4.6286,-4.7038,-4.8102,-4.8688,-4.8854,-4.8379,-4.8306,-4.8306,0.0,0.0,0.0,-4.8306,-4.8306,-4.8306,-4.8306,-4.8306,-4.8306,-4.8306,-4.8306,-4.8306,-4.8306,-4.8306,-4.8306,-4.8306,-4.8306,-4.8306,-4.8306,-4.8306,-4.8306,-4.8306,-4.8306,-4.8306,-4.8306,-4.8306,-4.8306,-4.8306,-4.8306,-4.8306,-4.8306,-4.8306,-4.8306,-4.8122,0.0,0.0,-3.1511,0.0,0.0,0.0,0.0,0.0,0.0,0.0,0.0,0.0,0.0,0.0,0.0,0.0,0.0,0.0,-3.5081,-3.5105,-3.5175,-3.5291,-3.5406,-3.5508,-3.5508,-3.5566,-3.56,-3.56,-3.56,-3.56,-3.56,-3.56,-3.56,-3.56,-3.56,-3.56,-3.56,-3.56,-3.56,-3.56,-3.56,-3.56,-3.5644,-3.6071,-3.6241,-3.6305,-3.6721,-3.7132,-3.7542,-3.8002,-3.8174,-3.8191,-3.8191,-3.8191,-3.8227,-3.8263,-3.8807,-3.9405,-3.9478,-4.0021,-4.0764,-4.156,-4.1741,-4.1958,-4.2737,-4.2901,-4.2901,-4.2901,-4.2901,-4.2956,0.0,0.0,-4.3725,-4.5293,-4.568,-4.6377,-4.7914,-4.817,-4.8226,0.0,0.0,0.0,0.0,0.0,0.0,-4.8306,0.0,-4.8306,-4.8306,-4.8306,-4.8306,-4.8306,-4.8306,-4.8306,-4.8306,-4.8306,-4.8306,-4.8306,-4.8306,-4.8306,-4.8306,-4.8306,-4.8306,-4.8306,-4.8306,-4.8306,-4.8306,-4.8306,-4.8306,-4.8306,-4.8306,-4.8306,-4.8306,-4.8306,-4.8306,-4.8196,0.0,0.0,0.0,0.0,0.0,0.0,0.0,0.0,0.0,0.0,0.0,0.0,0.0,0.0,0.0,0.0,0.0,0.0,-3.4963,-3.5024,-3.5128,-3.5152,-3.5268,-3.5337,-3.5337,-3.5452,-3.552,-3.552,-3.5577,-3.56,-3.56,-3.56,-3.56,-3.56,-3.56,-3.56,-3.56,-3.56,-3.56,-3.56,-3.56,-3.56,-3.5622,-3.5734,-3.5778,-3.5844,-3.6284,-3.6701,-3.7113,-3.7523,-3.7915,-3.8191,-3.8191,-3.8191,-3.8336,-3.8915,-3.9224,-3.9659,-4.0818,-4.1234,-4.1596,-4.2375,-4.2592,-4.2629,-4.2865,-4.2901,-4.2901,-4.2901,-4.2901,-4.2956,-4.3086,0.0,0.0,-4.4675,-4.5388,0.0,-4.7222,-4.7901,0.0,-4.8287,0.0,-4.8306,-4.8306,-4.8306,0.0,0.0,-4.8306,-4.8306,-4.8306,-4.8306,-4.8306,-4.8306,-4.8306,-4.8306,-4.8306,-4.8306,-4.8306,-4.8306,-4.8306,-4.8306,-4.8306,-4.8306,-4.8306,-4.8306,-4.8306,-4.8306,-4.8306,-4.8306,-4.8306,-4.8306,-4.8306,-4.8306,-4.8306,-4.8306,-4.8306,-4.8269,0.0,0.0,0.0,0.0,0.0,0.0,0.0,0.0,0.0,0.0,0.0,0.0,0.0,0.0,0.0,0.0,0.0,0.0,0.0,-3.4954,-3.5058,-3.5105,-3.5222,-3.5314,-3.5383,-3.5486,-3.5508,-3.5508,-3.5475,-3.552,-3.5566,-3.5566,-3.5554,-3.56,-3.56,-3.56,-3.56,-3.56,-3.56,0.0,0.0,-3.56,-3.56,-3.56,-3.56,-3.5644,-3.591,-3.6374,-3.6958,-3.7377,-3.7809,-3.8191,-3.8191,-3.8444,-3.8826,-3.9278,-3.9876,-4.06,-4.1451,-4.1958,-4.2339,-4.2792,-4.2901,-4.2901,-4.2901,-4.2901,-4.2901,-4.2901,-4.2901,-4.2901,-4.2994,-4.3068,-4.3451,0.0,0.0,0.0,-4.6927,-4.7752,-4.8248,0.0,-4.8306,0.0,-4.8306,-4.8306,-4.8306,0.0,-4.8306,-4.8306,-4.8306,-4.8306,-4.8306,-4.8306,-4.8306,-4.8306,-4.8306,-4.8306,-4.8306,-4.8306,-4.8306,-4.8306,-4.8306,-4.8306,-4.8306,-4.8306,0.0,-4.8306,-4.8306,-4.8306,-4.8306,-4.8306,-4.8306,-4.8306,-4.8306,-4.8306,-4.8306,-4.8306,0.0,0.0,0.0,0.0,0.0,0.0,0.0,0.0,0.0,0.0,-3.3272,-3.405,0.0,0.0,0.0,0.0,0.0,0.0,0.0,0.0,-3.493,-3.5081,-3.5198,-3.5291,-3.5406,-3.5429,-3.5463,-3.5463,-3.5337,-3.536,-3.5508,-3.5508,-3.5543,-3.56,-3.56,-3.56,-3.56,-3.56,-3.56,-3.56,-3.56,-3.56,-3.56,0.0,-3.56,-3.5622,-3.5667,-3.6199,-3.688,-3.7358,-3.7809,-3.8191,-3.8191,-3.877,-3.9405,-3.9514,-4.0564,-4.1705,-4.1813,-4.2375,-4.2901,-4.2901,-4.2901,-4.2901,-4.2901,-4.2901,-4.2901,-4.2901,-4.2901,-4.2901,-4.2901,-4.3032,-4.3378,-4.4051,0.0,-4.601,-4.6743,-4.7638,-4.8226,-4.8287,-4.8306,-4.8306,-4.8306,-4.8306,-4.8306,-4.8306,-4.8306,-4.8306,-4.8306,-4.8306,-4.8306,-4.8306,-4.8306,-4.8306,-4.8306,-4.8306,-4.8306,-4.8306,-4.8306,-4.8306,-4.8306,-4.8306,-4.8306,-4.8306,0.0,0.0,-4.8306,-4.8306,-4.8306,-4.8306,-4.8306,-4.8306,-4.8306,-4.8306,-4.8306,-4.8306,0.0,0.0,0.0,0.0,0.0,0.0,0.0,0.0,0.0,-3.1625,-3.2652,-3.3707,0.0,0.0,0.0,0.0,0.0,0.0,0.0,0.0,0.0,-3.4906,-3.4987,-3.4987,-3.4977,-3.5128,-3.5175,-3.5175,-3.5268,-3.536,-3.5508,-3.5508,-3.5543,-3.56,-3.56,-3.56,-3.56,-3.56,-3.56,-3.56,-3.56,-3.56,-3.56,-3.56,0.0,0.0,-3.6028,-3.6262,-3.6533,-3.7265,-3.7809,-3.8191,-3.8191,-3.877,-3.9514,-4.013,-4.0981,-4.185,-4.252,-4.2792,-4.2901,-4.2901,-4.2901,-4.2901,-4.2901,-4.2901,-4.2901,-4.2901,-4.2901,-4.2901,-4.2901,-4.292,-4.3067,-4.3342,-4.4617,-4.5694,-4.6048,-4.733,-4.8226,0.0,-4.8306,-4.8306,-4.8306,-4.8306,0.0,0.0,0.0,-4.8306,-4.8306,-4.8306,-4.8306,-4.8306,-4.8306,-4.8306,-4.8306,-4.8306,-4.8306,-4.8306,-4.8306,-4.8306,-4.8306,-4.8306,-4.8306,-4.8306,-4.8306,0.0,-4.8306,-4.8306,-4.8306,-4.8306,-4.8306,-4.8306,-4.8306,-4.8306,-4.8306,-4.8306,0.0,0.0,0.0,0.0,0.0,0.0,-3.1511,-3.1511,-3.1596,-3.1938,-3.2465,-3.2975,-3.3527,-3.3834,-3.391,0.0,0.0,0.0,0.0,0.0,0.0,0.0,-3.4835,-3.5058,-3.5105,-3.5105,-3.5105,-3.5105,0.0,-3.5175,-3.5291,-3.5291,-3.5383,-3.5543,-3.5543,-3.5588,-3.56,-3.56,-3.56,-3.56,-3.56,-3.56,-3.56,0.0,0.0,0.0,-3.5866,-3.6071,-3.6388,-3.6997,-3.7469,-3.7898,-3.8123,-3.9007,-4.0057,-4.0401,-4.1361,-4.2411,-4.281,-4.2901,-4.2901,-4.2901,-4.2901,-4.2901,-4.2901,-4.2901,-4.2901,-4.2901,-4.2901,-4.2901,-4.2901,-4.2975,-4.3031,-4.3123,-4.4489,-4.5621,-4.5828,-4.7201,-4.8207,-4.8265,-4.8267,-4.8287,0.0,-4.8267,0.0,0.0,0.0,-4.8306,-4.8306,-4.8306,-4.8306,-4.8306,-4.8306,-4.8306,-4.8306,-4.8306,-4.8306,-4.8306,-4.8306,-4.8306,-4.8306,-4.8306,-4.8306,-4.8306,-4.8306,0.0,-4.8306,-4.8306,-4.8306,-4.8306,-4.8306,-4.8306,-4.8306,-4.8306,-4.8306,-4.8306,0.0,0.0,0.0,0.0,0.0,0.0,-3.1511,-3.1511,-3.1653,-3.2163,-3.2219,-3.2219,-3.2219,-3.2788,-3.313,0.0,0.0,0.0,0.0,0.0,0.0,0.0,0.0,0.0,-3.5198,0.0,0.0,-3.5081,-3.493,0.0,0.0,0.0,0.0,0.0,-3.5486,-3.5475,-3.5532,-3.5554,-3.5577,0.0,0.0,-3.56,0.0,0.0,0.0,0.0,0.0,-3.5844,-3.6199,-3.662,-3.6978,-3.7321,-3.7792,-3.8994,-4.0293,-4.0438,-4.1542,-4.2665,-4.2865,-4.2901,-4.2901,-4.2901,-4.2901,-4.2901,-4.2901,-4.2901,-4.2901,-4.2901,-4.2901,-4.2901,-4.2901,-4.2994,-4.3067,-4.3086,-4.4451,-4.5602,-4.5735,-4.7105,-4.8128,0.0,-4.819,0.0,-4.8168,-4.819,0.0,0.0,0.0,0.0,-4.8306,-4.8306,-4.8306,-4.8306,-4.8306,-4.8306,-4.8306,-4.8306,-4.8306,-4.8306,-4.8306,-4.8306,-4.8306,-4.8306,-4.8306,-4.8306,-4.8306,0.0,0.0,-4.8306,-4.8306,-4.8306,-4.8306,-4.8306,-4.8306,-4.8306,-4.8306,-4.8306,0.0,0.0,0.0,0.0,0.0,0.0,-3.1511,-3.1511,-3.1539,-3.1597,-3.1597,-3.1597,-3.1597,-3.2544,-3.2997,0.0,0.0,0.0,0.0,0.0,0.0,0.0,0.0,0.0,0.0,0.0,0.0,-3.4906,-3.4883,0.0,0.0,0.0,0.0,0.0,0.0,-3.5314,-3.5337,-3.5452,0.0,0.0,0.0,0.0,0.0,0.0,0.0,0.0,0.0,-3.5622,-3.5734,-3.6199,-3.6367,-3.6492,-3.688,-3.8166,-3.9623,-4.0293,-4.1126,-4.1958,-4.2701,-4.2901,-4.2901,-4.2901,-4.2901,-4.2901,-4.2901,-4.2901,-4.2901,-4.2901,-4.2901,-4.2901,-4.2901,-4.2901,-4.2975,-4.3086,-4.4336,-4.5408,-4.5602,-4.6928,-4.7963,-4.7992,0.0,0.0,-4.8012,-4.8032,0.0,0.0,0.0,0.0,-4.8287,-4.8306,-4.8306,-4.8306,-4.8306,-4.8306,-4.8306,-4.8306,-4.8306,-4.8306,-4.8306,-4.8306,-4.8306,-4.8306,-4.8306,-4.8306,-4.8306,0.0,0.0,-4.8306,-4.8306,-4.8306,-4.8306,-4.8306,-4.8306,-4.8306,-4.8306,-4.8306,0.0,0.0,0.0,0.0,0.0,0.0,-3.1511,-3.1511,-3.1511,-3.1511,-3.1511,-3.1511,-3.1511,-3.1879,-3.2076,-3.1881,-3.2048,0.0,0.0,0.0,0.0,0.0,0.0,0.0,0.0,0.0,-3.4883,-3.4883,-3.4883,0.0,0.0,0.0,0.0,0.0,0.0,-3.5222,-3.5291,-3.536,0.0,0.0,0.0,0.0,0.0,0.0,0.0,0.0,0.0,0.0,-3.5667,-3.6135,-3.6284,-3.6471,-3.7321,-3.8031,-3.8785,-3.9818,-4.0888,-4.1886,-4.2665,-4.2901,-4.2901,-4.2901,-4.2901,-4.2825,-4.2537,-4.2478,-4.2398,-4.2118,-4.2056,-4.2139,-4.2438,-4.2478,-4.2577,-4.2937,-4.4297,-4.5368,-4.5506,-4.6904,-4.7902,-4.7963,-4.7988,0.0,0.0,0.0,0.0,0.0,0.0,0.0,-4.8111,-4.8229,-4.8306,-4.8306,-4.8306,-4.8306,-4.8306,-4.8306,-4.8306,-4.8306,-4.8306,-4.8306,-4.8306,-4.8306,-4.8306,-4.8306,-4.8306,0.0,0.0,-4.8306,-4.8306,-4.8306,-4.8306,-4.8306,-4.8306,-4.8306,-4.8306,-4.8306,0.0,0.0,0.0,0.0,0.0,-3.1511,-3.1511,-3.1511,-3.1511,-3.1511,-3.1511,-3.1511,-3.1511,-3.1511,-3.1511,-3.1511,-3.1511,0.0,0.0,0.0,0.0,0.0,0.0,0.0,0.0,0.0,-3.4811,-3.4667,-3.4811,-3.4739,0.0,0.0,0.0,0.0,0.0,0.0,0.0,0.0,0.0,0.0,0.0,0.0,0.0,0.0,0.0,0.0,0.0,0.0,0.0,0.0,0.0,-3.6616,-3.7642,-3.8042,-3.8412,-3.9811,-4.0824,-4.17,-4.2646,-4.2901,-4.2901,-4.2901,-4.2806,-4.2596,-4.2277,-4.2077,-4.1888,-4.1587,-4.1521,-4.1652,-4.2098,-4.2216,-4.2358,-4.2825,-4.4041,-4.5039,-4.5372,-4.6626,-4.7549,0.0,0.0,0.0,0.0,0.0,0.0,0.0,0.0,0.0,0.0,-4.8131,-4.8229,-4.8248,-4.8287,-4.8306,-4.8306,-4.8306,-4.8306,-4.8306,-4.8306,-4.8306,-4.8306,-4.8306,-4.8306,-4.8306,0.0,0.0,0.0,-4.8306,-4.8306,-4.8306,-4.8306,-4.8306,-4.8306,-4.8306,-4.8306,-4.8306,0.0,0.0,0.0,0.0,0.0,-3.1511,-3.1511,-3.1511,-3.1511,-3.1511,-3.1511,-3.1511,-3.1511,-3.1511,-3.1511,-3.1511,-3.1511,0.0,0.0,0.0,0.0,0.0,0.0,0.0,-3.4883,-3.4883,-3.4643,-3.4101,-3.4643,-3.4341,-3.3235,-3.3841,-3.4101,-3.4126,0.0,0.0,0.0,0.0,-3.5105,0.0,0.0,0.0,-3.56,0.0,0.0,0.0,0.0,0.0,0.0,0.0,0.0,0.0,0.0,-3.8184,-3.8819,-4.0491,-4.0982,-4.126,-4.257,-4.2901,-4.2901,-4.2901,-4.2537,-4.2216,-4.2216,-4.1846,-4.1521,-4.1521,-4.1521,-4.1652,-4.2098,-4.2216,-4.2358,-4.2825,-4.357,-4.4367,-4.52,-4.5997,-4.683,0.0,0.0,0.0,0.0,0.0,0.0,0.0,0.0,0.0,0.0,-4.8012,-4.8052,-4.8187,-4.8285,-4.8306,-4.8306,-4.8306,-4.8306,-4.8306,-4.8306,-4.8306,-4.8306,-4.8306,-4.8306,0.0,0.0,0.0,0.0,-4.8306,-4.8306,-4.8306,-4.8306,-4.8306,-4.8306,-4.8306,-4.8306,-4.8306,0.0,0.0,0.0,0.0,0.0,0.0,-3.1511,-3.1511,-3.1511,-3.1511,-3.1511,-3.1511,-3.1511,-3.1511,-3.1511,-3.1511,-3.1511,0.0,0.0,0.0,0.0,0.0,0.0,0.0,-3.4349,-3.4349,-3.4068,-3.3475,-3.3656,-3.3547,-3.3209,-3.3815,-3.4101,-3.4126,-3.4472,-3.4739,0.0,-3.4963,-3.5034,0.0,0.0,-3.5291,-3.5406,0.0,0.0,0.0,0.0,0.0,0.0,0.0,0.0,0.0,0.0,0.0,0.0,-4.0492,-4.0696,-4.0792,-4.2083,-4.218,-4.2015,-4.2358,-4.2056,-4.1652,-4.1298,-4.1116,-4.0943,-4.0611,-4.0538,-4.0683,-4.1139,-4.123,-4.1388,-4.1867,-4.303,-4.4098,0.0,0.0,0.0,-4.7621,-4.7699,0.0,0.0,0.0,0.0,0.0,0.0,0.0,0.0,-4.7866,-4.7968,-4.8052,-4.8187,-4.8246,-4.8246,-4.8267,-4.8306,-4.8306,-4.8306,-4.8306,-4.8306,-4.8306,0.0,0.0,0.0,0.0,0.0,-4.8306,-4.8306,-4.8306,-4.8306,-4.8306,-4.8306,-4.8306,-4.8306,-4.8306,0.0,0.0,0.0,0.0,0.0,0.0,-3.1511,-3.1511,-3.1511,-3.1511,-3.1511,-3.1511,-3.1511,-3.1511,-3.1511,-3.1511,-3.1511,0.0,0.0,0.0,0.0,0.0,0.0,0.0,-3.3764,-3.3764,-3.3475,-3.2895,-3.3077,-3.2971,-3.2571,-3.3193,-3.3455,-3.3455,-3.3815,-3.4193,0.0,-3.4811,-3.4987,-3.5105,-3.5105,-3.5175,-3.5291,0.0,0.0,0.0,0.0,0.0,0.0,0.0,0.0,0.0,0.0,0.0,0.0,0.0,-4.0386,-4.048,-4.1619,-4.1739,-4.1587,-4.1867,-4.1587,-4.1162,-4.0873,-4.0659,-4.0476,-4.0188,-4.0113,-4.0229,-4.0707,-4.0802,-4.0932,-4.1432,-4.2709,-4.3819,0.0,0.0,0.0,-4.7621,0.0,0.0,0.0,0.0,0.0,0.0,0.0,0.0,0.0,-4.7798,-4.7824,-4.7907,-4.8048,-4.8128,-4.8128,-4.8151,-4.8209,-4.8248,-4.8248,-4.8267,-4.8306,-4.8306,0.0,0.0,0.0,0.0,0.0,-4.8306,-4.8306,-4.8306,-4.8306,-4.8306,-4.8306,-4.8306,-4.8306,-4.8306,0.0,0.0,0.0,0.0,0.0,0.0,-3.1511,-3.1511,-3.1511,-3.1511,-3.1511,-3.1511,-3.1511,-3.1511,-3.1511,-3.1511,-3.1511,0.0,0.0,0.0,0.0,0.0,0.0,-3.3182,-3.313,-3.313,-3.2895,-3.2358,-3.2841,-3.2544,-3.1511,-3.2135,-3.2382,-3.2382,-3.2465,-3.3113,-3.4126,-3.4667,-3.4939,-3.4954,-3.5058,-3.5152,0.0,0.0,0.0,0.0,0.0,0.0,0.0,0.0,0.0,0.0,0.0,0.0,0.0,0.0,0.0,0.0,0.0,-4.141,-4.1432,-4.1455,-4.1094,-4.0754,-4.0754,-4.0427,0.0,-4.0113,-4.0113,-4.0229,-4.0659,-4.0754,-4.0896,-4.1343,-4.251,-4.3478,0.0,-4.535,0.0,0.0,0.0,0.0,0.0,0.0,0.0,0.0,0.0,0.0,0.0,-4.7699,-4.7699,-4.7699,-4.787,-4.7972,-4.7992,-4.7992,-4.8052,-4.8187,-4.8187,-4.8226,-4.8287,-4.8287,0.0,0.0,0.0,0.0,0.0,-4.8287,-4.8306,-4.8306,-4.8306,-4.8306,-4.8306,-4.8306,-4.8306,-4.8306,0.0,0.0,0.0,0.0,0.0,0.0,0.0,0.0,0.0,0.0,-3.1511,-3.1511,-3.1511,-3.1511,-3.1511,0.0,0.0,0.0,0.0,0.0,0.0,0.0,-3.2922,-3.3029,-3.2602,-3.2602,-3.2299,-3.171,-3.1853,-3.1768,-3.1511,-3.2135,-3.2382,-3.2437,-3.3298,-3.3873,-3.4126,-3.4667,-3.4415,-3.3732,-3.4586,-3.4715,0.0,0.0,0.0,0.0,-3.5128,-3.5713,0.0,0.0,0.0,0.0,0.0,0.0,0.0,0.0,-4.0113,-4.0163,-4.0377,0.0,-4.0514,-4.0896,-4.0611,-4.0254,0.0,-4.0154,-4.0113,-4.0113,-4.0113,-4.0104,-4.0229,-4.0254,-4.0303,-4.0427,-4.1954,-4.3204,-4.3256,0.0,0.0,0.0,0.0,0.0,0.0,0.0,0.0,0.0,0.0,0.0,0.0,-4.7699,-4.7699,-4.7699,-4.7741,-4.7804,-4.7943,-4.7951,-4.8012,-4.8032,-4.8032,-4.8128,-4.8226,-4.8226,0.0,0.0,0.0,0.0,-4.8226,-4.8267,-4.8306,-4.8306,-4.8306,-4.8306,-4.8306,-4.8306,-4.8306,-4.8306,0.0,0.0,0.0,0.0,0.0,0.0,0.0,0.0,0.0,0.0,-3.1511,-3.1511,-3.1511,-3.1511,-3.1511,0.0,0.0,0.0,0.0,0.0,0.0,-3.1994,-3.2272,-3.2299,-3.1994,-3.1994,-3.1824,-3.1511,-3.1511,-3.1511,-3.1511,-3.1824,-3.1994,-3.2023,-3.2926,-3.3324,-3.3351,-3.3885,-3.3758,-3.3261,-3.4168,0.0,0.0,0.0,0.0,0.0,-3.5352,-3.6071,0.0,-3.7735,-3.8622,-3.948,0.0,0.0,0.0,0.0,-4.0113,-4.0113,-4.0113,-4.0113,-4.0188,-4.0427,-4.0279,-4.0113,-4.0113,-4.0113,-4.0113,-4.0113,-4.0113,-4.0113,-4.0113,-4.0113,-4.0214,-4.0527,-4.2021,0.0,0.0,0.0,0.0,0.0,0.0,0.0,0.0,0.0,0.0,0.0,0.0,0.0,0.0,-4.7699,-4.7699,-4.7699,-4.7699,-4.772,-4.7819,-4.7845,-4.7907,-4.7947,-4.7947,-4.8008,-4.8128,-4.8128,-4.8128,0.0,0.0,0.0,-4.8207,-4.8246,-4.8267,-4.8306,-4.8306,-4.8306,-4.8306,-4.8306,-4.8306,-4.8306,0.0,0.0,0.0,0.0,0.0,0.0,0.0,0.0,0.0,0.0,0.0,0.0,0.0,0.0,0.0,0.0,0.0,0.0,0.0,0.0,-3.1511,-3.1511,-3.1511,-3.1511,-3.1511,-3.1511,-3.1511,-3.1511,-3.1511,-3.1511,-3.1511,-3.1511,-3.1568,-3.1683,-3.216,-3.2382,-3.2437,-3.2975,-3.3103,-3.2997,-3.3688,0.0,0.0,0.0,0.0,0.0,0.0,0.0,0.0,-3.8194,-3.9075,-3.9884,-3.9884,0.0,0.0,0.0,0.0,0.0,-4.0113,-4.0113,-4.0113,-4.0113,-4.0113,-4.0113,-4.0113,-4.0113,-4.0113,-4.0113,-4.0113,-4.0113,-4.0113,-4.0113,0.0,0.0,0.0,0.0,0.0,0.0,0.0,0.0,0.0,0.0,0.0,0.0,0.0,0.0,0.0,0.0,0.0,-4.7515,-4.7593,-4.7593,-4.7657,-4.7699,-4.7699,-4.7699,-4.7777,-4.7861,-4.7861,-4.7886,-4.7972,-4.7972,-4.7972,-4.7972,0.0,0.0,-4.8148,-4.8168,-4.8226,-4.8287,-4.8287,-4.8287,-4.8267,-4.8229,-4.819,-4.819,0.0,0.0,0.0,0.0,0.0,0.0,0.0,0.0,0.0,0.0,0.0,0.0,0.0,0.0,0.0,0.0,0.0,0.0,0.0,-3.1511,-3.1511,-3.1511,-3.1511,-3.1511,-3.1511,-3.1511,-3.1511,-3.1511,-3.1511,-3.1511,-3.1511,-3.1511,-3.1768,-3.2274,-3.2355,-3.2382,-3.2437,-3.2975,-3.2652,-3.1853,-3.2922,0.0,0.0,0.0,0.0,0.0,0.0,0.0,0.0,-3.8335,-3.9075,-3.9884,-3.9884,0.0,0.0,0.0,0.0,0.0,-4.0113,-4.0113,-4.0113,-4.0113,-4.0113,-4.0113,-4.0113,-4.0113,-4.0113,-4.0113,-4.0113,-4.0113,-4.0113,-4.0113,-4.035,0.0,0.0,-4.4015,0.0,0.0,0.0,0.0,0.0,0.0,0.0,0.0,0.0,0.0,0.0,0.0,0.0,-4.6776,-4.7039,-4.7039,-4.745,-4.7699,-4.7699,-4.7699,-4.7699,-4.772,-4.772,-4.7819,-4.7922,-4.7922,-4.7922,-4.7922,0.0,-4.7988,-4.7943,-4.8008,-4.8092,-4.8207,-4.8207,-4.8207,-4.8187,-4.7834,-4.7669,-4.7621,0.0,0.0,0.0,0.0,0.0,0.0,0.0,0.0,0.0,0.0,0.0,0.0,0.0,0.0,0.0,0.0,0.0,0.0,-3.1511,-3.1511,-3.1511,-3.1511,-3.1511,-3.1511,-3.1511,-3.1511,-3.1511,-3.1511,-3.1511,-3.1511,-3.1511,-3.1869,-3.2194,-3.2455,-3.2819,-3.297,-3.2999,-3.3259,-3.3058,-3.2646,0.0,0.0,0.0,0.0,0.0,0.0,0.0,0.0,0.0,0.0,-3.9228,-3.9711,-3.9755,0.0,0.0,0.0,0.0,0.0,-4.0087,-4.0113,-4.0113,-4.0113,-4.0113,-4.0113,-4.0113,-4.0113,-4.0113,-4.0113,-4.0113,-4.0113,-4.0113,0.0,-4.1068,-4.2219,0.0,0.0,0.0,0.0,0.0,0.0,0.0,0.0,0.0,0.0,0.0,0.0,0.0,0.0,0.0,0.0,-4.6495,-4.6495,-4.6707,-4.6822,-4.6822,-4.7129,-4.7407,-4.7699,-4.7699,-4.772,-4.7798,-4.7472,-4.7363,-4.7363,0.0,-4.7004,-4.7062,-4.7371,-4.7585,-4.7674,-4.7992,-4.7895,-4.7611,-4.727,-4.7093,-4.7084,0.0,0.0,0.0,0.0,0.0,0.0,0.0,0.0,0.0,0.0,0.0,0.0,0.0,0.0,0.0,0.0,0.0,-3.1511,-3.1511,-3.1511,-3.157,-3.172,-3.172,-3.166,-3.1511,-3.1511,-3.157,-3.172,-3.172,-3.1809,-3.1959,-3.2467,-3.2736,-3.2766,-3.3275,-3.3484,-3.3484,-3.3484,-3.3484,-3.3546,0.0,0.0,0.0,0.0,0.0,0.0,0.0,0.0,0.0,0.0,0.0,0.0,0.0,0.0,0.0,-3.9961,-3.9935,-3.9884,-4.0011,-4.0062,-4.0062,-4.0087,-4.0113,-4.0113,-4.0113,-4.0113,-4.0113,-4.0113,-4.0113,-4.0146,-4.035,-4.1102,0.0,-4.3206,-4.4079,0.0,0.0,0.0,0.0,0.0,0.0,0.0,0.0,0.0,0.0,0.0,0.0,0.0,0.0,0.0,-4.59,-4.59,-4.6024,-4.6098,-4.6098,-4.6519,-4.6994,-4.7493,-4.7636,-4.7699,-4.7678,-4.7129,-4.689,-4.6845,-4.6317,-4.6147,-4.6269,-4.6707,-4.69,-4.7021,-4.7442,-4.7277,-4.6819,-4.6531,-4.6472,-4.6543,0.0,0.0,0.0,0.0,0.0,0.0,0.0,0.0,0.0,0.0,0.0,0.0,0.0,0.0,0.0,0.0,-3.1511,-3.1511,-3.1511,-3.1511,-3.178,-3.2378,-3.2437,-3.2138,-3.1511,-3.1511,-3.1809,-3.2437,-3.2437,-3.2766,-3.3365,-3.3395,-3.3425,-3.3425,-3.3484,-3.3484,-3.3484,-3.3484,-3.3484,-3.3484,-3.3546,0.0,0.0,0.0,0.0,0.0,0.0,0.0,0.0,0.0,0.0,0.0,0.0,0.0,-3.9703,-3.9729,-3.9729,-3.9755,-3.9858,-3.991,-3.9935,-4.0087,-4.0113,-4.0113,-4.0113,-4.0113,-4.0113,-4.0113,-4.0113,-4.0316,-4.1001,-4.2286,-4.3274,-4.3375,0.0,0.0,0.0,0.0,0.0,0.0,0.0,0.0,0.0,0.0,0.0,0.0,0.0,0.0,0.0,0.0,0.0,-4.5338,-4.5825,-4.6098,-4.6098,-4.6123,-4.6448,-4.6972,-4.745,-4.7699,-4.7678,-4.7129,-4.689,-4.6845,-4.6317,-4.6098,-4.6098,-4.6147,-4.6244,-4.6365,-4.6389,-4.6172,-4.58,-4.5717,-4.5784,-4.595,0.0,0.0,0.0,0.0,0.0,0.0,0.0,0.0,0.0,0.0,0.0,-3.166,-3.2079,0.0,0.0,0.0,-3.2736,-3.2736,-3.2736,-3.2736,-3.2856,-3.3125,-3.3125,-3.3006,-3.2766,-3.2736,-3.2886,-3.3125,-3.3125,-3.3245,-3.3514,-3.3903,-3.4113,-3.4144,-3.4562,-3.4741,-3.4741,-3.4741,-3.4741,-3.4741,-3.4741,-3.4741,0.0,0.0,0.0,0.0,0.0,0.0,0.0,0.0,-3.8788,-3.9395,-3.9475,-3.9501,-3.9468,-3.9651,-3.9625,-3.9599,-3.9833,-3.9884,-3.991,-4.0062,-4.0113,-4.0113,-4.0113,-4.0113,-4.0248,-4.0696,-4.0764,-4.1136,-4.2354,0.0,-4.3572,-4.4045,0.0,0.0,0.0,0.0,0.0,0.0,0.0,0.0,0.0,0.0,0.0,0.0,0.0,0.0,0.0,0.0,0.0,-4.4879,-4.5035,-4.5169,-4.5169,-4.5451,-4.5699,-4.59,-4.6472,-4.6707,-4.6683,-4.6147,-4.59,-4.5875,-4.5372,-4.5169,-4.5196,-4.5503,-4.5622,-4.5673,-4.5673,-4.5571,-4.5425,-4.5203,-4.515,-4.5249,0.0,0.0,0.0,0.0,0.0,0.0,0.0,0.0,-3.2138,0.0,0.0,0.0,0.0,-3.2826,0.0,0.0,-3.3484,-3.3484,-3.3484,-3.3484,-3.3574,-3.3814,-3.3814,-3.3903,-3.4113,-3.4143,-3.4023,-3.3814,-3.4023,-3.4143,-3.4143,-3.4592,-3.4833,-3.4863,-3.531,-3.5519,-3.5519,-3.5519,-3.5519,-3.5519,-3.5519,-3.5519,0.0,0.0,0.0,0.0,0.0,0.0,0.0,0.0,-3.859,-3.9067,-3.9335,-3.9228,-3.9061,-3.9468,-3.9554,-3.9554,-3.9755,-3.9858,-3.991,-4.0062,-4.0113,-4.018,-4.0392,-4.0451,-4.0595,-4.1102,-4.1576,-4.2219,-4.3206,0.0,0.0,0.0,0.0,0.0,0.0,0.0,0.0,0.0,0.0,0.0,0.0,0.0,0.0,0.0,0.0,0.0,0.0,0.0,0.0,0.0,-4.4615,-4.4615,-4.4615,-4.4934,-4.5089,-4.5089,-4.5451,-4.581,-4.6074,-4.5545,-4.532,-4.5294,-4.4797,-4.4615,-4.4609,-4.4961,-4.5089,-4.5089,-4.5089,-4.5089,-4.5062,-4.4831,-4.4748,-4.4831,0.0,0.0,0.0,0.0,0.0,0.0,0.0,0.0,-3.3484,-3.3484,-3.3484,0.0,0.0,0.0,0.0,0.0,-3.3514,-3.3514,-3.3514,-3.3514,-3.3814,-3.4503,-3.4503,-3.4801,-3.5489,-3.5519,-3.516,-3.4503,-3.516,-3.5519,-3.5519,-3.5519,-3.5519,-3.5519,-3.5519,-3.5519,-3.5519,-3.5519,-3.5519,-3.5519,-3.5519,-3.5519,-3.5519,0.0,0.0,0.0,0.0,0.0,0.0,0.0,-3.8278,-3.8423,-3.9094,-3.8843,-3.8451,-3.9121,-3.9395,-3.9528,-3.9651,-3.9781,-3.991,-4.0062,-4.0113,-4.0316,-4.1035,-4.1204,-4.1204,-4.1238,-4.2388,-4.3409,-4.3409,-4.4045,0.0,0.0,0.0,0.0,0.0,0.0,0.0,0.0,0.0,0.0,0.0,0.0,0.0,0.0,0.0,0.0,0.0,0.0,0.0,0.0,-4.4615,-4.4615,-4.4615,-4.4615,-4.4615,-4.4615,-4.4615,-4.5115,-4.6049,-4.552,-4.5294,-4.5267,-4.4797,-4.4615,-4.4615,-4.4615,-4.4615,-4.4615,-4.4615,-4.4615,-4.4615,-4.4615,-4.4665,-4.4803,0.0,0.0,0.0,0.0,0.0,0.0,0.0,0.0,-3.3484,-3.3484,-3.3484,0.0,0.0,0.0,0.0,0.0,0.0,0.0,-3.4921,-3.4921,-3.5011,-3.519,-3.519,-3.531,-3.5519,-3.5519,-3.54,-3.519,-3.54,-3.5519,-3.5519,-3.5519,-3.5519,-3.5519,-3.5519,-3.5519,-3.5519,-3.5519,-3.5519,-3.5519,-3.5519,-3.5519,-3.5519,0.0,0.0,0.0,0.0,0.0,0.0,0.0,0.0,0.0,-3.8535,-3.8788,-3.9034,-3.9228,-3.9342,-3.9395,-3.9528,-3.9651,-3.9781,-3.9807,-3.9884,-4.0163,-4.0905,-4.1126,-4.1508,-4.253,-4.3538,-4.4215,-4.4215,-4.4445,0.0,0.0,0.0,0.0,0.0,0.0,0.0,0.0,0.0,0.0,0.0,0.0,0.0,0.0,0.0,0.0,0.0,0.0,0.0,0.0,-4.4615,-4.4615,-4.4615,-4.4615,-4.4615,-4.4615,-4.4615,-4.4748,-4.5042,-4.4879,-4.4797,-4.4797,-4.4637,-4.4615,-4.4615,-4.4615,-4.4615,-4.4615,-4.4615,-4.4615,-4.4615,-4.4615,-4.4643,-4.4665,0.0,0.0,0.0,0.0,0.0,0.0,-3.4292,-3.4292,-3.4292,-3.4292,-3.4292,-3.4442,0.0,0.0,0.0,-3.5459,-3.5519,0.0,-3.5519,-3.5519,-3.5519,-3.5519,-3.5519,-3.5519,-3.5519,-3.5519,-3.5519,-3.5519,-3.5519,-3.5519,-3.5519,-3.5519,-3.5519,-3.5519,-3.5519,-3.5519,-3.5519,-3.5519,-3.5519,-3.5519,-3.5519,-3.5519,-3.5519,0.0,0.0,0.0,0.0,0.0,0.0,0.0,0.0,0.0,-3.7851,-3.8226,-3.8595,-3.8843,-3.9175,-3.9441,-3.9501,-3.9659,-3.9755,-3.9703,-3.999,-4.0512,-4.1634,-4.1977,-4.2422,-4.3639,-4.4248,-4.4615,-4.4615,-4.4615,0.0,0.0,0.0,0.0,0.0,0.0,0.0,0.0,0.0,0.0,0.0,0.0,0.0,0.0,0.0,0.0,0.0,0.0,0.0,0.0,-4.4615,-4.4615,-4.4615,-4.4615,-4.4615,-4.4615,-4.4615,-4.4615,-4.4615,-4.4615,-4.4615,-4.4615,-4.4615,-4.4615,-4.4615,-4.4615,-4.4615,-4.4615,-4.4615,-4.4615,-4.4615,-4.4615,-4.4615,-4.4615,0.0,0.0,-3.5519,-3.5519,0.0,0.0,-3.5519,-3.5519,-3.5519,-3.5519,-3.5519,-3.5519,0.0,0.0,0.0,-3.5519,-3.5519,-3.5519,-3.5519,-3.5519,-3.5519,-3.5519,-3.5519,-3.5519,-3.5519,-3.5519,-3.5519,-3.5519,-3.5519,-3.5519,-3.5519,-3.5519,-3.5519,-3.5519,-3.5519,-3.5519,-3.5519,-3.5519,-3.5519,-3.5519,-3.5519,-3.5519,-3.5519,-3.5519,0.0,0.0,0.0,0.0,0.0,0.0,0.0,0.0,-3.7207,-3.7413,-3.7589,-3.8193,-3.8974,-3.9625,-3.9528,-3.9685,-3.9807,-3.9703,-4.028,-4.1312,-4.2824,-4.3333,-4.368,-4.4479,0.0,-4.4615,-4.4615,-4.4615,0.0,0.0,0.0,0.0,0.0,0.0,0.0,0.0,0.0,0.0,0.0,0.0,0.0,0.0,0.0,0.0,0.0,0.0,0.0,-4.4615,-4.4615,-4.4615,-4.4615,-4.4615,-4.4615,-4.4615,-4.4615,-4.4615,-4.4615,-4.4615,-4.4615,-4.4615,-4.4615,-4.4615,-4.4615,-4.4615,-4.4615,-4.4615,-4.4615,-4.4615,-4.4615,-4.4615,-4.4615,-4.4615,0.0,0.0,-3.5519,-3.5519,0.0,0.0,-3.5519,-3.5519,-3.5519,-3.5519,-3.5519,-3.5519,-3.5519,-3.5519,0.0,-3.5519,-3.5519,-3.5519,-3.5519,-3.5519,-3.5519,-3.5519,-3.5519,-3.5519,-3.5519,-3.5519,-3.5519,-3.5519,-3.5519,-3.5519,-3.5519,-3.5519,-3.5519,-3.5519,-3.5519,-3.5519,-3.5519,-3.5519,-3.5519,-3.5519,-3.5519,-3.5519,-3.5519,-3.5519,-3.5519,0.0,0.0,0.0,0.0,0.0,0.0,0.0,-3.7207,-3.7735,-3.8222,-3.8898,-3.9228,-3.9362,-3.9369,-3.9475,-3.9554,-3.9415,-4.044,-4.1777,-4.2819,-4.3597,-4.421,-4.4553,-4.4615,-4.4615,-4.4615,0.0,0.0,0.0,0.0,0.0,0.0,0.0,0.0,0.0,0.0,0.0,0.0,0.0,0.0,0.0,0.0,0.0,0.0,0.0,0.0,-4.4615,-4.4615,-4.4615,-4.4615,-4.4615,-4.4615,0.0,-4.4615,-4.4615,-4.4615,-4.4615,-4.4615,-4.4615,-4.4615,-4.4615,-4.4615,-4.4615,-4.4615,-4.4615,-4.4615,-4.4615,-4.4615,-4.4615,-4.4615,-4.4615,0.0,0.0,0.0,0.0,0.0,0.0,0.0,0.0,-3.513,-3.5459,-3.5519,-3.5519,-3.5519,-3.5519,0.0,0.0,-3.5519,-3.5519,-3.5519,-3.5519,-3.5519,-3.5519,-3.5519,-3.5519,-3.5519,-3.5519,-3.5519,-3.5519,-3.5519,-3.5519,-3.5519,-3.5519,-3.5669,-3.5968,-3.5968,-3.6148,-3.6417,-3.6417,-3.6417,-3.6417,-3.6417,-3.6417,-3.6417,-3.6417,-3.6237,-3.5968,-3.5968,0.0,0.0,0.0,0.0,0.0,0.0,0.0,-3.7442,-3.7825,-3.8169,-3.8535,-3.8761,-3.8925,-3.9226,-4.0089,-4.1017,-4.1994,-4.318,-4.3853,-4.4321,-4.444,-4.4525,-4.4615,0.0,0.0,0.0,0.0,0.0,0.0,0.0,0.0,0.0,0.0,0.0,0.0,0.0,0.0,0.0,0.0,0.0,0.0,0.0,-4.4615,-4.4615,-4.4615,-4.4615,-4.4615,-4.4615,-4.4615,-4.4615,-4.4615,-4.4615,-4.4615,-4.4615,-4.4615,-4.4615,-4.4615,-4.4615,-4.4615,-4.4615,-4.4615,-4.4615,-4.4615,-4.4615,-4.4615,-4.4615,-4.4615,-4.4615,-4.4615,0.0,0.0,0.0,0.0,0.0,0.0,0.0,0.0,0.0,-3.5429,-3.5519,-3.5519,-3.5519,-3.5519,-3.5519,0.0,0.0,0.0,-3.5519,-3.5519,-3.5519,-3.5519,-3.5519,-3.5519,-3.5519,-3.5519,-3.5519,-3.5519,-3.5609,-3.5669,-3.5669,-3.5669,-3.6028,-3.6656,-3.6656,-3.6926,-3.7404,-3.7404,-3.7404,-3.7404,-3.7404,-3.7404,-3.7404,-3.7404,-3.7075,-3.6656,-3.6656,-3.6237,-3.5669,-3.5669,0.0,0.0,0.0,0.0,-3.6415,-3.6538,-3.7025,-3.7677,-3.8165,-3.8479,-3.9056,-4.0795,-4.1455,-4.2004,-4.3398,-4.3968,-4.4236,-4.4293,-4.4468,0.0,0.0,0.0,0.0,0.0,0.0,0.0,0.0,0.0,0.0,0.0,0.0,0.0,0.0,0.0,0.0,0.0,0.0,0.0,-4.4615,-4.4615,-4.4615,-4.4615,-4.4615,-4.4615,-4.4615,-4.4615,-4.4615,-4.4615,-4.4615,-4.4615,-4.4615,-4.4615,-4.4615,-4.4615,-4.4615,-4.4615,-4.4615,-4.4615,-4.4615,-4.4615,-4.4615,-4.4615,-4.4615,-4.4615,-4.4615,-4.4615,0.0,0.0,0.0,0.0,0.0,0.0,0.0,0.0,0.0,0.0,-3.5519,-3.5519,-3.5519,-3.5519,-3.5519,-3.5519,-3.5519,-3.5519,-3.5519,0.0,0.0,-3.5519,-3.5519,-3.5519,-3.5519,-3.5519,-3.5519,-3.5519,-3.6088,-3.6357,-3.6357,-3.6357,-3.6686,-3.7285,-3.7285,-3.7315,-3.7404,-3.7404,-3.7404,-3.7404,-3.7404,-3.7404,-3.7404,-3.7404,-3.7375,-3.7285,-3.7285,-3.6896,-3.6357,-3.6357,-3.5968,0.0,0.0,0.0,-3.6508,-3.7117,-3.7324,-3.7531,-3.8137,-3.8761,-3.94,-4.0315,-4.1006,-4.1697,0.0,0.0,-4.401,0.0,0.0,0.0,0.0,0.0,0.0,0.0,0.0,0.0,0.0,0.0,0.0,0.0,0.0,0.0,0.0,0.0,0.0,0.0,0.0,0.0,-4.4615,-4.4615,-4.4615,-4.4615,-4.4615,-4.4615,-4.4615,-4.4615,-4.4615,-4.4615,-4.4615,-4.4615,-4.4615,-4.4615,-4.4615,-4.4615,-4.4615,-4.4615,-4.4615,-4.4615,-4.4615,-4.4615,-4.4615,-4.4615,-4.4615,-4.4615,-4.4615,-4.4615,0.0,0.0,0.0,0.0,0.0,0.0,0.0,0.0,0.0,0.0,0.0,-3.5519,-3.5519,-3.5519,-3.5519,-3.5519,-3.5519,-3.5519,-3.5519,-3.5519,-3.5519,-3.5519,-3.5848,-3.6058,-3.6058,-3.6387,-3.6567,-3.6567,-3.6866,-3.7195,-3.7554,-3.7554,-3.7704,-3.7973,-3.7973,-3.8182,-3.8542,-3.8542,-3.8542,-3.8542,-3.8542,-3.8542,-3.8542,-3.8542,-3.8302,-3.7973,-3.7973,-3.7554,-3.7015,-3.7015,-3.6567,-3.6124,-3.6388,0.0,0.0,0.0,-3.6352,-3.6569,-3.7531,-3.8282,-3.9007,-4.0128,-4.0912,-4.1607,-4.2456,-4.3307,-4.3927,-4.4039,0.0,0.0,0.0,0.0,0.0,0.0,0.0,0.0,0.0,0.0,0.0,0.0,0.0,0.0,0.0,0.0,0.0,0.0,-4.4615,-4.4615,-4.4615,-4.4615,-4.4615,-4.4615,-4.4615,-4.4615,-4.4615,-4.4615,-4.4615,-4.4615,-4.4615,-4.4615,-4.4615,-4.4615,-4.4615,-4.4615,-4.4615,-4.4615,-4.4615,-4.4615,-4.4615,-4.4615,-4.4615,-4.4615,-4.4615,-4.4615,-4.4615,-4.4615,0.0,0.0,0.0,0.0,0.0,0.0,0.0,0.0,0.0,0.0,0.0,-3.5998,-3.5998,0.0,0.0,0.0,-3.5998,-3.5998,-3.5998,-3.5998,-3.5998,-3.5998,-3.6447,-3.6716,-3.6716,-3.7165,-3.7404,-3.7404,-3.7584,-3.7913,-3.8392,-3.8571,-3.8661,-3.8661,-3.8661,-3.8931,-3.9373,-3.9373,-3.9373,-3.9373,-3.9373,-3.9373,-3.9373,-3.9373,-3.911,-3.8661,-3.8661,-3.8212,-3.7644,-3.7644,-3.7255,-3.6716,-3.6716,-3.6267,0.0,0.0,0.0,-3.5941,-3.6906,-3.7589,-3.8351,-3.9588,-4.0273,-4.0939,0.0,0.0,-4.3429,0.0,0.0,0.0,0.0,0.0,0.0,0.0,0.0,0.0,0.0,0.0,0.0,0.0,0.0,0.0,0.0,0.0,0.0,0.0,-4.4615,-4.4615,-4.4615,-4.4615,-4.4615,-4.4615,-4.4615,-4.4615,-4.4615,-4.4615,-4.4615,-4.4615,-4.4615,-4.4615,-4.4615,-4.4615,-4.4615,-4.4615,-4.4615,-4.4615,-4.4615,-4.4615,-4.4615,-4.4615,-4.4615,-4.4615,-4.4615,-4.4615,-4.4615,-4.4615,0.0,0.0,0.0,0.0,0.0,0.0,0.0,0.0,0.0,0.0,0.0,-3.7315,-3.7315,-3.7315,-3.7315,-3.7315,-3.7315,-3.7315,-3.7315,-3.7315,-3.7315,-3.7315,-3.7345,0.0,-3.7375,-3.7404,-3.7404,-3.7404,-3.8033,-3.8362,-3.8392,-3.905,-3.9379,-3.9379,-3.9379,-3.9379,-3.9373,-3.9373,-3.9373,-3.9373,-3.9373,-3.9373,-3.9373,-3.9373,-3.9409,-3.9379,-3.9379,-3.8931,-3.8332,-3.8332,-3.7913,-3.7375,-3.7375,-3.6926,-3.6447,0.0,0.0,0.0,-3.6415,-3.6966,-3.7589,-3.8258,-3.8547,-3.9134,0.0,0.0,0.0,0.0,0.0,0.0,0.0,0.0,0.0,0.0,0.0,0.0,0.0,0.0,0.0,0.0,0.0,0.0,0.0,0.0,0.0,0.0,-4.4615,-4.4615,-4.4615,-4.4615,-4.4615,-4.4615,-4.4615,-4.4615,-4.4615,-4.4615,-4.4615,-4.4615,-4.4615,-4.4615,-4.4615,-4.4615,-4.4615,-4.4615,-4.4615,-4.4615,-4.4615,-4.4615,-4.4615,-4.4615,-4.4615,-4.4615,-4.4615,-4.4615,-4.4615,-4.4615,0.0,0.0,0.0,0.0,0.0,0.0,0.0,0.0,0.0,0.0,0.0,0.0,0.0,-3.7404,-3.7404,-3.7404,-3.7404,-3.7404,-3.7404,-3.7404,-3.7404,-3.7404,-3.7823,-3.8033,-3.8033,-3.8482,-3.8691,-3.8691,-3.8931,-3.905,-3.905,-3.932,-3.9373,-3.9373,-3.9373,-3.9373,-3.9373,-3.9373,-3.9373,-3.9373,-3.9373,-3.9373,-3.9373,-3.9373,-3.9373,-3.9373,-3.9373,-3.926,-3.905,-3.905,-3.8601,-3.8033,-3.8033,-3.7614,-3.7075,-3.7075,-3.6793,-3.6546,-3.6933,-3.6909,-3.6936,-3.756,-3.81,-3.8769,-3.9865,-4.0908,0.0,0.0,0.0,0.0,0.0,0.0,0.0,0.0,0.0,0.0,0.0,0.0,0.0,0.0,0.0,0.0,0.0,0.0,0.0,0.0,0.0,-4.4355,-4.4587,-4.4468,-4.4468,-4.4615,-4.4615,-4.4615,-4.4615,-4.4615,-4.4615,-4.4615,-4.4615,-4.4615,-4.4615,-4.4615,-4.4615,-4.4615,-4.4615,-4.4615,-4.4615,-4.4615,-4.4615,-4.4615,-4.4615,-4.4615,-4.4615,-4.4615,-4.4615,-4.4615,0.0,0.0,0.0,-3.8093,0.0,-3.8093,-3.8093,-3.8093,-3.8093,-3.8093,0.0,0.0,0.0,0.0,-3.8093,-3.8093,-3.8093,-3.8093,-3.8093,-3.8093,-3.8093,-3.8093,-3.8512,-3.8751,-3.8751,-3.896,-3.92,-3.9373,-3.92,-3.92,-3.9373,-3.9373,-3.9373,-3.9373,-3.9373,-3.9373,-3.9373,-3.9373,-3.9373,-3.9373,-3.9373,-3.9373,-3.9373,-3.9373,-3.9373,-3.9373,-3.9373,-3.9373,-3.9373,-3.9373,-3.911,-3.8751,-3.8751,-3.8272,-3.7704,-3.7464,-3.7135,-3.6847,-3.7038,-3.674,-3.6534,-3.6968,-3.7279,-3.7779,-3.8841,0.0,0.0,0.0,0.0,0.0,0.0,0.0,0.0,0.0,0.0,0.0,0.0,0.0,0.0,0.0,0.0,0.0,0.0,0.0,0.0,0.0,0.0,0.0,-4.4412,-4.4298,-4.4327,-4.4497,-4.4587,-4.4615,-4.4615,-4.4615,-4.4615,-4.4615,-4.4615,-4.4615,-4.4615,-4.4615,-4.4615,-4.4615,-4.4615,-4.4615,-4.4615,-4.4615,-4.4615,-4.4615,-4.4615,-4.4615,-4.4615,-4.4615,-4.4615,-4.4615,-3.9373,-3.9373,-3.9373,-3.9373,-3.9373,-3.9373,-3.9373,-3.9373,-3.9373,-3.9373,0.0,0.0,0.0,0.0,0.0,-3.9373,-3.9373,-3.9373,-3.9373,-3.9373,-3.9373,-3.9373,-3.9373,-3.9373,-3.9373,-3.8751,-3.8751,-3.9373,-3.8751,-3.8751,-3.9373,-3.9373,-3.9373,-3.9373,-3.9373,-3.9373,-3.9373,-3.9373,-3.9373,-3.9373,-3.9373,-3.9373,-3.9373,-3.9373,-3.9373,-3.9373,-3.9373,-3.9373,-3.9373,-3.9373,0.0,-3.9373,-3.9373,-3.896,-3.8302,-3.7644,-3.7464,-3.7315,0.0,0.0,0.0,-3.6411,-3.5972,0.0,-3.7995,0.0,-3.8829,0.0,0.0,0.0,0.0,0.0,0.0,0.0,0.0,0.0,0.0,0.0,0.0,0.0,0.0,0.0,0.0,0.0,0.0,0.0,-4.4097,-4.4097,-4.4097,-4.4097,-4.4155,-4.4293,-4.4468,-4.4615,-4.4615,-4.4615,-4.4615,-4.4615,-4.4615,-4.4615,-4.4615,-4.4615,-4.4615,-4.4615,-4.4615,-4.4615,-4.4615,-4.4615,-4.4615,-4.4615,-4.4615,-4.4615,-4.4615,-4.4615,-4.4615,-4.4615,-3.9373,-3.9373,-3.9373,-3.9373,-3.9373,-3.9373,-3.9373,-3.9373,-3.9373,0.0,0.0,0.0,-3.9373,-3.9373,-3.9373,-3.9373,-3.9373,-3.9373,-3.9373,-3.9373,-3.9373,-3.9373,-3.9373,-3.9373,-3.9373,-3.923,-3.923,-3.9373,-3.923,-3.923,-3.9373,-3.9373,-3.9373,-3.9373,-3.9373,-3.9373,-3.9373,-3.9373,-3.9373,-3.9373,-3.9373,-3.9373,-3.9373,-3.9373,-3.9373,-3.9373,-3.9373,-3.9373,-3.9373,0.0,-3.9373,-3.9373,-3.9373,-3.9254,-3.911,-3.8901,-3.8512,-3.8093,-3.7913,0.0,0.0,0.0,0.0,0.0,-3.6945,-3.7424,-3.8175,0.0,0.0,0.0,0.0,0.0,0.0,0.0,0.0,0.0,0.0,0.0,0.0,0.0,0.0,0.0,0.0,0.0,0.0,0.0,-4.3805,-4.3835,-4.4097,-4.4097,-4.4155,-4.4293,-4.4321,-4.444,-4.4615,-4.4615,-4.4615,-4.4615,-4.4615,-4.4615,-4.4615,-4.4615,-4.4615,-4.4615,-4.4615,-4.4615,-4.4615,-4.4615,-4.4615,-4.4615,-4.4615,-4.4615,-4.4615,-4.4615,-4.4615,-4.4615,-3.9373,-3.9373,-3.9373,-3.9373,-3.9373,-3.9373,-3.9373,-3.9373,-3.9373,0.0,0.0,0.0,-3.9373,-3.9373,-3.9373,-3.9373,-3.9373,-3.9373,-3.9373,-3.9373,-3.9373,-3.9373,-3.9373,-3.9373,-3.9373,-3.914,-3.914,-3.9373,-3.914,-3.914,-3.9373,-3.9373,-3.9373,-3.9373,-3.9373,-3.9373,-3.9373,-3.9373,-3.9373,-3.9373,-3.9373,-3.9373,-3.9373,-3.9373,-3.9373,-3.9373,-3.9373,0.0,-3.9373,-3.9373,-3.9373,0.0,-3.9373,-3.9373,-3.9373,-3.9373,-3.914,-3.8751,-3.8482,-3.8093,-3.7674,-3.7015,0.0,0.0,-3.6537,-3.7023,-3.7684,0.0,0.0,0.0,0.0,0.0,0.0,0.0,0.0,0.0,0.0,0.0,0.0,0.0,0.0,0.0,0.0,-4.3598,-4.3658,-4.378,-4.3658,-4.3687,-4.3894,-4.3952,-4.4039,-4.4126,-4.427,-4.4384,-4.4468,-4.4559,-4.4615,-4.4615,-4.4615,-4.4615,-4.4615,-4.4615,-4.4615,-4.4615,-4.4615,-4.4615,-4.4615,-4.4615,-4.4615,-4.4615,-4.4615,-4.4615,-4.4615,-4.4615,-4.4615,-4.4615,0.0,-3.9373,-3.9373,-3.9373,-3.9373,-3.9373,-3.9373,-3.9373,-3.9373,0.0,-3.9373,-3.9373,-3.9373,-3.9373,-3.9373,-3.9373,-3.9373,-3.9373,-3.9373,-3.9373,-3.9373,-3.9373,-3.9373,-3.9373,-3.9373,-3.8811,-3.8811,-3.9373,-3.8811,-3.8811,-3.9373,-3.9373,-3.9373,-3.9373,-3.9373,-3.9373,-3.9373,-3.9373,-3.9373,-3.9373,-3.9373,-3.9373,-3.9373,-3.9373,-3.9433,-3.9529,-3.9439,-3.9433,-3.9529,-3.9439,-3.9373,0.0,0.0,0.0,0.0,0.0,-3.9373,-3.929,-3.8661,-3.8512,-3.8332,-3.7674,-3.7524,0.0,-3.6716,-3.7015,-3.7404,-3.7404,0.0,0.0,0.0,0.0,0.0,0.0,0.0,0.0,0.0,0.0,0.0,0.0,0.0,0.0,-4.3295,-4.3416,-4.3509,-4.3509,-4.3568,-4.3598,-4.3598,-4.3747,-4.3868,-4.3898,-4.4126,-4.4236,-4.4265,-4.444,-4.4559,-4.4587,-4.4587,-4.4587,-4.4615,-4.4615,-4.4587,-4.4587,-4.4615,-4.4587,-4.4587,-4.4615,-4.4615,-4.4615,-4.4615,-4.4615,-4.4615,-4.4615,-4.4615,-4.4615,-3.9373,-3.9373,-3.9373,-3.9373,-3.9373,-3.9373,-3.9373,-3.9373,-3.9373,-3.9373,-3.9373,-3.9373,-3.9373,-3.9373,-3.9373,-3.9373,-3.9373,-3.9373,-3.9373,-3.9373,-3.9373,-3.9373,-3.9373,-3.9373,-3.9373,-3.929,-3.929,-3.9373,-3.929,-3.929,-3.9373,-3.9373,-3.9373,-3.9373,-3.9373,-3.9373,-3.9373,-3.9373,-3.9373,-3.9373,-3.9373,-3.9373,-3.9373,-3.9373,-3.9738,-4.0127,-3.9619,-3.9768,-4.0127,-3.9553,-3.9373,-3.9373,0.0,0.0,0.0,-3.9373,0.0,0.0,-3.926,-3.92,0.0,0.0,0.0,0.0,-3.7375,-3.7315,-3.7404,0.0,0.0,0.0,0.0,0.0,0.0,0.0,0.0,0.0,0.0,0.0,0.0,0.0,0.0,0.0,-4.1884,-4.2459,-4.2772,-4.2772,-4.3295,-4.3598,-4.3598,-4.3628,-4.3717,-4.3898,-4.3956,-4.401,-4.4155,-4.4184,-4.4241,-4.4384,-4.4384,-4.444,-4.4615,-4.4615,-4.4497,-4.4384,-4.4525,-4.4497,-4.4384,-4.4525,-4.4615,-4.4615,-4.4615,-4.4615,-4.4615,-4.4615,-4.4615,-4.4615,-3.9373,-3.9373,-3.9373,-3.9373,-3.9373,-3.9373,-3.9373,-3.9373,-3.9373,-3.9373,-3.9373,-3.9373,-3.9373,-3.9373,-3.9373,-3.9373,-3.9373,-3.9373,-3.9373,-3.9373,-3.9373,-3.9373,-3.9373,-3.9373,-3.9373,-3.9373,-3.9373,-3.9373,-3.9373,-3.9373,-3.9373,-3.9373,-3.9373,-3.9373,-3.9373,-3.9373,-3.9373,-3.9373,-3.9619,-3.9918,-3.9918,-3.9918,-3.9948,-4.0277,-4.0606,-4.0846,-4.0516,-4.0397,-4.0337,-4.0008,-3.9679,0.0,-3.9373,-3.9373,-3.9373,0.0,-3.9373,-3.9373,0.0,0.0,0.0,-3.899,0.0,0.0,0.0,-3.7913,-3.7913,0.0,0.0,0.0,0.0,0.0,0.0,0.0,0.0,0.0,0.0,0.0,0.0,0.0,0.0,0.0,-4.1459,-4.1819,-4.2205,-4.2585,-4.2896,-4.3235,-4.3598,-4.3598,-4.3658,-4.3747,-4.3868,-4.3927,-4.4015,-4.4068,-4.4126,-4.4212,-4.4212,-4.4298,-4.444,-4.4384,-4.4384,-4.444,-4.4384,-4.4384,-4.444,-4.444,-4.4497,-4.4615,-4.4615,-4.4615,-4.4615,-4.4615,-4.4615,-4.4615,-3.9433,-3.9373,-3.9373,-3.9373,-3.9373,-3.9373,-3.9373,-3.9373,-3.9373,-3.9373,-3.9373,-3.9373,-3.9373,-3.9373,-3.9373,-3.9373,-3.9373,-3.9373,-3.9373,-3.9373,-3.9373,-3.9373,-3.9373,-3.9373,-3.9373,-3.9373,-3.9373,-3.9373,-3.9373,-3.9373,-3.9373,-3.9373,-3.9373,-3.9373,-3.9373,-3.9373,-3.9403,-3.9559,-3.9918,-4.0427,-4.0666,-4.0696,-4.0636,-4.1175,-4.1482,-4.1602,-4.1602,-4.1145,-4.0576,-4.0576,-4.0157,-3.9619,-3.9619,-3.9529,0.0,0.0,0.0,0.0,0.0,0.0,0.0,0.0,0.0,-3.926,0.0,0.0,0.0,0.0,0.0,0.0,0.0,0.0,0.0,0.0,0.0,0.0,0.0,0.0,0.0,0.0,0.0,0.0,0.0,-4.1227,-4.1591,-4.2301,-4.2522,-4.2834,-4.3355,-4.3539,-4.3598,-4.3598,-4.378,-4.3839,-4.3839,-4.3952,-4.401,-4.4039,-4.4039,-4.4126,-4.4236,-4.4155,-4.4212,-4.4474,-4.4212,-4.4241,-4.4474,-4.4327,-4.4384,-4.4559,-4.4587,-4.4615,-4.4615,-4.4615,-4.4615,-4.4615,-3.9649,-3.9373,-3.9373,-3.9373,-3.9373,-3.9373,-3.9373,-3.9373,-3.9373,-3.9373,-3.9373,-3.9373,-3.9373,-3.9373,-3.9373,-3.9373,-3.9373,-3.9373,-3.9373,-3.9373,-3.9373,-3.9373,-3.9373,-3.9373,-3.9373,-3.9373,-3.9373,-3.9373,-3.9373,-3.9373,-3.9373,-3.9373,-3.9373,-3.9373,-3.9373,-3.9373,-3.9469,-4.0038,-4.0337,-4.0487,-4.1722,-4.1841,0.0,-4.1354,-4.1782,-4.2291,-4.2291,-4.1871,-4.1265,0.0,-4.0816,-4.0277,0.0,-3.9888,-3.9373,-3.9373,0.0,0.0,0.0,0.0,0.0,0.0,-3.9373,0.0,0.0,0.0,-3.914,-3.8512,0.0,0.0,0.0,0.0,0.0,0.0,0.0,0.0,0.0,0.0,0.0,0.0,0.0,0.0,0.0,-4.0235,-4.0891,-4.1558,-4.2205,-4.2648,-4.271,-4.3265,-4.3598,-4.3598,-4.3628,-4.3628,-4.3628,-4.3658,-4.3747,-4.3927,-4.3927,-4.3981,-4.4126,-4.4097,-4.4073,-4.3985,-4.4039,-4.4039,-4.3985,-4.4068,-4.4212,-4.4321,-4.4525,-4.4615,-4.4615,-4.4615,-4.4615,-4.4615,-4.0756,-4.0546,-4.0546,-4.0546,-4.0546,-4.0546,-4.0546,-4.0546,-4.0546,-4.0546,-4.0546,-4.0546,-4.0546,-4.0546,-4.0546,-4.0546,-4.0546,-4.0397,0.0,-3.9978,-3.9828,-3.9439,-3.9373,-3.9373,-3.9373,-3.9373,-3.9373,-3.9373,-3.9373,-3.9373,-3.9373,-3.9373,-3.9373,-3.9439,-3.9828,-3.9978,-4.0038,-4.0696,-4.1175,-4.1632,-4.2171,-4.247,0.0,-4.2521,-4.2701,-4.291,-4.291,-4.2491,-4.1991,0.0,-4.1504,0.0,0.0,0.0,0.0,0.0,0.0,0.0,0.0,0.0,0.0,0.0,0.0,0.0,-3.9373,0.0,-3.9313,0.0,0.0,0.0,0.0,0.0,0.0,0.0,-3.923,0.0,0.0,0.0,0.0,0.0,0.0,0.0,0.0,0.0,0.0,0.0,-4.1194,-4.1722,-4.2554,-4.2459,-4.2772,-4.3568,-4.3235,-4.3204,-4.3598,-4.3598,-4.3628,-4.3717,-4.3717,-4.3839,-4.3985,-4.3864,-4.3894,-4.4015,-4.3864,-4.3894,-4.401,-4.3981,-4.4068,-4.4212,-4.427,-4.4412,-4.4615,-4.4615,-4.4615,-4.4615,-4.2013,-4.1624,-4.1422,-4.1422,-4.1422,-4.1422,-4.1422,-4.1422,-4.1422,-4.1422,-4.1422,-4.1422,-4.1422,-4.1422,-4.1422,-4.1422,-4.1422,-4.1175,0.0,0.0,-4.0457,-3.9978,-3.9798,-3.9679,-3.9679,-3.9463,-3.9373,-3.9373,-3.9373,-3.9373,-3.9373,-3.9619,-3.9679,-3.9709,-4.0367,-4.0666,-4.0696,-4.1422,-4.1961,-4.241,-4.259,-4.291,-4.329,-4.329,-4.329,-4.329,-4.329,-4.303,-4.2641,-4.2641,-4.2192,0.0,-4.1085,0.0,0.0,0.0,0.0,0.0,-3.9433,0.0,0.0,0.0,0.0,0.0,0.0,0.0,0.0,0.0,0.0,0.0,0.0,0.0,0.0,-3.917,0.0,-3.9349,0.0,0.0,0.0,0.0,0.0,0.0,0.0,0.0,0.0,0.0,0.0,-4.0956,-4.1949,-4.1689,-4.1981,-4.2988,-4.2741,-4.2834,-4.3325,-4.3509,-4.3598,-4.3598,-4.3386,-4.3509,-4.3809,-4.3479,-4.3535,-4.3952,-4.3717,-4.3747,-4.3952,-4.3868,-4.3776,-4.3743,-4.3743,-4.3802,-4.3914,-4.4384,-4.4525,-4.4615,-4.323,-4.2252,-4.1422,-4.1422,-4.1422,-4.1422,-4.1422,-4.1422,-4.1422,-4.1422,-4.1422,-4.1422,-4.1422,-4.1422,-4.1422,-4.1422,0.0,-4.1422,-4.1354,0.0,-4.1354,0.0,0.0,-4.0367,0.0,-3.9738,-3.9373,-3.9373,-3.9373,-3.9373,-3.9403,-4.0068,-4.0367,-4.0397,-4.1055,-4.1392,-4.1384,-4.2081,-4.2381,-4.244,-4.306,-4.326,-4.329,0.0,-4.329,-4.329,-4.329,0.0,0.0,-4.326,-4.288,0.0,0.0,0.0,0.0,0.0,0.0,0.0,0.0,0.0,0.0,-3.9373,0.0,0.0,0.0,0.0,-3.9373,0.0,0.0,0.0,0.0,0.0,-3.92,-3.8542,-3.899,0.0,0.0,0.0,0.0,0.0,0.0,0.0,0.0,0.0,0.0,0.0,0.0,0.0,-4.0581,-4.116,-4.1525,-4.1558,-4.2237,-4.2617,-4.2617,-4.3265,-4.3598,-4.3598,-4.2927,-4.299,-4.3598,-4.2927,-4.2988,-4.3628,-4.3598,-4.3598,-4.3628,-4.3628,-4.3325,-4.2863,-4.2863,-4.252,-4.2236,-4.3768,-4.444,-4.4587,-4.329,-4.2931,-4.2671,-4.2671,-4.2671,-4.2671,-4.2671,-4.2671,-4.2671,-4.2671,-4.2671,0.0,0.0,-4.2671,-4.2671,0.0,0.0,-4.2491,-4.2111,-4.2081,0.0,0.0,0.0,-4.1055,0.0,0.0,-4.0726,-4.0726,-4.0726,-4.0726,-4.0726,-4.0935,-4.1055,-4.1085,-4.1782,-4.2081,-4.2111,-4.2731,-4.3,0.0,0.0,-4.329,-4.329,0.0,-4.329,-4.329,-4.329,-4.329,0.0,-4.329,-4.314,-4.294,-4.253,-4.2261,-4.1931,-4.1235,-4.1055,0.0,0.0,0.0,-3.9978,-3.9493,0.0,0.0,0.0,0.0,0.0,0.0,0.0,0.0,0.0,0.0,-3.9349,-3.911,-3.926,-3.9313,0.0,0.0,0.0,0.0,0.0,0.0,0.0,0.0,0.0,0.0,-3.9625,0.0,0.0,-4.0235,-4.0547,-4.1459,-4.1294,-4.1426,-4.1852,-4.2078,-4.2205,-4.2205,-4.1981,-4.1981,-4.2205,-4.1981,-4.1981,-4.2205,-4.2205,-4.2491,-4.2959,-4.2959,-4.308,-4.3295,-4.2865,-4.2615,-4.2614,-4.3196,-4.3466,-4.3588,-4.329,-4.329,-4.329,-4.329,-4.329,-4.329,-4.329,-4.329,-4.329,0.0,-4.329,0.0,-4.3618,0.0,-4.3648,0.0,-4.3648,-4.3419,-4.2761,-4.2701,0.0,-4.2102,-4.1863,0.0,0.0,0.0,0.0,0.0,-4.1422,-4.1422,-4.1422,-4.1662,-4.1782,-4.1782,-4.2402,-4.2701,-4.2731,-4.315,-4.329,0.0,0.0,-4.329,0.0,0.0,-4.329,-4.329,0.0,-4.329,-4.329,-4.329,-4.329,-4.323,-4.2851,-4.2701,-4.2581,-4.1961,-4.1782,-4.1632,-4.0935,-4.0576,0.0,-3.9858,-3.9589,0.0,-3.9373,0.0,0.0,0.0,0.0,0.0,0.0,0.0,-3.9373,-3.9373,-3.9373,-3.9373,0.0,-3.9373,0.0,0.0,0.0,0.0,0.0,0.0,0.0,-3.9373,-3.9373,-3.9625,0.0,0.0,-3.9809,-4.0721,-4.0581,-4.0718,-4.1127,-4.1393,-4.1492,-4.1492,-4.126,-4.126,-4.1492,-4.126,-4.126,-4.1492,-4.1492,-4.1754,-4.2205,-4.2205,-4.2301,-4.2459,-4.2013,-4.1754,-4.169,-4.23,-4.2737,-4.3106,-4.329,-4.329,-4.329,-4.329,-4.329,-4.329,-4.329,0.0,-4.329,0.0,-4.3319,-4.3589,-4.4257,-4.4347,-4.4377,-4.4377,-4.4377,-4.4077,-4.3379,-4.3349,0.0,0.0,-4.2731,-4.244,-4.244,0.0,0.0,0.0,0.0,-4.1474,-4.1504,-4.2171,-4.244,-4.247,-4.306,-4.329,-4.329,-4.329,-4.329,-4.329,-4.329,-4.329,-4.329,-4.329,-4.329,-4.329,-4.329,-4.329,-4.329,-4.329,-4.329,-4.329,-4.329,-4.329,-4.317,-4.262,-4.244,-4.2321,-4.1662,-4.0965,-4.0487,-4.0457,0.0,0.0,0.0,0.0,-3.9373,0.0,0.0,0.0,0.0,0.0,0.0,-3.9373,-3.9373,-3.9373,-3.9373,0.0,0.0,0.0,0.0,0.0,0.0,0.0,-3.9373,-3.9373,-3.9373,-3.9373,0.0,0.0,-3.9373,-3.9373,-4.0091,-4.0443,-4.0443,-4.106,-4.1393,-4.1393,-4.0752,-4.0786,-4.136,-4.0752,-4.082,-4.1393,-4.1393,-4.1426,-4.1459,-4.1459,-4.1093,-4.0547,-4.0512,-4.0056,-3.9589,-4.1095,-4.2205,-4.3045,-4.329,-4.329,-4.329,-4.329,-4.329,-4.329,0.0,0.0,0.0,0.0,-4.3708,-4.4137,-4.4287,-4.4736,-4.5035,-4.5035,-4.5035,0.0,0.0,0.0,0.0,-4.3319,-4.314,-4.309,-4.309,-4.291,0.0,-4.2821,0.0,-4.2821,-4.2851,-4.3,-4.309,-4.309,-4.323,-4.329,-4.329,-4.329,-4.329,-4.329,-4.329,-4.329,-4.329,0.0,-4.329,-4.329,-4.329,-4.329,-4.329,-4.329,-4.329,-4.329,-4.329,-4.329,-4.326,-4.312,-4.309,-4.294,-4.2321,-4.2021,-4.1782,-4.1302,-4.0636,-4.0157,0.0,0.0,0.0,0.0,0.0,0.0,0.0,0.0,0.0,-3.9373,-3.9373,-3.9373,0.0,0.0,0.0,-3.9373,0.0,0.0,0.0,-3.9373,-3.9373,-3.9373,-3.9373,-3.9373,-3.9373,0.0,0.0,-3.9373,-3.9589,-3.9666,-3.9666,-3.9844,-3.995,-3.995,-3.9737,-3.9773,-3.995,-3.9737,-3.9773,-3.995,-3.995,-4.0235,-4.0786,-4.0786,-4.0925,-4.1194,-4.0684,-4.0056,-3.9517,-4.0478,-4.1329,-4.2109,-4.329,-4.329,-4.329,-4.329,0.0,0.0,-4.329,-4.3529,0.0,-4.3738,-4.4347,0.0,-4.5155,-4.5514,-4.5753,-4.5753,-4.5753,0.0,-4.4796,0.0,0.0,-4.3738,-4.3738,-4.3589,-4.329,-4.329,0.0,-4.329,0.0,-4.329,-4.329,-4.329,-4.329,-4.329,-4.329,-4.329,-4.329,-4.329,-4.329,-4.329,-4.329,-4.329,0.0,-4.329,-4.329,-4.329,-4.329,-4.329,-4.329,-4.329,-4.329,-4.329,-4.329,-4.329,-4.329,-4.329,-4.329,-4.323,-4.288,-4.262,-4.2321,-4.1931,-4.1324,-4.0816,-4.0816,-4.0307,-3.9858,0.0,0.0,0.0,0.0,0.0,0.0,-3.9373,-3.9373,0.0,0.0,0.0,0.0,0.0,-3.9373,0.0,0.0,-3.9373,-3.9373,-3.9373,-3.9373,-3.9373,0.0,0.0,0.0,-3.9373,-3.9373,-3.9373,-3.9373,-3.9373,-3.9373,-3.9373,-3.9373,-3.9373,-3.9373,-3.9373,-3.9373,-3.9373,-3.9373,-3.9661,-4.0021,-4.0021,-4.0235,-4.0547,-4.0196,-3.9773,-3.9445,-3.9879,-4.055,-4.133,-4.329,-4.329,-4.3319,0.0,0.0,0.0,0.0,-4.3977,0.0,-4.4436,0.0,-4.5663,-4.6262,-4.6411,-4.6441,-4.6441,0.0,-4.6172,-4.5484,-4.5424,-4.5125,-4.4466,-4.4377,-4.4047,-4.3439,-4.3349,-4.329,0.0,0.0,-4.329,-4.329,-4.329,-4.329,-4.329,-4.329,-4.329,-4.329,-4.329,-4.329,-4.329,-4.329,-4.329,-4.329,-4.329,-4.329,-4.329,-4.329,-4.329,-4.329,-4.329,-4.329,-4.329,-4.329,-4.329,-4.329,-4.329,-4.329,-4.329,-4.329,-4.291,-4.253,-4.253,-4.2021,-4.1542,-4.1542,-4.0995,-4.0516,-4.0427,-3.9948,-3.9529,0.0,0.0,0.0,0.0,0.0,0.0,0.0,0.0,0.0,0.0,0.0,0.0,0.0,0.0,-3.9373,-3.9373,-3.9373,-3.9373,0.0,0.0,0.0,-3.9373,-3.9373,-3.9373,-3.9373,0.0,-3.9373,-3.9373,-3.9373,-3.9373,-3.9373,-3.9373,-3.9373,-3.9373,-3.9373,-3.9373,-3.9373,-3.9373,-3.9373,-3.9373,-3.9373,-3.9373,-3.9373,-3.9373,-3.9884,-4.0588,-4.329,-4.329,-4.3469,0.0,0.0,-4.4317,-4.4855,-4.4586,-4.4496,-4.5035,-4.5723,-4.6202,-4.6279,-4.68,-4.713,-4.713,-4.713,0.0,0.0,0.0,0.0,-4.5155,-4.4616,-4.4257,-4.4137,-4.3559,-4.329,0.0,0.0,-4.329,-4.329,-4.329,-4.329,-4.329,-4.329,-4.329,-4.329,-4.329,0.0,-4.329,-4.329,-4.329,-4.329,-4.329,-4.329,-4.329,-4.329,-4.329,-4.329,-4.329,-4.329,-4.329,-4.329,-4.329,-4.329,-4.329,-4.329,-4.329,-4.329,-4.32,-4.311,-4.311,-4.2671,-4.2231,-4.2231,-4.1722,-4.1055,-4.0516,-4.0307,-4.0068,-3.9529,0.0,0.0,0.0,0.0,0.0,0.0,0.0,0.0,0.0,0.0,-3.9373,0.0,0.0,0.0,-3.9373,-3.9373,-3.9373,0.0,0.0,0.0,0.0,-3.9373,0.0,0.0,0.0,-3.9373,-3.9373,-3.9373,-3.9373,-3.9373,-3.9373,-3.9373,-3.9373,-3.9373,-3.9373,-3.9373,-3.9373,-3.9373,-3.9373,-3.9373,-3.9373,-3.9373,-3.9373,-3.9517,-3.9737,-4.4347,0.0,-4.4436,0.0,0.0,0.0,0.0,-4.5544,-4.5454,-4.5783,-4.6411,-4.683,-4.683,-4.713,-4.7309,-4.7309,-4.7309,-4.716,-4.686,-4.683,-4.6531,-4.5873,-4.5185,-4.4676,-4.4317,-4.3618,-4.329,-4.329,0.0,-4.329,-4.329,-4.329,-4.329,-4.329,-4.329,-4.329,0.0,0.0,0.0,-4.329,-4.329,-4.329,-4.329,-4.329,-4.329,-4.329,-4.329,-4.329,-4.329,-4.329,-4.329,-4.329,-4.329,-4.329,-4.329,-4.329,-4.329,-4.329,-4.329,-4.329,-4.329,-4.329,-4.309,-4.288,-4.288,-4.241,-4.1841,-4.1512,-4.1145,-4.0696,-4.0038,-3.9649,0.0,0.0,0.0,0.0,0.0,0.0,0.0,0.0,0.0,0.0,0.0,0.0,0.0,0.0,0.0,0.0,0.0,0.0,0.0,0.0,0.0,0.0,0.0,0.0,0.0,-3.9373,-3.9373,-3.9373,-3.9373,-3.9373,-3.9373,-3.9373,-3.9373,-3.9373,-3.9373,-3.9373,-3.9373,-3.9373,-3.9373,-3.9373,-3.9373,-3.9373,-3.9373,-3.9445,-4.5304,-4.5304,0.0,0.0,-4.5514,-4.5753,-4.6441,-4.6488,-4.6488,-4.6488,-4.698,-4.7309,-4.7309,-4.7309,-4.7309,-4.7309,-4.7309,-4.7309,-4.7309,-4.7309,-4.707,-4.6561,-4.5873,-4.5214,-4.4526,-4.3868,-4.3439,0.0,0.0,0.0,-4.329,-4.329,-4.329,-4.329,0.0,0.0,0.0,0.0,-4.329,-4.329,-4.329,-4.329,-4.329,-4.329,-4.329,-4.329,-4.329,-4.329,-4.329,-4.329,-4.329,-4.329,-4.329,-4.329,-4.329,-4.329,-4.329,-4.329,-4.329,-4.329,-4.329,-4.329,-4.329,-4.329,-4.329,-4.294,-4.256,-4.244,-4.1871,-4.1175,-4.0516,-3.9978,0.0,0.0,0.0,0.0,0.0,0.0,0.0,0.0,0.0,0.0,-3.9373,0.0,0.0,0.0,0.0,-3.9373,-3.9373,-3.9373,-3.9373,0.0,0.0,-3.9373,-3.9373,0.0,-3.9373,-3.9373,-3.9373,-3.9373,-3.9373,-3.9373,-3.9373,-3.9373,-3.9373,-3.9373,-3.9373,-3.9373,-3.9373,-3.9373,-3.9373,-3.9373,-3.9373,-3.9373,-3.9373,-3.9373,0.0,0.0,0.0,0.0,0.0,0.0,-4.71,-4.7219,-4.7219,-4.7219,-4.7279,-4.7309,-4.7309,-4.7309,-4.7309,-4.7309,-4.7309,-4.7309,-4.7309,-4.7309,-4.7279,-4.7219,-4.6591,-4.5903,-4.5214,-4.4556,-4.3888,0.0,0.0,-4.329,0.0,-4.329,-4.329,0.0,0.0,0.0,0.0,-4.329,-4.329,-4.329,-4.329,-4.329,-4.329,-4.329,-4.329,-4.329,-4.329,-4.329,-4.329,-4.329,-4.329,-4.329,-4.329,-4.329,-4.329,-4.329,-4.329,-4.329,-4.329,-4.329,-4.329,-4.329,-4.329,-4.329,-4.329,-4.326,-4.306,-4.253,-4.1871,-4.1175,-4.0516,-4.0337,-4.0127,0.0,0.0,0.0,0.0,0.0,0.0,0.0,0.0,0.0,0.0,-3.9373,0.0,0.0,-3.9373,-3.9373,-3.9373,-3.9373,-3.9373,-3.9373,0.0,-3.9373,-3.9373,-3.9373,-3.9373,-3.9373,-3.9373,-3.9373,-3.9373,-3.9373,-3.9373,-3.9373,-3.9373,-3.9373,-3.9373,-3.9373,-3.9373,-3.9373,-3.9373,-3.9373,-3.9373,-3.9373,-3.9373,-3.9373,0.0,0.0,0.0,0.0,0.0,0.0,0.0,-4.7908,-4.8027,-4.8446,-4.8147,-4.8027,-4.8446,-4.8117,-4.7908,-4.7908,-4.7549,-4.7309,-4.7309,-4.7309,-4.7309,-4.7309,-4.6681,-4.616,-4.5933,-4.4855,-4.4197,0.0,0.0,0.0,0.0,0.0,0.0,0.0,0.0,-4.329,-4.329,-4.329,-4.329,-4.329,-4.329,-4.329,-4.329,-4.329,-4.329,-4.329,-4.329,-4.329,-4.329,-4.329,-4.329,-4.329,-4.329,-4.329,-4.329,-4.329,-4.329,-4.329,-4.329,-4.329,-4.329,-4.329,-4.329,-4.329,-4.329,-4.329,-4.323,-4.3,-4.2432,-4.1931,-4.1662,-4.1189,-4.0636,0.0,0.0,0.0,0.0,0.0,0.0,0.0,0.0,-3.9373,0.0,0.0,0.0,0.0,0.0,0.0,-3.9373,-3.9373,0.0,-3.9373,0.0,-3.9373,-3.9373,-3.9373,-3.9373,-3.9373,-3.9373,-3.9373,-3.9373,-3.9373,-3.9373,-3.9373,-3.9373,-3.9373,-3.9373,-3.9373,-3.9373,-3.9373,-3.9373,-3.9373,-3.9373,-3.9373,-3.9373,-3.9373,-4.7878,0.0,-4.7878,0.0,-4.7878,-4.8027,-4.8506,-4.8566,-4.8805,-4.9464,-4.9134,-4.8955,-4.9269,-4.8686,-4.8297,-4.8297,-4.7698,-4.7309,-4.7309,-4.7309,-4.7309,-4.7309,-4.686,0.0,-4.6279,-4.5394,-4.4706,-4.4317,-4.3798,0.0,0.0,0.0,0.0,0.0,-4.329,-4.329,-4.329,-4.329,-4.329,-4.329,-4.329,-4.329,-4.329,-4.329,-4.329,-4.329,-4.329,-4.329,-4.329,-4.329,-4.329,-4.329,-4.329,-4.329,-4.329,-4.329,-4.329,-4.329,-4.329,-4.329,-4.329,-4.329,-4.329,-4.329,-4.329,-4.329,-4.329,-4.329,-4.2931,-4.2542,-4.244,-4.1906,-4.1284,-4.0703,0.0,0.0,0.0,0.0,0.0,0.0,-3.9373,-3.9373,-3.9373,-3.9373,0.0,0.0,0.0,0.0,0.0,0.0,0.0,0.0,0.0,0.0,0.0,-3.9373,-3.9373,-3.9373,-3.9373,-3.9373,-3.9373,-3.9373,-3.9373,-3.9373,-3.9373,-3.9373,-3.9373,-3.9373,-3.9373,-3.9373,-3.9373,-3.9373,-3.9373,-3.9373,-3.9373,-3.9373,-4.9299,-4.9299,-4.9299,-4.9299,-4.9299,-4.9299,-4.9299,-4.9299,-4.9494,-5.0106,-5.0166,-4.9972,-4.9389,-4.8686,-4.8297,-4.8297,-4.7698,-4.7309,-4.7309,-4.7309,-4.7309,0.0,0.0,-4.698,-4.6279,-4.6279,-4.5663,-4.4317,0.0,0.0,-4.329,0.0,-4.329,-4.329,-4.329,-4.329,-4.329,-4.329,-4.329,-4.329,-4.329,-4.329,-4.329,-4.329,-4.329,-4.329,-4.329,-4.329,-4.329,-4.329,-4.329,-4.329,-4.329,-4.329,-4.329,-4.329,-4.329,-4.329,-4.329,-4.329,-4.329,-4.329,-4.329,-4.329,-4.329,-4.329,-4.329,-4.329,-4.314,-4.2852,-4.2491,-4.2381,-4.2094,-4.1237,0.0,0.0,0.0,0.0,0.0,0.0,-3.9373,-3.9373,-3.9373,-3.9373,0.0,0.0,0.0,0.0,0.0,0.0,0.0,-3.9373,-3.9373,0.0,-3.9373,-3.9373,-3.9373,-3.9373,-3.9373,-3.9373,-3.9373,-3.9373,-3.9373,-3.9373,-3.9373,-3.9373,-3.9373,-3.9373,-3.9373,-3.9373,-3.9373,-3.9373,-3.9373,-3.9373,-3.9373,-3.9373,-4.9299,-4.9299,-4.9299,-4.9299,-4.9299,-4.9404,-4.9853,-4.9912,-5.0152,-5.081,-5.0853,-5.084,-5.0631,-5.0002,-4.9434,0.0,-4.8356,-4.7788,0.0,-4.7309,-4.7309,-4.7309,-4.7309,-4.7219,-4.701,-4.6518,-4.607,-4.5651,0.0,0.0,0.0,-4.4227,-4.3977,-4.3947,-4.3499,-4.329,-4.329,-4.329,-4.329,-4.329,-4.329,-4.329,-4.329,-4.329,-4.329,-4.329,-4.329,-4.329,-4.329,-4.329,-4.321,-4.313,-4.313,-4.321,-4.329,-4.329,-4.329,-4.329,-4.329,-4.321,-4.313,-4.325,-4.321,-4.313,-4.325,-4.329,-4.325,-4.313,-4.3021,-4.2921,-4.2663,-4.2474,-4.2187,-4.1617,-4.1273,0.0,0.0,0.0,0.0,0.0,-3.9569,-3.9337,0.0,-3.9301,0.0,0.0,0.0,0.0,0.0,0.0,0.0,0.0,-3.9373,0.0,-3.9373,-3.9373,-3.9373,-3.9373,-3.9373,-3.9373,-3.9439,-3.9888,-4.0098,-4.0127,-4.0576,-4.0756,-4.0726,-4.0277,-4.0098,-4.0038,-3.9589,-3.9373,-3.9373,-3.9373,-3.9373,-3.9373,-5.0002,-5.0002,-5.0002,-5.0002,-5.0002,-5.0152,-5.0495,-5.0554,-5.0704,-5.1169,-5.1229,-5.1229,-5.1229,-5.0794,0.0,-4.9389,-4.87,-4.7997,-4.7339,-4.7309,-4.7309,-4.7309,-4.7309,-4.7309,-4.7309,-4.689,0.0,-4.6279,-4.5633,-4.5304,-4.5274,-4.4885,-4.4676,-4.4676,-4.4257,-4.4077,-4.4077,-4.4077,-4.4077,-4.4077,-4.4077,-4.3888,-4.3678,-4.3678,-4.3499,-4.329,-4.329,-4.329,-4.329,-4.321,-4.313,-4.2981,-4.29,-4.297,-4.309,-4.317,-4.325,-4.329,-4.329,-4.317,-4.3021,-4.317,-4.305,-4.297,-4.317,-4.313,-4.305,-4.3021,-4.2941,-4.285,-4.2729,-4.2596,-4.2368,-4.1997,-4.1693,-4.136,-4.0989,0.0,0.0,0.0,0.0,0.0,0.0,-3.9341,-3.9228,0.0,0.0,0.0,0.0,0.0,0.0,-3.9373,-3.9373,0.0,-3.9373,-3.9373,-3.9373,-3.9373,-3.9679,-3.9798,-3.9798,-4.0457,-4.0756,-4.0786,-4.1205,-4.1422,-4.1392,-4.0935,-4.0756,-4.0726,-4.0307,-4.0008,-3.9798,-3.9798,-3.9619,-3.9373,-5.1229,-5.1229,-5.1229,0.0,-5.1229,0.0,-5.1229,-5.1229,-5.1229,-5.1229,-5.1229,-5.1229,-5.1229,-5.1229,-5.072,-4.9479,0.0,0.0,0.0,-4.7309,-4.7309,-4.7309,-4.7309,-4.7309,-4.7309,-4.7309,-4.701,-4.6339,-4.5753,-4.5424,-4.5424,-4.5394,-4.5364,-4.5364,-4.5304,-4.5304,-4.5304,-4.5304,-4.5304,-4.5304,-4.5304,-4.4874,-4.4336,-4.4336,-4.3977,-4.3409,-4.3379,-4.3349,-4.331,-4.309,-4.2981,-4.2941,-4.2729,-4.2688,-4.2729,-4.29,-4.313,-4.325,-4.325,-4.313,-4.2941,-4.2981,-4.285,-4.2769,-4.2941,-4.285,-4.2769,-4.29,-4.2809,-4.2688,-4.2648,-4.2648,-4.2596,-4.2392,-4.1986,-4.1645,-4.1474,0.0,0.0,0.0,0.0,0.0,0.0,-3.9417,-3.9142,0.0,0.0,0.0,0.0,0.0,-3.9373,-3.9373,-3.9373,-3.9373,-3.9373,-3.9373,-3.9403,-3.9499,-4.0157,-4.0457,-4.0487,-4.1145,-4.1444,-4.1444,-4.1504,-4.1504,-4.1504,-4.1512,-4.1444,-4.1482,-4.1422,-4.0995,-4.0457,-4.0427,-4.0008,-3.9433,0.0,0.0,-5.1229,-5.1229,-5.1229,-5.1229,-5.1229,-5.1229,-5.1229,-5.1229,-5.1229,-5.1229,-5.1229,-5.1229,-5.09,-5.0092,-4.9404,-4.8536,-4.7369,-4.7309,-4.7309,-4.7309,-4.7309,-4.7309,-4.7309,-4.7309,-4.7219,-4.707,-4.692,-4.683,-4.683,-4.6322,-4.6082,-4.6052,-4.5544,-4.5304,-4.5304,-4.5304,-4.5221,-4.5054,-4.5054,-4.484,-4.4524,-4.4524,-4.4561,-4.4519,-4.4043,-4.3916,-4.3947,-4.3239,-4.293,-4.2729,-4.2555,-4.2474,-4.2514,-4.2729,-4.2809,-4.285,-4.285,-4.2688,-4.2566,-4.2729,-4.2729,-4.2729,-4.2769,-4.2729,-4.2648,-4.2566,-4.2514,-4.2433,-4.2269,-4.2257,-4.2257,-4.2175,-4.207,-4.1983,-4.1942,-4.1551,0.0,0.0,-4.0832,-4.0498,-4.0275,-3.9871,-3.9563,0.0,0.0,0.0,0.0,-3.9192,-3.9228,-3.9373,-3.9373,-3.9373,-3.9373,-3.9373,-3.9679,-4.0187,-4.0816,-4.1145,-4.1175,-4.1871,-4.2171,-4.2201,-4.2641,-4.2841,-4.2821,-4.2342,-4.2171,-4.2111,-4.1602,-4.1294,-4.1085,-4.0576,-4.0307,-4.0098,-5.1229,-5.1229,-5.1229,-5.1229,-5.1229,-5.1229,-5.1229,-5.1229,-5.1229,-5.1229,-5.1229,-5.1229,-5.1229,-5.1229,-5.1079,-5.0674,-4.9823,-4.888,-4.7818,-4.7489,-4.7309,-4.7309,-4.7309,-4.7309,-4.7309,-4.7309,-4.7309,-4.7309,-4.7309,-4.7309,-4.7309,-4.695,-4.677,-4.6741,-4.6381,-4.6202,-4.6202,-4.6202,-4.6075,-4.5862,-4.5862,-4.5556,-4.5076,-4.5076,-4.4984,-4.4744,-4.4388,-4.4353,-4.4276,-4.3419,-4.3048,-4.2896,-4.2398,-4.2228,-4.2269,-4.2392,-4.2555,-4.2688,-4.2688,-4.2555,-4.2392,-4.2433,-4.2433,-4.2474,-4.2555,-4.2566,-4.2555,-4.2433,-4.2392,-4.2351,-4.2133,-4.2092,-4.2092,-4.2092,-4.2092,-4.2092,-4.2092,-4.1855,0.0,-4.1732,-4.1309,-4.0939,-4.0712,-4.0324,-4.0088,-4.0088,-3.985,0.0,-4.0159,-4.0159,-3.9928,-3.9403,-3.9709,-3.9858,-3.9858,-4.0157,-4.0487,-4.0846,-4.1542,-4.1871,-4.1901,-4.2491,-4.2791,-4.2821,-4.314,-4.329,-4.326,-4.294,-4.2791,-4.2761,-4.2402,-4.2102,-4.1811,-4.1482,-4.1115,-4.0756,-5.1229,-5.1229,-5.1229,-5.1229,-5.1229,-5.1229,-5.1229,-5.1229,-5.1229,-5.1229,-5.1229,-5.1229,-5.1229,-5.1229,-5.1259,-5.1349,-5.0182,-4.9179,-4.8476,-4.7728,-4.7309,-4.7309,-4.7309,-4.7309,-4.7309,-4.7309,-4.7309,-4.7309,-4.7309,-4.7309,-4.7309,-4.7309,-4.7309,-4.7309,-4.7309,-4.7309,-4.7309,-4.7309,-4.7135,-4.6844,-4.6844,-4.6387,-4.5653,-4.5653,-4.5344,-4.4814,-4.4726,-4.4739,-4.4621,-4.3751,-4.3432,-4.3303,-4.2524,-4.2237,-4.2208,-4.2121,-4.2351,-4.2607,-4.2607,-4.2474,-4.231,-4.2133,-4.2092,-4.2133,-4.231,-4.2351,-4.2351,-4.2351,-4.2351,-4.231,-4.2133,-4.2092,-4.2092,-4.2092,-4.2092,-4.2092,-4.2092,0.0,-4.2092,-4.2092,-4.1762,-4.1412,-4.125,-4.08,-4.0578,-4.0842,-4.0753,-4.0888,-4.1232,-4.1308,-4.0801,-3.9666,-4.0247,-4.0546,-4.0546,-4.1205,-4.1572,-4.1572,-4.2231,-4.256,-4.256,-4.309,-4.329,-4.329,-4.329,-4.329,-4.329,-4.329,-4.329,-4.329,-4.329,-4.3,-4.253,-4.244,-4.2051,-4.1482,-5.1229,-5.1229,-5.1229,-5.1229,-5.1229,-5.1229,-5.1229,-5.1229,-5.1229,-5.1229,-5.1229,-5.1229,-5.1229,-5.1229,-5.1439,-5.2007,-5.084,-4.9823,-4.9209,-4.7967,-4.7309,-4.7309,-4.7309,-4.7309,-4.7309,-4.7309,-4.7309,-4.7309,-4.7309,-4.7309,-4.7309,-4.7309,-4.7309,-4.7309,-4.7309,-4.7309,-4.7309,-4.7309,-4.7048,-4.6653,-4.6653,-4.6299,-4.5855,-4.5855,-4.5886,-4.5888,-4.5288,-4.5243,-4.5328,-4.4424,-4.4147,-4.3988,-4.3135,-4.2847,-4.276,-4.2237,-4.2133,-4.2216,-4.2216,-4.2175,-4.2133,-4.2092,-4.2092,-4.2092,-4.2133,-4.2133,-4.2133,-4.2133,-4.2133,-4.2133,-4.2092,-4.2092,-4.2092,-4.2092,-4.2092,-4.2092,-4.2092,0.0,-4.2092,-4.2092,-4.2046,-4.1988,-4.1947,-4.1378,-4.104,-4.1051,-4.0556,-4.0315,-4.0549,-4.0742,-4.0876,-4.085,-4.1099,-4.1235,-4.1235,-4.1931,-4.2261,-4.2261,-4.288,-4.314,-4.314,-4.326,-4.329,-4.329,-4.329,-4.329,-4.329,-4.329,-4.329,-4.329,-4.329,-4.323,-4.312,-4.262,-4.2321,-4.2141,-5.1229,-5.1229,-5.1229,-5.1229,-5.1229,-5.1229,-5.1229,-5.1229,-5.1229,-5.1229,-5.1229,-5.1229,-5.1229,-5.1229,-5.1498,-5.2127,-5.0943,-5.0272,-5.0301,-4.8745,-4.7668,-4.7309,-4.7309,-4.7309,-4.7309,-4.7309,-4.7309,-4.7309,-4.7309,-4.7309,-4.7309,-4.7149,-4.7149,-4.7309,-4.7048,-4.7092,-4.7309,-4.7149,-4.6887,-4.6609,-4.6609,-4.6343,-4.5895,-4.5895,-4.5956,-4.6016,-4.5681,-4.5653,-4.5654,-4.4894,-4.4647,-4.4487,-4.3761,-4.3515,-4.3398,-4.276,-4.2353,-4.2092,-4.2092,-4.2092,-4.2092,-4.2092,-4.2092,-4.2092,-4.2092,-4.2092,-4.2092,-4.2092,-4.2092,-4.2092,-4.2092,-4.2092,-4.2092,-4.2092,-4.2092,0.0,0.0,-4.2092,-4.2092,-4.2092,-4.2092,-4.2092,-4.2092,-4.1831,-4.1668,-4.1791,-4.1499,-4.1445,-4.1645,-4.1764,-4.1883,-4.1962,-4.1948,-4.2073,-4.2432,-4.2731,-4.288,-4.288,-4.314,-4.329,-4.329,-4.329,-4.329,-4.329,-4.329,-4.329,-4.329,-4.329,-4.329,-4.329,-4.329,-4.329,-4.326,-4.3,-4.288,-4.2791,-5.1229,-5.1229,-5.1229,-5.1229,-5.1229,-5.1229,-5.1229,-5.1229,-5.1229,-5.1229,-5.1229,-5.1229,-5.1229,-5.1229,-5.1498,-5.2127,-5.1289,-5.084,-5.1199,-4.9793,-4.8536,-4.7578,-4.7399,-4.7309,-4.7309,-4.7309,-4.7309,-4.7309,-4.7309,-4.7309,-4.7309,-4.7019,-4.7019,-4.7222,-4.6785,-4.6829,-4.7222,-4.6975,-4.68,-4.6609,-4.6609,-4.6343,-4.5895,-4.5895,-4.5895,-4.5895,-4.5895,-4.5895,-4.5808,-4.5285,-4.5111,-4.4995,-4.4385,-4.4211,-4.4066,-4.3398,-4.2905,-4.2469,-4.2179,-4.2092,-4.2092,-4.2092,-4.2092,-4.2092,-4.2092,-4.2092,-4.2092,-4.2092,-4.2092,-4.2092,-4.2092,-4.2092,-4.2092,-4.2092,0.0,0.0,0.0,-4.2092,-4.2092,-4.2092,-4.2092,-4.2092,-4.2092,-4.2092,-4.2175,-4.231,-4.231,-4.2392,-4.2555,-4.2607,-4.2648,-4.2688,-4.2614,-4.2742,-4.325,-4.329,-4.329,-4.329,-4.329,-4.329,-4.329,-4.329,-4.329,-4.329,-4.329,-4.329,-4.329,-4.329,-4.329,-4.329,-4.329,-4.329,-4.329,-4.329,-4.329,-4.323,-5.1229,-5.1229,-5.1229,-5.1229,-5.1229,-5.1229,-5.1229,-5.1229,-5.1229,-5.1229,-5.1229,-5.1229,-5.1229,-5.1229,-5.1498,-5.2127,-5.2127,-5.1828,-5.1259,-5.1079,-5.0182,-4.8297,-4.7638,-4.7309,-4.7309,-4.7309,-4.7309,-4.7309,-4.7309,-4.7309,-4.7309,-4.7019,-4.6931,-4.6931,-4.6712,-4.6712,-4.6931,-4.6931,-4.68,-4.6609,-4.6609,-4.6343,-4.5895,-4.5895,-4.5895,-4.5895,-4.5895,-4.5895,-4.5866,-4.5837,-4.5808,-4.5692,-4.5024,-4.4821,-4.4705,-4.4095,-4.3892,-4.3602,-4.2411,-4.2092,-4.2092,-4.2092,-4.2092,-4.2092,-4.2092,-4.2092,-4.2092,-4.2092,-4.2092,-4.2092,-4.2092,-4.2092,-4.2092,-4.2092,0.0,0.0,-4.2092,-4.2092,-4.2092,-4.2092,-4.2092,-4.2092,-4.2092,-4.2092,-4.2092,-4.2133,-4.2133,-4.2133,-4.2133,-4.231,-4.2514,-4.2688,-4.2871,-4.2991,-4.3021,-4.321,-4.329,-4.329,-4.329,-4.329,-4.329,-4.329,-4.329,-4.329,-4.329,-4.329,-4.329,-4.329,-4.329,-4.329,-4.329,-4.329,-4.329,-4.329,-4.329,-4.329,-5.1229,-5.1229,-5.1229,-5.1229,-5.1229,-5.1229,-5.1229,-5.1229,-5.1229,-5.1229,-5.1229,-5.1229,-5.1229,-5.1229,-5.1319,-5.1558,-5.1588,-5.1498,-5.1229,-5.0794,-4.9912,-4.8356,-4.7668,-4.7309,-4.7309,-4.7309,-4.7309,-4.7309,-4.7309,-4.7309,-4.7309,-4.6887,-4.68,-4.6887,-4.6358,-4.6358,-4.6712,-4.6535,-4.6447,-4.6358,-4.6358,-4.618,-4.5895,-4.5895,-4.5895,-4.5895,-4.5895,-4.5895,-4.5895,-4.5895,-4.5895,-4.5837,-4.5576,-4.5518,-4.5372,-4.4734,-4.4269,-4.3892,-4.3398,-4.2963,-4.2557,-4.2179,-4.2092,-4.2092,-4.2092,-4.2092,-4.2092,-4.2092,-4.2092,-4.2092,-4.2092,-4.2092,-4.2092,-4.2092,0.0,-4.2092,-4.2092,-4.2092,-4.2092,-4.2092,-4.2092,-4.2092,-4.2092,-4.2092,-4.2092,-4.2092,-4.2092,-4.2092,-4.2092,-4.2175,-4.2257,-4.231,-4.2514,-4.2688,-4.2809,-4.289,-4.301,-4.313,-4.313,-4.317,-4.329,-4.329,-4.329,-4.329,-4.329,-4.329,-4.329,-4.329,-4.329,-4.329,-4.329,-4.329,-4.329,-4.329,-4.329,-4.329,-5.1229,-5.1229,-5.1229,-5.1229,-5.1229,-5.1229,-5.1229,-5.1229,-5.1229,-5.1229,-5.1229,-5.1229,-5.1229,-5.1229,-5.1229,-5.1229,-5.1409,-5.1439,-5.1229,-5.0554,-4.9763,-4.8626,-4.7967,-4.7608,-4.7608,-4.7429,-4.7309,-4.7309,-4.7309,-4.7266,-4.7179,-4.6785,-4.6624,-4.6668,-4.6135,-4.609,-4.6447,-4.6269,-4.6225,-4.6225,-4.6225,-4.609,-4.5895,-4.5895,-4.5895,-4.5895,-4.5895,-4.5895,-4.5895,-4.5895,-4.5895,-4.5895,-4.5895,-4.5895,-4.5808,-4.5343,-4.4908,-4.4531,-4.4327,-4.395,-4.3456,-4.2847,-4.2528,-4.2382,-4.2382,-4.2237,-4.2092,-4.2092,-4.2092,-4.2092,-4.2092,-4.2092,-4.2092,-4.2092,-4.2092,-4.2092,-4.2092,-4.2092,-4.2092,-4.2092,-4.2092,-4.2092,-4.2092,-4.2092,-4.2092,-4.2092,-4.2092,-4.2092,-4.2092,-4.2092,-4.2092,-4.2092,-4.2257,-4.2351,-4.2514,-4.2648,-4.2769,-4.29,-4.2981,-4.3061,-4.321,-4.325,-4.325,-4.321,-4.325,-4.325,-4.321,-4.325,-4.329,-4.329,-4.329,-4.329,-4.329,-4.329,-4.329,-4.329,-5.1229,-5.1229,-5.1229,-5.1229,-5.1229,-5.1229,-5.1229,-5.1229,-5.1229,-5.1229,-5.1229,-5.1229,-5.1229,-5.1229,-5.1229,-5.1229,-5.1828,-5.1917,-5.1259,-5.0554,-4.9942,-4.9359,-4.87,-4.8297,-4.8297,-4.7638,-4.7309,-4.7309,-4.7309,-4.7149,-4.6931,-4.6712,-4.6447,-4.6225,-4.6001,-4.6001,-4.6225,-4.6225,-4.6225,-4.6225,-4.6225,-4.609,-4.5895,-4.5895,-4.5895,-4.5895,-4.5895,-4.5895,-4.5895,-4.5895,-4.5895,-4.5895,-4.5895,-4.5895,-4.5895,-4.5895,-4.5895,-4.575,-4.5082,-4.4908,-4.4763,-4.4153,-4.3485,-4.2992,-4.2992,-4.2528,-4.2121,-4.2121,-4.2092,-4.2092,-4.2092,-4.2092,-4.2092,-4.2092,-4.2092,-4.2092,-4.2092,-4.2092,-4.2092,-4.2092,-4.2092,-4.2092,-4.2092,-4.2092,-4.2092,-4.2092,-4.2092,-4.2092,-4.2092,-4.2092,-4.2092,-4.2092,-4.2092,-4.2092,-4.2092,-4.2514,-4.2688,-4.2688,-4.29,-4.2981,-4.2981,-4.321,-4.321,-4.3021,-4.321,-4.317,-4.3021,-4.321,-4.329,-4.329,-4.329,-4.329,-4.329,-4.329,-4.329,-4.329,-5.1229,-5.1229,-5.1229,-5.1229,-5.1229,-5.1229,-5.1229,-5.1229,-5.1229,-5.1229,-5.1229,-5.1229,-5.1229,-5.1229,-5.1229,-5.1229,-5.1409,-5.1439,-5.1229,-5.0973,-5.084,-5.0631,-4.9583,-4.903,-4.903,-4.8327,-4.7997,-4.7997,-4.7519,-4.7266,-4.7149,-4.6785,-4.6535,-4.6447,-4.6075,-4.594,-4.6001,-4.6001,-4.6001,-4.6001,-4.6001,-4.5956,-4.5895,-4.5895,-4.5895,-4.5895,-4.5895,-4.5895,-4.5895,-4.5895,-4.5895,-4.5895,-4.5895,-4.5895,-4.5895,-4.5895,-4.5895,-4.5837,-4.5634,-4.5576,-4.5314,-4.4269,-4.3834,-4.3689,-4.3689,-4.3195,-4.2731,-4.2731,-4.2382,-4.2092,-4.2092,-4.2092,-4.2092,-4.2092,-4.2092,-4.2092,-4.2092,-4.2092,-4.2092,-4.2092,-4.2092,-4.2092,-4.2092,-4.2092,-4.2092,-4.2092,-4.2092,-4.2092,-4.2092,-4.2092,-4.2092,-4.2092,-4.2092,-4.2092,-4.2092,-4.2216,-4.2351,-4.2514,-4.2555,-4.2648,-4.2809,-4.285,-4.285,-4.2809,-4.285,-4.293,-4.2981,-4.3061,-4.317,-4.329,-4.329,-4.329,-4.329,-4.329,-4.329,-4.329,-5.1058,-5.1058,-5.1058,-5.1058,-5.1058,-5.1058,-5.1182,-5.1229,-5.1229,-5.1229,-5.1229,-5.1229,-5.1229,-5.1229,-5.1182,-5.1058,-5.1058,-5.1058,-5.1182,-5.1229,-5.1229,-5.1229,-5.0359,-4.9775,-4.9536,-4.888,-4.8552,-4.8552,-4.7865,-4.7523,-4.7405,-4.6742,-4.6403,-4.6343,-4.603,-4.5895,-4.5895,-4.5895,-4.5895,-4.5895,-4.5895,-4.5895,-4.5895,-4.5895,-4.5895,-4.5895,-4.5895,-4.5895,-4.5895,-4.5895,-4.5895,-4.5895,-4.5895,-4.5895,-4.5895,-4.5895,-4.5895,-4.5895,-4.5895,-4.5895,-4.5692,-4.4937,-4.4531,-4.4356,-4.4356,-4.3863,-4.3398,-4.3398,-4.3108,-4.276,-4.2498,-4.244,-4.2382,-4.2121,-4.2092,-4.2092,-4.2092,-4.2092,-4.2092,-4.2092,-4.2092,-4.2092,-4.2092,-4.2092,-4.2092,-4.2092,-4.2092,-4.2092,-4.2092,-4.2092,-4.2092,-4.2092,-4.2092,-4.2092,-4.2092,-4.2092,-4.2175,-4.2269,-4.2351,-4.2474,-4.2566,-4.2648,-4.2648,-4.2566,-4.2648,-4.2729,-4.2769,-4.29,-4.3061,-4.321,-4.325,-4.329,-4.329,-4.329,-4.329,-4.329,-5.087,-5.0793,-5.0793,-5.0793,-5.0852,-5.1006,-5.1242,-5.1302,-5.1362,-5.1409,-5.1302,-5.1242,-5.1319,-5.1212,-5.1058,-5.0822,-5.0793,-5.0917,-5.1182,-5.1229,-5.1229,-5.1229,-5.0917,-5.0508,-4.9944,-4.9291,-4.8965,-4.8965,-4.8282,-4.7866,-4.7686,-4.674,-4.6178,-4.5998,-4.594,-4.5895,-4.5895,-4.5895,-4.5895,-4.5895,-4.5895,-4.5895,-4.5895,-4.5895,-4.5895,-4.5895,-4.5895,-4.5895,-4.5895,-4.5895,-4.5895,-4.5895,-4.5895,-4.5895,-4.5895,-4.5895,-4.5895,-4.5895,-4.5895,-4.5895,-4.5895,-4.5895,-4.543,-4.4966,-4.4966,-4.4501,-4.4066,-4.4066,-4.4037,-4.3805,-4.3195,-4.3079,-4.2905,-4.2353,-4.2266,-4.2266,-4.2266,-4.2208,-4.2179,-4.2179,-4.2121,-4.2092,-4.2092,-4.2092,-4.2092,-4.2092,-4.2092,-4.2092,-4.2092,-4.2092,-4.2092,-4.2092,-4.2092,-4.2092,-4.2092,-4.2092,-4.2092,-4.2092,-4.2298,-4.2351,-4.2392,-4.2566,-4.2555,-4.2392,-4.2596,-4.2555,-4.2433,-4.2809,-4.2941,-4.2981,-4.321,-4.325,-4.325,-4.325,-4.329,-4.329,-5.0911,-5.0793,-5.0793,-5.0793,-5.1238,-5.1643,-5.193,-5.2234,-5.2513,-5.2755,-5.2114,-5.1768,-5.193,-5.1309,-5.087,-5.0793,-5.0793,-5.0917,-5.1182,-5.1229,-5.1229,-5.1229,-5.0805,-5.0508,-5.0389,-4.971,-4.9385,-4.9385,-4.8706,-4.8365,-4.829,-4.7398,-4.6969,-4.6894,-4.6189,-4.5895,-4.5895,-4.5895,-4.5895,-4.5895,-4.5895,-4.5895,-4.5895,-4.5895,-4.5895,-4.5895,-4.5895,-4.5895,-4.5895,-4.5895,-4.5895,-4.5895,-4.5895,-4.5895,-4.5895,-4.5895,-4.5895,-4.5895,-4.5895,-4.5895,-4.5895,-4.5895,-4.5779,-4.5663,-4.5663,-4.5169,-4.4705,-4.4705,-4.4327,-4.395,-4.3805,-4.3776,-4.3747,-4.3602,-4.3573,-4.3573,-4.3573,-4.3137,-4.2789,-4.2789,-4.2382,-4.2092,-4.2092,-4.2092,-4.2092,-4.2092,-4.2092,-4.2092,-4.2092,-4.2092,-4.2092,-4.2092,-4.2092,-4.2092,-4.2092,-4.2092,-4.2092,-4.2092,-4.2133,-4.2175,-4.2175,-4.2216,-4.2216,-4.2175,-4.2216,-4.2269,-4.2392,-4.2514,-4.2607,-4.2809,-4.301,-4.3061,-4.3061,-4.3061,-4.317,-4.329,-5.1493,-5.1356,-5.1356,-5.1356,-5.1778,-5.2161,-5.2307,-5.2575,-5.2783,-5.2812,-5.2515,-5.2307,-5.2278,-5.1684,-5.1149,-5.0852,-5.0728,-5.0805,-5.1182,-5.1229,-5.1229,-5.1229,-5.0757,-5.0501,-5.0501,-4.9908,-4.9655,-4.978,-4.9104,-4.8781,-4.8781,-4.7904,-4.7474,-4.7474,-4.6986,-4.6621,-4.633,-4.633,-4.6156,-4.5895,-4.5895,-4.5895,-4.5895,-4.5895,-4.5895,-4.5895,-4.5895,-4.5895,-4.5895,-4.5895,-4.5895,-4.5895,-4.5895,-4.5895,-4.5895,-4.5895,-4.5895,-4.5895,-4.5895,-4.5895,-4.5895,-4.5895,-4.5895,-4.5895,-4.5895,-4.5605,-4.5372,-4.5372,-4.5111,-4.4792,-4.4472,-4.4414,-4.4327,-4.4037,-4.3979,-4.3979,-4.3979,-4.3689,-4.3456,-4.3456,-4.3195,-4.2876,-4.2557,-4.2266,-4.2092,-4.2092,-4.2092,-4.2092,-4.2092,-4.2092,-4.2092,-4.2092,-4.2092,-4.2092,-4.2092,-4.2092,-4.2092,-4.2092,-4.2092,-4.2092,-4.2092,-4.2092,-4.2092,-4.2092,-4.2092,-4.2175,-4.2228,-4.2351,-4.2474,-4.2566,-4.2769,-4.285,-4.285,-4.285,-4.293,-4.301,-5.2067,-5.1988,-5.1988,-5.1988,-5.2256,-5.2544,-5.2544,-5.2832,-5.2941,-5.2741,-5.2852,-5.2842,-5.2644,-5.2201,-5.1617,-5.0887,-5.0666,-5.0733,-5.1135,-5.1105,-5.1152,-5.1229,-5.0757,-5.0501,-5.0501,-4.999,-4.9815,-5.0038,-4.9483,-4.919,-4.919,-4.8341,-4.7927,-4.7927,-4.784,-4.7491,-4.6952,-4.6952,-4.6679,-4.6214,-4.6214,-4.6156,-4.604,-4.604,-4.5982,-4.5895,-4.5895,-4.5895,-4.5895,-4.5895,-4.5895,-4.5895,-4.5895,-4.5895,-4.5895,-4.5895,-4.5895,-4.5895,-4.5895,-4.5895,-4.5895,-4.5895,-4.5895,-4.5895,-4.5895,-4.5895,-4.5895,-4.5895,-4.5895,-4.5721,-4.5169,-4.5053,-4.4908,-4.4385,-4.4298,-4.4298,-4.4298,-4.4211,-4.4153,-4.4153,-4.4066,-4.3776,-4.3224,-4.2615,-4.2237,-4.2237,-4.215,-4.2092,-4.2092,-4.2092,-4.2092,-4.2092,-4.2092,-4.2092,-4.2092,-4.2092,-4.2092,-4.2092,-4.2092,-4.2092,-4.2092,-4.2092,-4.2092,-4.2092,-4.2092,-4.2092,-4.2092,-4.2269,-4.2351,-4.2351,-4.2566,-4.2648,-4.2648,-4.2688,-4.2688,-4.2688,-5.2105,-5.1988,-5.1988,-5.1988,-5.2536,-5.3018,-5.3221,-5.3561,-5.3811,-5.3987,-5.3647,-5.3393,-5.3594,-5.2832,-5.1984,-5.1062,-5.0955,-5.0915,-5.0852,-5.087,-5.0964,-5.1182,-5.0757,-5.0501,-5.0501,-4.999,-4.9717,-4.9717,-4.9679,-4.965,-4.9621,-4.8885,-4.8595,-4.8566,-4.8014,-4.7724,-4.7637,-4.7637,-4.7608,-4.7521,-4.7521,-4.7201,-4.6662,-4.6662,-4.6359,-4.5895,-4.5895,-4.5895,-4.5895,-4.5895,-4.5895,-4.5895,-4.5895,-4.5895,-4.5895,-4.5895,-4.5895,-4.5895,-4.5895,-4.5895,-4.5895,-4.5895,-4.5895,-4.5895,-4.5895,-4.5895,-4.5895,-4.5895,-4.5895,-4.5866,-4.5779,-4.575,-4.5721,-4.5634,-4.5634,-4.5634,-4.5634,-4.514,-4.4763,-4.4763,-4.4298,-4.395,-4.3863,-4.3253,-4.2876,-4.2876,-4.2382,-4.2092,-4.2092,-4.2092,-4.2092,-4.2092,-4.2092,-4.2092,-4.2092,-4.2092,-4.2092,-4.2092,-4.2092,-4.2092,-4.2092,-4.2092,-4.2092,-4.2092,-4.2092,-4.2092,-4.2092,-4.2133,-4.2133,-4.2175,-4.2351,-4.2433,-4.2474,-4.2607,-4.2566,-4.2474,-5.2872,-5.2814,-5.2814,-5.2814,-5.3201,-5.3509,-5.3458,-5.3743,-5.3919,-5.3867,-5.3759,-5.3664,-5.3664,-5.2975,-5.223,-5.1637,-5.1578,-5.1434,-5.1147,-5.1117,-5.1017,-5.0834,-5.0471,-5.0279,-5.0279,-4.9892,-4.9717,-4.9717,-4.9717,-4.9717,-4.9717,-4.9378,-4.9262,-4.9233,-4.8972,-4.8624,-4.8304,-4.8304,-4.8101,-4.7782,-4.7782,-4.7608,-4.7375,-4.7375,-4.7172,-4.694,-4.694,-4.6708,-4.6417,-4.6417,-4.6185,-4.5895,-4.5895,-4.5895,-4.5895,-4.5895,-4.5895,-4.5895,-4.5895,-4.5895,-4.5895,-4.5895,-4.5895,-4.5895,-4.5895,-4.5895,-4.5895,-4.5895,-4.5895,-4.5895,-4.5895,-4.5895,-4.5895,-4.5895,-4.5895,-4.5895,-4.5895,-4.5634,-4.543,-4.543,-4.4879,-4.4501,-4.4501,-4.3921,-4.3544,-4.3544,-4.2963,-4.2586,-4.2586,-4.2266,-4.2092,-4.2092,-4.2092,-4.2092,-4.2092,-4.2092,-4.2092,-4.2092,-4.2092,-4.2092,-4.2092,-4.2092,-4.2092,-4.2092,-4.2092,-4.2092,-4.2092,-4.2092,-4.2092,-4.2092,-4.2216,-4.2257,-4.2257,-4.231,-4.231,-4.2257]},{"header":{"parameterUnit":"m.s-1","parameterCategory":1,"la1":30.6,"la2":28.766,"lo1":-90.7593,"lo2":-88.6598,"dy":0.0162,"dx":0.0183,"nx":116,"ny":114,"refTime":"2024-04-29T12:00:00:Z","depth":0,"parameterNumber":3,"parameterNumberName":"V-component_of_WINDS"},"data":[0.0,0.0,0.0,0.0,0.0,0.0,0.0,0.0,0.0,0.0,0.0,0.0,0.0,0.0,0.0,0.0,0.0,0.0,0.0,0.0,0.0,0.0,0.0,0.0,0.0,0.0,0.0,0.0,0.0,0.0,0.0,0.0,0.0,0.0,0.0,0.0,0.0,0.0,0.0,0.0,0.0,0.0,0.0,0.0,0.0,0.0,0.0,0.0,0.0,0.0,0.0,0.0,0.0,0.0,0.0,0.0,0.0,0.0,0.0,0.0,0.0,0.0,0.0,0.0,0.0,0.0,0.0,0.0,0.0,0.0,0.0,0.0,0.0,0.0,0.0,0.0,0.0,0.0,0.0,0.0,0.0,0.0,0.0,0.0,0.0,0.0,0.0,0.0,0.0,0.0,0.0,0.0,0.0,0.0,0.0,0.0,0.0,0.0,0.0,0.0,0.0,0.0,0.0,0.0,0.0,0.0,0.0,0.0,0.0,0.0,0.0,0.0,0.0,0.0,0.0,0.0,0.0,0.0,0.0,0.0,0.0,0.0,0.0,0.0,0.0,0.0,0.0,0.0,0.0,0.0,0.0,0.0,0.0,0.0,0.0,0.0,0.0,0.0,0.0,0.0,0.0,0.0,0.0,0.0,0.0,0.0,0.0,0.0,0.0,0.0,0.0,0.0,0.0,0.0,0.0,0.0,0.0,0.0,0.0,0.0,0.0,0.0,0.0,0.0,0.0,0.0,0.0,0.0,0.0,0.0,0.0,0.0,0.0,0.0,0.0,0.0,0.0,0.0,0.0,0.0,0.0,0.0,0.0,0.0,0.0,0.0,0.0,0.0,0.0,0.0,0.0,0.0,0.0,0.0,0.0,0.0,0.0,0.0,0.0,0.0,0.0,0.0,0.0,0.0,0.0,0.0,0.0,0.0,0.0,0.0,0.0,0.0,0.0,0.0,0.0,0.0,0.0,0.0,0.0,0.0,0.0,0.0,0.0,0.0,0.0,0.0,0.0,0.0,0.0,0.0,0.0,0.0,0.0,0.0,0.0,0.0,0.0,0.0,0.0,0.0,0.0,0.0,0.0,0.0,0.0,0.0,0.0,0.0,0.0,0.0,0.0,0.0,0.0,0.0,0.0,0.0,0.0,0.0,0.0,0.0,0.0,0.0,0.0,0.0,0.0,0.0,0.0,0.0,0.0,0.0,0.0,0.0,0.0,0.0,0.0,0.0,0.0,0.0,0.0,0.0,0.0,0.0,0.0,0.0,0.0,0.0,0.0,0.0,0.0,0.0,0.0,0.0,0.0,0.0,0.0,0.0,0.0,0.0,0.0,0.0,0.0,0.0,0.0,0.0,0.0,0.0,0.0,0.0,0.0,0.0,0.0,0.0,0.0,0.0,0.0,0.0,0.0,0.0,0.0,0.0,0.0,0.0,0.0,0.0,0.0,0.0,0.0,0.0,0.0,0.0,0.0,0.0,0.0,0.0,0.0,0.0,0.0,0.0,0.0,0.0,0.0,0.0,0.0,0.0,0.0,0.0,0.0,0.0,0.0,0.0,0.0,0.0,0.0,0.0,0.0,0.0,0.0,0.0,0.0,0.0,0.0,0.0,0.0,0.0,0.0,0.0,0.0,0.0,0.0,0.0,0.0,0.0,0.0,0.0,0.0,0.0,0.0,0.0,0.0,0.0,0.0,0.0,0.0,0.0,0.0,0.0,0.0,0.0,0.0,0.0,0.0,0.0,0.0,0.0,0.0,0.0,0.0,0.0,0.0,0.0,0.0,0.0,0.0,0.0,0.0,0.0,0.0,0.0,0.0,0.0,0.0,0.0,0.0,0.0,0.0,0.0,0.0,0.0,0.0,0.0,0.0,0.0,0.0,0.0,0.0,0.0,0.0,0.0,0.0,0.0,0.0,0.0,0.0,0.0,0.0,0.0,0.0,0.0,0.0,0.0,0.0,0.0,0.0,0.0,0.0,0.0,0.0,0.0,0.0,0.0,0.0,0.0,0.0,0.0,0.0,0.0,0.0,0.0,0.0,0.0,0.0,0.0,0.0,0.0,0.0,0.0,0.0,0.0,0.0,0.0,0.0,0.0,0.0,0.0,0.0,0.0,0.0,0.0,0.0,0.0,0.0,0.0,0.0,0.0,0.0,0.0,0.0,0.0,0.0,0.0,0.0,0.0,0.0,0.0,0.0,0.0,0.0,0.0,0.0,0.0,0.0,0.0,0.0,0.0,0.0,0.0,0.0,0.0,0.0,0.0,0.0,0.0,0.0,0.0,0.0,0.0,0.0,0.0,0.0,0.0,0.0,0.0,0.0,0.0,0.0,0.0,0.0,0.0,0.0,0.0,0.0,0.0,0.0,0.0,0.0,0.0,0.0,0.0,0.0,0.0,0.0,0.0,0.0,0.0,0.0,0.0,0.0,0.0,0.0,0.0,0.0,0.0,0.0,0.0,0.0,0.0,0.0,0.0,0.0,0.0,0.0,0.0,0.0,0.0,0.0,0.0,0.0,0.0,0.0,0.0,0.0,0.0,0.0,0.0,0.0,0.0,0.0,0.0,0.0,0.0,0.0,0.0,0.0,0.0,0.0,0.0,0.0,0.0,0.0,0.0,0.0,0.0,0.0,0.0,0.0,0.0,0.0,0.0,0.0,0.0,0.0,0.0,0.0,0.0,0.0,0.0,0.0,0.0,0.0,0.0,0.0,0.0,0.0,0.0,0.0,0.0,0.0,0.0,0.0,0.0,0.0,0.0,0.0,0.0,0.0,0.0,0.0,0.0,0.0,0.0,0.0,0.0,0.0,0.0,0.0,0.0,0.0,0.0,0.0,0.0,0.0,0.0,0.0,0.0,0.0,0.0,0.0,0.0,0.0,0.0,0.0,0.0,0.0,0.0,0.0,0.0,0.0,0.0,0.0,0.0,0.0,0.0,0.0,0.0,0.0,0.0,0.0,0.0,0.0,0.0,0.0,0.0,0.0,0.0,0.0,0.0,0.0,0.0,0.0,0.0,0.0,0.0,0.0,0.0,0.0,0.0,0.0,0.0,0.0,0.0,0.0,0.0,0.0,0.0,0.0,0.0,0.0,0.0,0.0,0.0,0.0,0.0,0.0,0.0,0.0,0.0,0.0,0.0,0.0,0.0,0.0,0.0,0.0,0.0,0.0,0.0,0.0,0.0,0.0,0.0,0.0,0.0,0.0,0.0,0.0,0.0,0.0,0.0,0.0,0.0,0.0,0.0,0.0,0.0,0.0,0.0,0.0,0.0,0.0,0.0,0.0,0.0,0.0,0.0,0.0,0.0,0.0,0.0,0.0,0.0,0.0,0.0,0.0,0.0,0.0,0.0,0.0,0.0,0.0,0.0,0.0,0.0,0.0,0.0,0.0,0.0,0.0,0.0,0.0,0.0,0.0,0.0,0.0,0.0,0.0,0.0,0.0,0.0,0.0,0.0,0.0,0.0,0.0,0.0,0.0,0.0,0.0,0.0,0.0,0.0,0.0,0.0,0.0,0.0,0.0,0.0,0.0,0.0,0.0,0.0,0.0,0.0,0.0,0.0,0.0,0.0,0.0,0.0,0.0,0.0,0.0,0.0,0.0,0.0,0.0,0.0,0.0,0.0,0.0,0.0,0.0,0.0,0.0,0.0,0.0,0.0,0.0,0.0,0.0,0.0,0.0,0.0,0.0,0.0,0.0,0.0,0.0,0.0,0.0,0.0,0.0,0.0,0.0,0.0,0.0,0.0,0.0,0.0,0.0,0.0,0.0,0.0,0.0,0.0,0.0,0.0,0.0,0.0,0.0,0.0,0.0,0.0,0.0,0.0,0.0,0.0,0.0,0.0,0.0,0.0,0.0,0.0,0.0,0.0,0.0,0.0,0.0,0.0,0.0,0.0,0.0,0.0,0.0,0.0,0.0,0.0,0.0,0.0,0.0,0.0,0.0,0.0,0.0,0.0,0.0,0.0,0.0,0.0,0.0,0.0,0.0,0.0,0.0,0.0,0.0,0.0,0.0,0.0,0.0,0.0,0.0,0.0,0.0,0.0,0.0,0.0,0.0,0.0,0.0,0.0,0.0,0.0,0.0,0.0,0.0,0.0,0.0,0.0,0.0,0.0,0.0,0.0,0.0,0.0,0.0,0.0,0.0,0.0,0.0,0.0,0.0,0.0,0.0,0.0,0.0,0.0,0.0,0.0,0.0,0.0,0.0,0.0,0.0,0.0,0.0,0.0,0.0,0.0,0.0,0.0,0.0,0.0,0.0,0.0,0.0,0.0,0.0,0.0,0.0,0.0,0.0,0.0,0.0,0.0,0.0,0.0,0.0,0.0,0.0,0.0,0.0,0.0,0.0,0.0,0.0,0.0,0.0,0.0,0.0,0.0,0.0,0.0,0.0,0.0,0.0,0.0,0.0,0.0,0.0,0.0,0.0,0.0,0.0,0.0,0.0,0.0,0.0,0.0,0.0,0.0,0.0,0.0,0.0,0.0,0.0,0.0,0.0,0.0,0.0,0.0,0.0,0.0,0.0,0.0,0.0,0.0,0.0,0.0,0.0,0.0,0.0,0.0,0.0,0.0,0.0,0.0,0.0,0.0,0.0,0.0,0.0,0.0,0.0,0.0,0.0,0.0,0.0,0.0,0.0,0.0,0.0,0.0,0.0,0.0,0.0,0.0,0.0,0.0,0.0,0.0,0.0,0.0,0.0,0.0,0.0,0.0,0.0,0.0,0.0,0.0,0.0,0.0,0.0,0.0,0.0,0.0,0.0,0.0,0.0,0.0,0.0,0.0,0.0,0.0,0.0,0.0,0.0,0.0,0.0,0.0,0.0,0.0,0.0,0.0,0.0,0.0,0.0,0.0,0.0,0.0,0.0,0.0,0.0,0.0,0.0,0.0,0.0,0.0,0.0,0.0,0.0,0.0,0.0,0.0,0.0,0.0,0.0,0.0,0.0,0.0,0.0,0.0,0.0,0.0,0.0,0.0,0.0,0.0,0.0,0.0,0.0,0.0,0.0,0.0,0.0,0.0,0.0,0.0,0.0,0.0,0.0,0.0,0.0,0.0,0.0,0.0,0.0,0.0,0.0,0.0,0.0,0.0,0.0,0.0,0.0,0.0,0.0,0.0,0.0,0.0,0.0,0.0,0.0,0.0,0.0,0.0,0.0,0.0,0.0,0.0,0.0,0.0,0.0,0.0,0.0,0.0,0.0,0.0,0.0,0.0,0.0,0.0,0.0,0.0,0.0,0.0,0.0,0.0,0.0,0.0,0.0,0.0,0.0,0.0,0.0,0.0,0.0,0.0,0.0,0.0,0.0,0.0,0.0,0.0,0.0,0.0,0.0,0.0,0.0,0.0,0.0,0.0,0.0,0.0,0.0,0.0,0.0,0.0,0.0,0.0,0.0,0.0,0.0,0.0,0.0,0.0,0.0,0.0,0.0,0.0,0.0,0.0,0.0,0.0,0.0,0.0,0.0,0.0,0.0,0.0,0.0,0.0,0.0,0.0,0.0,0.0,0.0,0.0,0.0,0.0,0.0,0.0,0.0,0.0,0.0,0.0,0.0,0.0,0.0,0.0,0.0,0.0,0.0,0.0,0.0,0.0,0.0,0.0,0.0,0.0,0.0,0.0,0.0,0.0,0.0,0.0,0.0,0.0,0.0,0.0,0.0,0.0,0.0,0.0,0.0,0.0,0.0,0.0,0.0,0.0,0.0,0.0,0.0,0.0,0.0,0.0,0.0,0.0,0.0,0.0,0.0,0.0,0.0,0.0,0.0,0.0,0.0,0.0,0.0,0.0,0.0,0.0,0.0,0.0,0.0,0.0,0.0,0.0,0.0,0.0,0.0,0.0,0.0,0.0,0.0,0.0,0.0,0.0,0.0,0.0,0.0,0.0,0.0,0.0,0.0,0.0,0.0,0.0,0.0,0.0,0.0,0.0,0.0,0.0,0.0,0.0,0.0,0.0,0.0,0.0,0.0,0.0,0.0,0.0,0.0,0.0,0.0,0.0,0.0,0.0,0.0,0.0,0.0,0.0,0.0,0.0,0.0,0.0,0.0,0.0,0.0,0.0,0.0,0.0,0.0,0.0,0.0,0.0,0.0,0.0,0.9891,0.0,0.0,0.0,0.0,0.0,0.0,0.0,0.0,0.0,0.0,0.0,0.0,0.0,0.0,0.0,0.0,0.0,0.0,0.0,0.0,0.0,0.0,0.0,0.0,1.9173,1.9173,1.8929,1.9089,1.9189,1.9231,0.0,0.0,0.0,0.0,0.0,1.9624,1.9515,1.9406,1.9297,1.9297,1.918,1.8945,1.873,1.8398,1.8008,0.0,0.0,0.0,0.0,0.0,0.0,0.0,0.0,0.0,0.0,0.0,0.0,0.0,0.0,0.0,0.0,0.0,0.0,0.0,0.0,0.0,0.0,0.0,0.0,0.0,0.0,0.0,0.0,0.0,0.0,0.0,0.0,0.0,0.0,0.0,0.0,0.0,0.0,0.0,0.0,0.0,0.0,0.0,0.0,0.0,0.0,0.0,0.0,0.0,0.0,0.0,0.0,0.0,0.0,0.0,0.0,0.0,0.0,0.0,0.0,0.0,0.0,0.0,0.0,0.0,0.0,0.0,0.0,0.0,0.0,0.0,1.0055,0.0,0.0,0.0,0.0,0.0,0.0,0.0,0.0,0.0,0.0,0.0,0.0,0.0,0.0,0.0,0.0,0.0,0.0,0.0,0.0,0.0,2.0073,1.9877,1.9985,1.9929,1.964,1.9733,1.9736,1.9468,1.9468,0.0,0.0,1.9585,1.9585,1.9585,1.9549,1.9549,1.9549,1.9434,1.9321,1.9174,1.9097,1.862,1.7773,1.8007,0.0,0.0,0.0,0.0,0.0,0.0,0.0,0.0,0.0,0.0,0.0,0.0,0.0,0.0,0.0,0.0,0.0,0.0,0.0,0.0,0.0,0.0,0.0,0.0,0.0,0.0,0.0,0.0,0.0,0.0,0.0,0.0,0.0,0.0,0.0,0.0,0.0,0.0,0.0,0.0,0.0,0.0,0.0,0.0,0.0,0.0,0.0,0.0,0.0,0.0,0.0,0.0,0.0,0.0,0.0,0.0,0.0,0.0,0.0,0.0,0.0,0.0,0.0,1.132,1.1143,1.093,1.0753,1.061,1.0575,1.0575,1.0466,1.0298,0.0,0.0,0.0,0.0,0.0,0.0,0.0,0.0,0.0,0.0,0.0,0.0,0.0,0.0,0.0,0.0,0.0,0.0,0.0,0.0,2.0181,1.9677,1.9805,1.9841,1.9604,1.9624,1.9746,2.0066,2.0255,2.0509,2.0928,2.0776,2.0699,2.0699,2.0526,2.0429,2.0429,2.0019,1.9448,1.8672,1.8303,1.7712,1.69,1.8035,1.8168,1.7563,0.0,0.0,0.0,0.0,0.0,0.0,0.0,0.0,0.0,0.0,0.0,0.0,0.0,0.0,0.0,0.0,0.0,0.0,0.0,0.0,0.0,0.0,0.0,0.0,0.0,0.0,0.0,0.0,0.0,0.0,0.0,0.0,0.0,0.0,0.0,0.0,0.0,0.0,0.0,0.0,0.0,1.2153,1.2303,0.0,0.0,0.0,0.0,0.0,0.0,0.0,0.0,0.0,0.0,0.0,0.0,0.0,1.2744,1.2973,1.2973,1.2934,1.2934,1.2739,1.2544,1.2349,1.2114,1.1917,1.167,1.167,0.0,1.0298,1.0298,0.0,0.0,0.0,0.0,0.0,0.0,0.0,0.0,0.0,0.0,0.0,0.0,0.0,0.0,0.0,0.0,0.0,0.0,0.0,0.0,0.0,2.0472,2.0454,2.0321,2.0434,2.0534,2.0579,2.0695,2.0813,2.1012,2.0858,2.0741,2.0741,2.0644,2.0372,1.9844,1.9674,1.9095,1.8272,1.8078,1.7813,1.7461,1.7772,1.7879,1.7807,1.7948,0.0,0.0,0.0,0.0,0.0,0.0,0.0,0.0,0.0,0.0,0.0,0.0,0.0,0.0,0.0,0.0,0.0,0.0,0.0,0.0,0.0,0.0,0.0,0.0,0.0,0.0,0.0,0.0,0.0,0.0,0.0,0.0,0.0,0.0,0.0,0.0,0.0,0.0,0.0,1.2024,1.2158,1.2291,1.2305,1.2305,0.0,0.0,0.0,0.0,0.0,0.0,0.0,0.0,0.0,1.2999,1.3013,1.3066,1.3213,1.3213,1.3134,1.3015,1.2936,1.2724,1.2418,1.2338,1.2166,1.1886,1.1886,1.1621,1.1188,1.1188,1.1104,1.0948,0.0,0.0,0.0,0.0,1.0367,1.0437,0.0,0.0,0.0,0.0,0.0,0.0,0.0,0.0,0.0,0.0,0.0,0.0,2.1282,2.1051,2.0916,2.0974,2.1051,2.1051,2.0819,2.0858,2.0877,2.0819,2.0683,2.0605,2.0605,2.0372,1.9844,1.8975,1.9173,1.8856,1.7997,1.8238,1.8198,1.798,1.7666,1.7557,1.7572,1.7616,1.7915,1.8378,0.0,0.0,0.0,0.0,0.0,0.0,0.0,0.0,0.0,0.0,0.0,0.0,0.0,0.0,0.0,0.0,0.0,0.0,0.0,0.0,0.0,0.0,0.0,0.0,0.0,0.0,0.0,0.0,0.0,0.0,0.0,0.0,0.0,0.0,0.0,0.0,0.0,1.2305,1.2331,1.2412,1.2412,1.2438,0.0,0.0,0.0,0.0,0.0,0.0,1.32,1.3213,1.324,1.332,1.34,1.3467,1.3547,1.3627,1.3572,1.3449,1.3449,1.3244,1.2874,1.2874,1.2737,1.249,1.249,1.2453,1.2367,1.2051,1.1805,1.169,1.1484,1.1315,1.1156,1.0961,1.0923,1.0959,0.0,0.0,0.0,0.0,0.0,0.0,0.0,0.0,0.0,0.0,0.0,2.1474,2.1474,2.1128,2.0994,2.1167,2.1012,2.0819,2.0644,2.078,2.0819,2.0605,2.0605,2.0605,2.0605,1.9784,1.8935,1.8078,1.8895,1.8856,1.8037,1.8856,1.8816,1.7997,1.798,1.7359,1.6324,1.6639,1.6392,1.5841,1.6543,0.0,0.0,0.0,0.0,0.0,0.0,0.0,0.0,0.0,0.0,0.0,0.0,0.0,0.0,0.0,0.0,0.0,0.0,0.0,0.0,0.0,0.0,0.0,0.0,0.0,0.0,0.0,0.0,0.0,0.0,0.0,0.0,0.0,0.0,0.0,0.0,0.0,0.0,1.273,1.2757,0.0,0.0,0.0,0.0,1.3186,1.3186,1.32,1.3213,1.3213,1.3333,1.3573,1.3895,1.4175,1.4456,1.4736,1.4914,1.487,1.487,1.4736,1.4455,1.4455,1.4366,1.4187,1.4187,1.3989,1.3597,1.2392,1.2034,1.2273,1.2261,1.2355,1.2501,1.2489,1.2607,1.2726,0.0,0.0,0.0,2.3261,2.3001,2.2703,2.1759,2.1741,2.1703,2.1359,2.1436,2.1397,2.1128,2.1089,2.1012,2.0838,2.0974,2.1012,2.0819,2.0858,2.0858,2.0819,2.0644,2.0605,2.0605,2.0294,1.9556,1.8401,1.9261,1.8765,1.7041,1.7913,1.7718,1.6645,1.6645,1.6609,1.6589,1.7259,1.7406,1.7169,1.7446,1.7525,0.0,0.0,0.0,0.0,0.0,0.0,0.0,0.0,0.0,0.0,0.0,0.0,0.0,0.0,0.0,0.0,0.0,0.0,0.0,0.0,0.0,0.0,0.0,0.0,0.0,0.0,0.0,0.0,0.0,0.0,0.0,0.0,0.0,0.0,0.0,0.0,0.0,1.3026,1.3053,0.0,1.32,1.3213,1.328,1.3427,1.3453,1.3613,1.4028,1.4055,1.4188,1.4482,1.4633,1.474,1.4803,1.4955,1.5008,1.5008,1.5008,1.4874,1.4591,1.4591,1.4501,1.4321,1.4321,1.4212,1.4097,1.3629,1.3146,1.2751,1.2751,1.2609,1.2406,1.2406,1.2326,1.2246,0.0,2.53,0.0,2.3261,2.3001,2.2665,2.1721,2.1703,2.1683,2.1436,2.1474,2.1436,2.1244,2.1128,2.1012,2.0799,2.0974,2.1012,2.0819,2.0858,2.0858,2.0819,2.0644,2.0372,1.9927,2.01,1.9439,1.7896,1.8904,1.8576,1.6938,1.8124,1.8051,1.6958,1.7301,1.7223,1.6915,1.7491,1.767,1.7553,1.7229,1.7123,1.7123,0.0,0.0,0.0,0.0,0.0,0.0,0.0,0.0,0.0,0.0,0.0,0.0,0.0,0.0,0.0,0.0,0.0,0.0,0.0,0.0,0.0,0.0,0.0,0.0,0.0,0.0,0.0,0.0,0.0,0.0,0.0,0.0,0.0,0.0,0.0,1.324,1.3307,1.332,1.34,1.3627,1.3654,1.3774,1.4068,1.4082,1.4255,1.4656,1.4669,1.4763,1.4995,1.5102,1.511,1.511,1.5204,1.5257,1.5257,1.5257,1.5166,1.5015,1.5015,1.4924,1.4832,1.4832,1.4734,1.4689,1.4689,1.4255,1.3659,1.3574,1.3365,1.3026,1.3026,1.2893,1.26,0.0,2.5335,2.4838,2.3276,2.3038,2.2777,2.1911,2.1797,2.1797,2.1797,2.1627,2.1589,2.1759,2.1282,2.0974,2.1167,2.1012,2.0819,2.0605,2.078,2.0819,2.0605,2.0586,1.9966,1.8704,1.907,1.8416,1.6632,1.7954,1.8321,1.7834,1.9614,1.9929,1.9016,1.9954,1.9175,1.7196,1.7239,1.7032,1.6632,1.5756,1.5423,1.5423,0.0,0.0,0.0,0.0,0.0,0.0,0.0,0.0,0.0,0.0,0.0,0.0,0.0,0.0,0.0,0.0,0.0,0.0,0.0,0.0,0.0,0.0,0.0,0.0,0.0,0.0,0.0,0.0,0.0,0.0,0.0,0.0,0.0,1.332,1.3253,1.336,1.36,1.364,1.3866,1.4482,1.4536,1.4656,1.4981,1.5008,1.5008,1.5022,1.5035,1.5048,1.5062,1.5297,1.5458,1.5471,1.5738,1.5838,1.5838,1.5872,1.5824,1.5824,1.5798,1.5798,1.5798,1.5784,1.5671,1.5404,1.5404,1.5244,1.499,1.4739,1.4555,1.4492,1.4492,1.4349,1.401,2.6198,2.6164,2.5652,2.4095,2.3804,2.3327,2.1987,2.1797,2.1759,2.1627,2.1645,2.1589,2.1167,2.1397,2.1359,2.0799,2.0974,2.1012,2.0819,2.0741,2.0644,2.0605,2.0254,2.0217,2.0464,1.9622,1.9381,1.9894,2.0219,2.0114,1.9699,2.0829,2.0325,1.8527,1.9521,1.9056,1.7545,1.7419,1.7259,1.698,1.5845,1.5782,1.6263,0.0,0.0,0.0,0.0,0.0,0.0,0.0,0.0,0.0,0.0,0.0,0.0,0.0,0.0,0.0,0.0,0.0,0.0,0.0,0.0,0.0,0.0,0.0,0.0,0.0,0.0,0.0,0.0,0.0,0.0,0.0,1.428,1.4028,1.3868,1.4028,1.4188,1.4226,1.4469,1.4669,1.4874,1.4843,1.4914,1.4995,1.5008,1.5102,1.5271,1.5471,1.5778,1.6206,1.6563,1.6817,1.6981,1.7061,1.7101,1.7101,1.6887,1.6831,1.6817,1.6339,1.6152,1.6139,1.5925,1.5778,1.5712,1.5712,1.5658,1.5551,1.5078,1.4776,1.4563,1.4563,1.4291,1.387,2.6499,2.6233,2.5581,2.4325,2.3841,2.3217,2.1987,2.1797,2.178,2.1665,2.1741,2.1665,2.132,2.1436,2.1359,2.0876,2.0915,2.0896,2.078,2.0644,2.0527,2.0331,2.041,2.0489,2.0644,2.0381,2.0485,2.0873,2.1009,2.0855,2.0349,2.1254,2.0748,1.9154,2.0137,1.9621,1.7954,1.7834,1.775,1.7627,1.6193,1.5834,1.6139,1.5989,1.5699,1.5382,1.5382,1.5382,1.5382,1.5382,0.0,0.0,0.0,0.0,0.0,0.0,0.0,0.0,0.0,0.0,0.0,0.0,0.0,0.0,0.0,0.0,0.0,0.0,0.0,0.0,0.0,0.0,0.0,0.0,1.4482,1.4309,1.4486,1.4496,1.4563,1.4696,1.4856,1.5062,1.5182,1.541,1.5611,1.5685,1.5973,1.6187,1.6299,1.6353,1.654,1.6874,1.6941,1.7048,1.7208,1.7208,1.7208,1.7208,1.7048,1.7018,1.7005,1.6607,1.646,0.0,1.6273,1.6126,1.6019,1.6019,1.5939,0.0,0.0,0.0,0.0,0.0,1.4487,1.4166,2.6499,2.5921,2.5158,2.4253,2.3548,2.2815,2.1949,2.1797,2.1797,2.1797,2.1797,2.1797,2.1759,2.1474,2.1205,2.1167,2.0858,2.0605,2.0605,2.0605,2.0429,2.0,2.0742,2.08,2.0156,2.1168,2.1415,2.0716,2.1041,2.0951,2.0557,2.1427,2.132,2.0421,2.1427,2.0588,1.8543,1.8584,1.8562,1.8347,1.6819,1.6055,1.5865,1.6386,1.6139,1.5548,1.5423,1.5382,1.5382,1.5382,0.0,0.0,0.0,0.0,0.0,0.0,0.0,0.0,0.0,0.0,0.0,0.0,0.0,0.0,0.0,0.0,0.0,0.0,0.0,0.0,0.0,0.0,0.0,0.0,1.4723,1.4669,1.5022,1.4816,1.4763,1.503,1.5169,1.5316,1.5565,1.6107,1.6473,1.674,1.7208,1.7488,1.7488,0.0,0.0,0.0,0.0,1.6874,1.6901,1.6901,1.6901,1.6901,1.6874,1.686,1.6847,1.678,1.6754,1.6754,1.6727,1.6553,1.6375,1.6375,1.6152,1.5824,1.5798,1.5671,1.5418,1.5196,1.4895,1.4688,2.6499,2.6371,2.5791,2.4325,2.3986,2.3438,2.2025,2.1797,2.1797,2.1797,2.1797,2.1721,2.1589,2.1512,2.132,2.0974,2.0896,2.078,2.0605,2.0741,2.0741,2.0488,2.0644,2.0997,2.1484,2.0976,2.1301,2.2587,2.1901,2.1931,2.2555,2.2731,2.2334,2.1472,2.2403,2.1684,1.9878,2.043,1.9765,1.8326,1.8169,1.8258,1.8336,1.6402,1.5989,1.6386,1.5658,1.5382,1.5382,1.5382,1.5382,1.5382,1.5382,1.5382,0.0,0.0,0.0,0.0,0.0,0.0,0.0,0.0,0.0,0.0,0.0,0.0,0.0,0.0,0.0,0.0,0.0,0.0,0.0,1.4913,1.4899,1.4977,1.5271,1.5458,1.5545,1.5658,1.6086,1.6486,1.6831,1.6965,1.7058,1.7112,1.6954,1.6874,1.6874,1.7099,1.7313,1.7541,1.7689,1.7903,1.8143,1.8143,1.8143,1.8143,0.0,0.0,1.7716,1.7288,1.7112,1.7099,1.6807,1.6673,1.662,1.662,1.6446,1.6166,1.5925,1.5792,1.5738,1.5685,1.5465,1.5265,2.6499,2.6164,2.5652,2.485,2.4059,2.3313,2.2515,2.2063,2.1797,2.1797,2.1797,2.178,2.1645,2.155,2.1436,2.1205,2.1012,2.0819,2.0605,2.0683,2.0604,2.0254,2.0879,2.1328,2.1562,2.1706,2.2179,2.3101,2.2643,2.2643,2.3101,2.3101,2.2862,2.2422,2.2906,2.2315,2.0944,2.1298,2.0791,1.9641,1.9059,1.9153,1.9407,1.7433,1.6427,1.6057,1.6057,1.5782,1.5382,1.5382,1.5382,1.5382,1.5382,1.5382,1.5382,0.0,0.0,0.0,0.0,0.0,0.0,0.0,0.0,0.0,0.0,0.0,0.0,0.0,0.0,1.5587,1.5375,0.0,1.5453,1.5353,1.5399,1.5498,1.5792,1.6219,1.6433,1.6286,1.6526,1.682,1.7166,1.7326,1.742,1.742,1.7515,1.7595,1.7595,1.7595,1.7662,1.7809,1.7809,1.7889,1.8036,1.8036,1.8036,1.8036,1.7889,1.7809,1.7809,1.7502,1.742,1.7407,1.7208,1.7061,1.6914,1.6767,1.662,1.6473,1.6326,1.6086,1.5784,1.5784,1.5738,1.5618,2.6499,2.599,2.5476,2.5335,2.4154,2.3165,2.3038,2.2327,2.1797,2.1797,2.1797,2.1797,2.1797,2.1627,2.1474,2.1397,2.1089,2.0819,2.0605,2.0605,2.0449,2.0059,2.123,2.1719,2.1327,2.2477,2.3101,2.3101,2.3101,2.3101,2.3101,2.3101,2.3101,2.3101,2.3101,2.2687,2.1961,2.1961,2.1688,2.1094,1.9858,1.953,1.9624,1.8452,1.7025,1.5699,1.6263,1.5989,1.5382,1.5382,1.5382,1.5382,1.5382,1.5382,1.5382,1.5382,1.5382,0.0,0.0,0.0,0.0,0.0,0.0,0.0,0.0,1.5382,1.5411,1.5469,1.5688,1.5849,1.5648,1.5729,1.5743,1.5732,1.5839,1.6019,1.6313,1.6857,1.7152,1.6981,1.6967,1.7061,1.7353,1.7528,1.7675,1.7675,1.8076,1.8317,1.8317,1.809,1.7902,1.7902,1.7716,1.7582,1.7582,1.7582,1.7582,1.7582,1.7582,1.7582,1.7582,1.7582,1.7582,1.7582,1.7582,1.7501,1.7259,1.6967,1.6847,1.6794,1.6794,1.6473,1.5992,1.5939,1.5872,1.5784,2.6499,2.643,2.6129,2.5406,2.4564,2.3768,2.3113,2.2327,2.1797,2.1797,2.1797,2.1797,2.1797,2.1627,2.1359,2.0974,2.0955,2.0819,2.0605,2.0605,2.0586,2.0527,2.1427,2.1855,2.1816,2.2633,2.3101,2.3101,2.3101,2.3101,2.3101,2.3101,2.3101,2.3101,2.3101,2.3057,2.295,2.295,2.2429,2.1566,2.0753,1.9918,1.91,1.8312,1.7391,1.6468,1.5782,1.5465,1.5382,1.5382,1.5382,1.5382,1.5382,1.5382,1.5382,1.5382,1.5382,1.5382,1.5382,1.5382,1.5382,1.5382,1.5382,1.5382,0.0,0.0,1.5469,1.5761,1.5891,1.5864,1.5699,1.5906,1.5902,1.5529,1.5906,1.6326,1.662,1.6991,1.7341,1.7782,1.7849,1.7862,1.7889,1.7916,1.7942,1.7942,1.7796,1.7689,1.7689,1.7649,1.7635,1.7635,1.7595,1.7582,1.7582,1.7582,1.7582,1.7582,1.7582,1.7582,1.7582,1.7582,1.7582,1.7582,1.7582,1.7569,1.7528,1.7502,1.738,1.7152,1.7152,1.6901,1.658,1.6313,1.6059,1.5784,2.6499,2.6499,2.6396,2.606,2.5335,2.4528,2.3768,2.2979,2.2327,2.1835,2.1797,2.1797,2.1797,2.1721,2.155,2.1282,2.1128,2.0974,2.078,2.0644,2.0605,2.0605,2.1172,2.1621,2.1875,2.2461,2.2847,2.3101,2.3101,2.3101,2.3101,2.3101,2.3101,2.3101,2.3101,2.3101,2.3081,2.2828,2.2515,2.2073,2.1297,2.0095,1.8775,1.8203,1.7147,1.5948,1.6098,1.5824,0.0,1.5382,1.5382,1.5382,1.5382,1.5382,1.5382,1.5382,1.5382,1.5382,1.5382,1.5382,1.5382,1.5382,1.5382,1.544,1.5672,1.5673,1.5804,1.6111,1.6198,1.6238,1.6188,1.615,1.6181,0.0,1.6554,1.6871,1.6991,1.7568,1.7889,1.7796,1.7929,1.7982,1.7995,1.7876,1.7769,1.7769,1.7662,1.7582,1.7582,1.7582,1.7582,1.7582,1.7582,1.7582,1.7582,1.7582,1.7582,1.7582,1.7582,1.7582,1.7582,1.7582,1.7582,1.7582,1.7582,1.7582,1.7582,1.7582,1.7515,1.7447,1.7447,1.7273,1.6901,1.6496,1.6192,1.6059,2.6499,2.6499,2.6499,2.6499,2.6025,2.53,2.4253,2.3497,2.2703,2.1911,2.1797,2.1797,2.1797,2.1797,2.1721,2.1512,2.1359,2.1167,2.0916,2.078,2.0644,2.0605,2.0996,2.1346,2.1699,2.2129,2.248,2.275,2.275,2.275,2.275,2.275,2.275,2.275,2.275,2.275,2.273,2.2461,2.2344,2.2285,2.1502,2.0426,1.9211,1.8337,1.7229,1.6154,1.6304,1.5948,1.5382,1.5382,1.5382,1.5382,1.5382,1.5382,1.5382,1.5382,1.5382,1.5382,1.5382,1.5382,1.5411,1.5498,1.5528,1.5643,1.5965,1.6038,1.6126,1.6492,1.6561,1.6567,1.6529,1.6402,1.6368,1.6573,1.685,1.7139,1.73,1.7836,1.8103,1.7756,1.7822,1.7903,1.7862,1.7716,1.7582,1.7582,1.7582,1.7582,1.7582,1.7582,1.7582,1.7582,1.7582,1.7582,1.7582,1.7582,1.7582,1.7582,1.7582,1.7582,1.7582,1.7582,1.7582,1.7582,1.7582,1.7582,1.7582,1.7582,1.7582,1.7582,1.7582,1.7501,1.7259,1.675,1.6509,1.6353,2.6499,2.6499,2.6499,2.6499,2.6499,2.5955,2.4325,2.3497,2.2703,2.1911,2.1797,2.1797,2.1797,2.1797,2.1721,2.1512,2.1512,2.132,2.0955,2.0896,2.0819,2.0605,2.0996,2.121,2.121,2.168,2.1914,2.1934,2.1934,2.1934,2.1934,2.1934,2.1934,2.1934,2.1934,2.1934,2.1934,2.1914,2.1894,2.1875,2.1385,2.115,2.0891,1.8798,1.7957,1.7715,1.6031,1.5423,1.5382,1.5382,1.5382,1.5382,1.5382,1.5382,1.5382,1.5382,1.5382,1.5382,1.5382,1.5382,1.5469,1.5776,1.5906,1.5979,1.6331,1.6404,1.6492,1.6815,1.6903,1.6808,1.6612,1.6574,1.6544,1.6316,1.6526,1.6914,1.7488,1.7595,1.7716,1.7942,1.7769,1.7595,0.0,1.7582,1.7582,1.7582,1.7582,1.7582,1.7582,1.7582,1.7582,1.7582,1.7582,1.7582,1.7582,1.7582,1.7582,1.7582,1.7582,1.7582,1.7582,1.7582,1.7582,1.7582,1.7582,1.7582,1.7582,1.7582,1.7582,1.7582,1.7582,1.7582,1.7528,1.7286,1.6991,1.6647,2.6499,2.6499,2.6499,2.6499,2.6499,2.6129,2.5052,2.424,2.3438,2.2703,2.2138,0.0,0.0,0.0,0.0,0.0,2.1589,2.1436,2.132,2.1051,2.0858,2.0819,2.0801,2.0937,2.119,2.1327,2.1602,2.1894,2.1894,2.1894,2.1894,2.1894,2.1894,2.1894,2.1894,2.1894,2.1875,2.1582,2.1465,2.1406,2.0977,2.0466,1.9853,1.9149,1.8479,1.7836,0.0,1.5906,1.5382,1.5382,1.5382,1.5382,1.5382,1.5382,1.5382,1.5382,1.5382,1.544,1.5644,1.5717,1.5833,1.614,1.6213,1.6345,1.6668,1.6741,1.6829,1.7106,1.704,1.6897,1.6669,1.6447,1.6375,1.6536,1.6807,1.7141,1.7528,1.7742,1.7836,1.7756,1.7649,0.0,0.0,0.0,0.0,1.7582,1.7582,1.7582,1.7582,1.7582,1.7582,1.7582,1.7582,1.7582,1.7582,1.7582,1.7582,1.7582,1.7582,1.7582,1.7582,1.7582,1.7582,1.7582,1.7582,1.7582,1.7582,1.7582,1.7582,1.7582,1.7582,1.7582,1.7569,1.7475,1.7368,1.7221,0.0,2.6499,2.6499,2.6499,2.6499,0.0,0.0,0.0,0.0,0.0,0.0,0.0,0.0,0.0,0.0,0.0,0.0,2.1589,2.1512,2.1244,2.1089,2.1012,2.0819,2.084,2.1075,2.1036,2.1133,2.1466,2.1466,2.1466,2.1466,2.1466,2.1466,2.1466,2.1466,2.1466,2.1447,2.1113,2.0996,2.0977,2.0684,2.0255,1.9745,1.9429,1.8935,0.0,1.7472,1.6576,1.5824,1.5506,1.5382,1.5382,1.5382,1.5382,1.5382,1.5382,1.5469,1.5643,1.5862,1.5994,1.6155,1.6507,1.6595,1.6668,1.6945,1.7018,1.7077,1.7235,1.72,1.7012,1.6777,1.6494,1.6464,1.6905,1.7076,1.7295,1.7686,1.7902,1.7902,1.7609,1.7582,1.7582,0.0,0.0,0.0,1.7582,1.7582,1.7582,1.7582,1.7582,1.7582,1.7582,1.7582,1.7582,1.7582,1.7582,1.7582,1.7582,1.7582,1.7582,1.7582,1.7582,1.7582,1.7582,1.7582,1.7582,1.7582,1.7582,1.7582,1.7582,1.7582,1.7582,1.7582,1.7582,1.7582,1.7515,0.0,0.0,2.6499,0.0,0.0,0.0,0.0,0.0,0.0,0.0,0.0,0.0,0.0,0.0,0.0,0.0,0.0,0.0,2.155,2.1512,2.1397,2.1205,2.1012,2.0916,2.0916,2.0741,2.0605,2.0605,2.0605,2.0605,2.0605,2.0605,2.0605,2.0605,2.0605,2.0605,2.0605,2.0605,2.0605,2.0605,2.0605,2.0605,2.0527,1.9687,1.9371,1.9253,1.8359,1.7513,1.6617,1.5741,1.5423,1.5382,1.5382,1.5382,1.5396,1.5411,1.563,1.5921,1.595,1.617,1.6521,1.6844,1.6917,1.7005,1.7267,1.7279,1.7279,1.7279,1.7279,1.7246,0.0,0.0,1.6784,1.7386,1.725,1.7282,1.7855,1.795,1.7911,0.0,0.0,0.0,0.0,0.0,0.0,1.7582,0.0,1.7582,1.7582,1.7582,1.7582,1.7582,1.7582,1.7582,1.7582,1.7582,1.7582,1.7582,1.7582,1.7582,1.7582,1.7582,1.7582,1.7582,1.7582,1.7582,1.7582,1.7582,1.7582,1.7582,1.7582,1.7582,1.7582,1.7582,1.7582,1.7542,0.0,0.0,0.0,0.0,0.0,0.0,0.0,0.0,0.0,0.0,0.0,0.0,0.0,0.0,0.0,0.0,0.0,0.0,2.1741,2.1568,2.1474,2.1436,2.1244,2.1128,2.1128,2.0935,2.0819,2.0819,2.0644,2.0605,2.0605,2.0605,2.0605,2.0605,2.0605,2.0605,2.0605,2.0605,2.0605,2.0605,2.0605,2.0605,2.0566,2.0372,2.0294,2.0177,1.9292,1.8399,1.7553,1.6657,1.5948,1.5382,1.5382,1.5382,1.544,1.5673,1.5848,1.6023,1.6491,1.6712,1.6859,1.7121,1.7208,1.7223,1.7264,1.7279,1.7279,1.7279,1.7279,1.7246,1.7026,0.0,0.0,1.6926,1.7026,0.0,1.7362,1.7553,0.0,1.7635,0.0,1.7582,1.7582,1.7582,0.0,0.0,1.7582,1.7582,1.7582,1.7582,1.7582,1.7582,1.7582,1.7582,1.7582,1.7582,1.7582,1.7582,1.7582,1.7582,1.7582,1.7582,1.7582,1.7582,1.7582,1.7582,1.7582,1.7582,1.7582,1.7582,1.7582,1.7582,1.7582,1.7582,1.7582,1.7569,0.0,0.0,0.0,0.0,0.0,0.0,0.0,0.0,0.0,0.0,0.0,0.0,0.0,0.0,0.0,0.0,0.0,0.0,0.0,2.1683,2.1589,2.1512,2.132,2.1167,2.1051,2.0955,2.0916,2.0916,2.0896,2.0819,2.0741,2.0741,2.0683,2.0605,2.0605,2.0605,2.0605,2.0605,2.0605,0.0,0.0,2.0605,2.0605,2.0605,2.0605,2.0527,2.0059,1.9036,1.7876,1.6984,1.6098,1.5382,1.5382,1.5484,1.5687,1.5819,1.6111,1.6404,1.68,1.7005,1.7106,1.7235,1.7279,1.7279,1.7279,1.7279,1.7279,1.7279,1.7279,1.7279,1.7153,1.6965,1.6843,0.0,0.0,0.0,1.7371,1.7617,1.774,0.0,1.7582,0.0,1.7582,1.7582,1.7582,0.0,1.7582,1.7582,1.7582,1.7582,1.7582,1.7582,1.7582,1.7582,1.7582,1.7582,1.7582,1.7582,1.7582,1.7582,1.7582,1.7582,1.7582,1.7582,0.0,1.7582,1.7582,1.7582,1.7582,1.7582,1.7582,1.7582,1.7582,1.7582,1.7582,1.7582,0.0,0.0,0.0,0.0,0.0,0.0,0.0,0.0,0.0,0.0,2.4118,2.3075,0.0,0.0,0.0,0.0,0.0,0.0,0.0,0.0,2.1721,2.155,2.1359,2.1205,2.1012,2.0974,2.0994,2.0994,2.1128,2.1089,2.0916,2.0916,2.078,2.0605,2.0605,2.0605,2.0605,2.0605,2.0605,2.0605,2.0605,2.0605,2.0605,0.0,2.0605,2.0566,2.0489,1.945,1.8037,1.7025,1.6098,1.5382,1.5382,1.5615,1.5921,1.5965,1.6389,1.6903,1.6947,1.7121,1.7279,1.7279,1.7279,1.7279,1.7279,1.7279,1.7279,1.7279,1.7279,1.7279,1.7279,1.6951,1.6815,1.7241,0.0,1.726,1.7418,1.7811,1.7911,1.7635,1.7582,1.7582,1.7582,1.7582,1.7582,1.7582,1.7582,1.7582,1.7582,1.7582,1.7582,1.7582,1.7582,1.7582,1.7582,1.7582,1.7582,1.7582,1.7582,1.7582,1.7582,1.7582,1.7582,1.7582,0.0,0.0,1.7582,1.7582,1.7582,1.7582,1.7582,1.7582,1.7582,1.7582,1.7582,1.7582,0.0,0.0,0.0,0.0,0.0,0.0,0.0,0.0,0.0,2.6302,2.4886,2.3438,0.0,0.0,0.0,0.0,0.0,0.0,0.0,0.0,0.0,2.1759,2.1703,2.1703,2.1645,2.1474,2.1397,2.1397,2.1244,2.1089,2.0916,2.0916,2.078,2.0605,2.0605,2.0605,2.0605,2.0605,2.0605,2.0605,2.0605,2.0605,2.0605,2.0605,0.0,0.0,1.9766,1.9332,1.8816,1.7229,1.6098,1.5382,1.5382,1.5615,1.5965,1.6213,1.6609,1.6961,1.7179,1.7235,1.7279,1.7279,1.7279,1.7279,1.7279,1.7279,1.7279,1.7279,1.7279,1.7279,1.7279,1.7232,1.7073,1.68,1.7295,1.754,1.6931,1.752,1.7911,0.0,1.7582,1.7582,1.7582,1.7582,0.0,0.0,0.0,1.7582,1.7582,1.7582,1.7582,1.7582,1.7582,1.7582,1.7582,1.7582,1.7582,1.7582,1.7582,1.7582,1.7582,1.7582,1.7582,1.7582,1.7582,0.0,1.7582,1.7582,1.7582,1.7582,1.7582,1.7582,1.7582,1.7582,1.7582,1.7582,0.0,0.0,0.0,0.0,0.0,0.0,2.6499,2.6499,2.6336,2.5921,2.5194,2.4456,2.3694,2.3254,2.3143,0.0,0.0,0.0,0.0,0.0,0.0,0.0,2.1873,2.1589,2.1512,2.1512,2.1512,2.1512,0.0,2.1397,2.1205,2.1205,2.1051,2.078,2.078,2.0702,2.0605,2.0605,2.0605,2.0605,2.0605,2.0605,2.0605,0.0,0.0,0.0,2.0137,1.9687,1.9094,1.7796,1.678,1.5989,1.5548,1.576,1.6184,1.6375,1.6711,1.7135,1.7296,1.7279,1.7279,1.7279,1.7279,1.7279,1.7279,1.7279,1.7279,1.7279,1.7279,1.7279,1.7279,1.72,1.7059,1.6824,1.7301,1.7512,1.6964,1.7531,1.7964,1.7806,1.7687,1.7635,0.0,1.7687,0.0,0.0,0.0,1.7582,1.7582,1.7582,1.7582,1.7582,1.7582,1.7582,1.7582,1.7582,1.7582,1.7582,1.7582,1.7582,1.7582,1.7582,1.7582,1.7582,1.7582,0.0,1.7582,1.7582,1.7582,1.7582,1.7582,1.7582,1.7582,1.7582,1.7582,1.7582,0.0,0.0,0.0,0.0,0.0,0.0,2.6499,2.6499,2.6267,2.5641,2.5571,2.5571,2.5571,2.4707,2.4181,0.0,0.0,0.0,0.0,0.0,0.0,0.0,0.0,0.0,2.1359,0.0,0.0,2.155,2.1721,0.0,0.0,0.0,0.0,0.0,2.0955,2.0896,2.0722,2.0683,2.0644,0.0,0.0,2.0605,0.0,0.0,0.0,0.0,0.0,2.0177,1.945,1.8559,1.7836,1.7107,1.6237,1.6102,1.6331,1.6389,1.6784,1.7238,1.7264,1.7279,1.7279,1.7279,1.7279,1.7279,1.7279,1.7279,1.7279,1.7279,1.7279,1.7279,1.7279,1.7153,1.7073,1.7026,1.7398,1.7562,1.7213,1.7788,1.8174,0.0,1.7898,0.0,1.8069,1.7898,0.0,0.0,0.0,0.0,1.7582,1.7582,1.7582,1.7582,1.7582,1.7582,1.7582,1.7582,1.7582,1.7582,1.7582,1.7582,1.7582,1.7582,1.7582,1.7582,1.7582,0.0,0.0,1.7582,1.7582,1.7582,1.7582,1.7582,1.7582,1.7582,1.7582,1.7582,0.0,0.0,0.0,0.0,0.0,0.0,2.6499,2.6499,2.6465,2.6396,2.6396,2.6396,2.6396,2.5028,2.4361,0.0,0.0,0.0,0.0,0.0,0.0,0.0,0.0,0.0,0.0,0.0,0.0,2.1759,2.1797,0.0,0.0,0.0,0.0,0.0,0.0,2.1167,2.1128,2.0935,0.0,0.0,0.0,0.0,0.0,0.0,0.0,0.0,0.0,2.0566,2.0372,1.945,1.9134,1.8895,1.8037,1.6943,1.6009,1.6331,1.6668,1.7005,1.7252,1.7279,1.7279,1.7279,1.7279,1.7279,1.7279,1.7279,1.7279,1.7279,1.7279,1.7279,1.7279,1.7279,1.72,1.7026,1.7688,1.8059,1.7562,1.8249,1.8712,1.8422,0.0,0.0,1.837,1.8318,0.0,0.0,0.0,0.0,1.7635,1.7582,1.7582,1.7582,1.7582,1.7582,1.7582,1.7582,1.7582,1.7582,1.7582,1.7582,1.7582,1.7582,1.7582,1.7582,1.7582,0.0,0.0,1.7582,1.7582,1.7582,1.7582,1.7582,1.7582,1.7582,1.7582,1.7582,0.0,0.0,0.0,0.0,0.0,0.0,2.6499,2.6499,2.6499,2.6499,2.6499,2.6499,2.6499,2.5931,2.5687,2.599,2.5721,0.0,0.0,0.0,0.0,0.0,0.0,0.0,0.0,0.0,2.1797,2.1797,2.1797,0.0,0.0,0.0,0.0,0.0,0.0,2.132,2.1205,2.1089,0.0,0.0,0.0,0.0,0.0,0.0,0.0,0.0,0.0,0.0,2.0489,1.9569,1.9292,1.9188,1.8557,1.7987,1.7472,1.7262,1.7041,1.6976,1.7238,1.7279,1.7279,1.7279,1.7279,1.7466,1.8056,1.8195,1.838,1.8918,1.9055,1.8872,1.8288,1.8195,1.7963,1.7293,1.7785,1.8158,1.7811,1.8417,1.8869,1.8712,1.8541,0.0,0.0,0.0,0.0,0.0,0.0,0.0,1.8108,1.7793,1.7582,1.7582,1.7582,1.7582,1.7582,1.7582,1.7582,1.7582,1.7582,1.7582,1.7582,1.7582,1.7582,1.7582,1.7582,0.0,0.0,1.7582,1.7582,1.7582,1.7582,1.7582,1.7582,1.7582,1.7582,1.7582,0.0,0.0,0.0,0.0,0.0,2.6499,2.6499,2.6499,2.6499,2.6499,2.6499,2.6499,2.6499,2.6499,2.6499,2.6499,2.6499,0.0,0.0,0.0,0.0,0.0,0.0,0.0,0.0,0.0,2.1911,2.2138,2.1911,2.2025,0.0,0.0,0.0,0.0,0.0,0.0,0.0,0.0,0.0,0.0,0.0,0.0,0.0,0.0,0.0,0.0,0.0,0.0,0.0,0.0,0.0,1.9829,1.9647,1.9383,1.8995,1.8143,1.7592,1.7326,1.7284,1.7279,1.7279,1.7279,1.7512,1.7917,1.8657,1.901,1.9422,2.0059,2.0195,1.9923,1.8964,1.8796,1.8473,1.7466,1.7794,1.814,1.8044,1.8484,1.891,0.0,0.0,0.0,0.0,0.0,0.0,0.0,0.0,0.0,0.0,1.8055,1.7793,1.774,1.7635,1.7582,1.7582,1.7582,1.7582,1.7582,1.7582,1.7582,1.7582,1.7582,1.7582,1.7582,0.0,0.0,0.0,1.7582,1.7582,1.7582,1.7582,1.7582,1.7582,1.7582,1.7582,1.7582,0.0,0.0,0.0,0.0,0.0,2.6499,2.6499,2.6499,2.6499,2.6499,2.6499,2.6499,2.6499,2.6499,2.6499,2.6499,2.6499,0.0,0.0,0.0,0.0,0.0,0.0,0.0,2.1797,2.1797,2.2176,2.3001,2.2176,2.2569,2.4036,2.3313,2.3001,2.2964,0.0,0.0,0.0,0.0,2.1512,0.0,0.0,0.0,2.0605,0.0,0.0,0.0,0.0,0.0,0.0,0.0,0.0,0.0,0.0,2.1275,2.0262,1.872,1.83,1.8155,1.747,1.7279,1.7279,1.7279,1.8056,1.8796,1.8796,1.9513,2.0195,2.0195,2.0195,1.9923,1.8964,1.8796,1.8473,1.7466,1.7604,1.7925,1.8262,1.8584,1.8921,0.0,0.0,0.0,0.0,0.0,0.0,0.0,0.0,0.0,0.0,1.837,1.8265,1.8016,1.7753,1.7582,1.7582,1.7582,1.7582,1.7582,1.7582,1.7582,1.7582,1.7582,1.7582,0.0,0.0,0.0,0.0,1.7582,1.7582,1.7582,1.7582,1.7582,1.7582,1.7582,1.7582,1.7582,0.0,0.0,0.0,0.0,0.0,0.0,2.6499,2.6499,2.6499,2.6499,2.6499,2.6499,2.6499,2.6499,2.6499,2.6499,2.6499,0.0,0.0,0.0,0.0,0.0,0.0,0.0,2.2628,2.2628,2.2979,2.3768,2.3511,2.3599,2.4072,2.335,2.3001,2.2964,2.244,2.2025,0.0,2.1741,2.1627,0.0,0.0,2.1205,2.1012,0.0,0.0,0.0,0.0,0.0,0.0,0.0,0.0,0.0,0.0,0.0,0.0,2.0855,2.0014,1.9184,1.8517,1.878,1.9147,1.8473,1.9055,1.9923,2.0647,2.1006,2.1427,2.205,2.2183,2.1917,2.0962,2.0782,2.0466,1.9467,1.9837,2.0039,0.0,0.0,0.0,1.9361,1.9272,0.0,0.0,0.0,0.0,0.0,0.0,0.0,0.0,1.8855,1.8593,1.8265,1.8016,1.7859,1.7859,1.7687,1.7582,1.7582,1.7582,1.7582,1.7582,1.7582,0.0,0.0,0.0,0.0,0.0,1.7582,1.7582,1.7582,1.7582,1.7582,1.7582,1.7582,1.7582,1.7582,0.0,0.0,0.0,0.0,0.0,0.0,2.6499,2.6499,2.6499,2.6499,2.6499,2.6499,2.6499,2.6499,2.6499,2.6499,2.6499,0.0,0.0,0.0,0.0,0.0,0.0,0.0,2.3423,2.3423,2.3768,2.4564,2.4253,2.4397,2.4992,2.4227,2.3863,2.3863,2.335,2.2793,0.0,2.1911,2.1703,2.1512,2.1512,2.1397,2.1205,0.0,0.0,0.0,0.0,0.0,0.0,0.0,0.0,0.0,0.0,0.0,0.0,0.0,2.1644,2.0793,1.9629,1.9741,2.0059,1.9467,2.0059,2.0917,2.1561,2.1961,2.2378,2.2969,2.3101,2.2818,2.1872,2.1695,2.1364,2.0376,2.0429,2.055,0.0,0.0,0.0,1.9361,0.0,0.0,0.0,0.0,0.0,0.0,0.0,0.0,0.0,1.913,1.8959,1.875,1.8384,1.8174,1.8174,1.8003,1.7845,1.774,1.774,1.7687,1.7582,1.7582,0.0,0.0,0.0,0.0,0.0,1.7582,1.7582,1.7582,1.7582,1.7582,1.7582,1.7582,1.7582,1.7582,0.0,0.0,0.0,0.0,0.0,0.0,2.6499,2.6499,2.6499,2.6499,2.6499,2.6499,2.6499,2.6499,2.6499,2.6499,2.6499,0.0,0.0,0.0,0.0,0.0,0.0,2.4108,2.4181,2.4181,2.4564,2.5394,2.4636,2.5028,2.6499,2.5676,2.53,2.53,2.5194,2.4335,2.2964,2.2138,2.178,2.1683,2.1589,2.1436,0.0,0.0,0.0,0.0,0.0,0.0,0.0,0.0,0.0,0.0,0.0,0.0,0.0,0.0,0.0,0.0,0.0,2.0421,2.0376,2.0331,2.1051,2.1784,2.1784,2.2467,0.0,2.3101,2.3101,2.2818,2.1961,2.1784,2.1516,2.0557,1.9936,1.9986,0.0,2.0014,0.0,0.0,0.0,0.0,0.0,0.0,0.0,0.0,0.0,0.0,0.0,1.9272,1.9272,1.9272,1.8736,1.8475,1.8422,1.8422,1.8265,1.8016,1.8016,1.7911,1.7635,1.7635,0.0,0.0,0.0,0.0,0.0,1.7635,1.7582,1.7582,1.7582,1.7582,1.7582,1.7582,1.7582,1.7582,0.0,0.0,0.0,0.0,0.0,0.0,0.0,0.0,0.0,0.0,2.6499,2.6499,2.6499,2.6499,2.6499,0.0,0.0,0.0,0.0,0.0,0.0,0.0,2.4528,2.4384,2.5016,2.5016,2.5406,2.6198,2.6025,2.6129,2.6499,2.5676,2.53,2.5229,2.4082,2.3335,2.2964,2.2138,2.2456,2.3401,2.2193,2.2063,0.0,0.0,0.0,0.0,2.1474,2.1565,0.0,0.0,0.0,0.0,0.0,0.0,0.0,0.0,2.3101,2.3013,2.2555,0.0,2.2227,2.1516,2.205,2.2775,0.0,2.295,2.3101,2.3101,2.3101,2.3038,2.2818,2.2775,2.2687,2.2467,2.219,2.2073,2.2398,0.0,0.0,0.0,0.0,0.0,0.0,0.0,0.0,0.0,0.0,0.0,0.0,1.9272,1.9272,1.9272,1.9168,1.9011,1.8764,1.8527,1.837,1.8318,1.8318,1.8174,1.7911,1.7911,0.0,0.0,0.0,0.0,1.7911,1.7687,1.7582,1.7582,1.7582,1.7582,1.7582,1.7582,1.7582,1.7582,0.0,0.0,0.0,0.0,0.0,0.0,0.0,0.0,0.0,0.0,2.6499,2.6499,2.6499,2.6499,2.6499,0.0,0.0,0.0,0.0,0.0,0.0,2.5851,2.5441,2.5406,2.5851,2.5851,2.606,2.6499,2.6499,2.6499,2.6499,2.606,2.5851,2.5816,2.4587,2.4045,2.4009,2.318,2.3364,2.4,2.283,0.0,0.0,0.0,0.0,0.0,2.193,2.2104,0.0,2.2674,2.2864,2.3024,0.0,0.0,0.0,0.0,2.3101,2.3101,2.3101,2.3101,2.2969,2.2467,2.2731,2.3101,2.3101,2.3101,2.3101,2.3101,2.3101,2.3101,2.3101,2.3101,2.3159,2.3398,2.3054,0.0,0.0,0.0,0.0,0.0,0.0,0.0,0.0,0.0,0.0,0.0,0.0,0.0,0.0,1.9272,1.9272,1.9272,1.9272,1.922,1.9078,1.8907,1.875,1.8646,1.8646,1.8489,1.8174,1.8174,1.8174,0.0,0.0,0.0,1.7964,1.7859,1.7687,1.7582,1.7582,1.7582,1.7582,1.7582,1.7582,1.7582,0.0,0.0,0.0,0.0,0.0,0.0,0.0,0.0,0.0,0.0,0.0,0.0,0.0,0.0,0.0,0.0,0.0,0.0,0.0,0.0,2.6499,2.6499,2.6499,2.6499,2.6499,2.6499,2.6499,2.6499,2.6499,2.6499,2.6499,2.6499,2.643,2.6292,2.5581,2.53,2.5229,2.4456,2.4217,2.4361,2.3534,0.0,0.0,0.0,0.0,0.0,0.0,0.0,0.0,2.3348,2.3478,2.3493,2.3493,0.0,0.0,0.0,0.0,0.0,2.3101,2.3101,2.3101,2.3101,2.3101,2.3101,2.3101,2.3101,2.3101,2.3101,2.3101,2.3101,2.3101,2.3101,0.0,0.0,0.0,0.0,0.0,0.0,0.0,0.0,0.0,0.0,0.0,0.0,0.0,0.0,0.0,0.0,0.0,1.962,1.9532,1.9532,1.9376,1.9272,1.9272,1.9272,1.9182,1.8974,1.8974,1.8803,1.8475,1.8475,1.8475,1.8475,0.0,0.0,1.8122,1.8069,1.7911,1.7635,1.7635,1.7635,1.7687,1.7793,1.7898,1.7898,0.0,0.0,0.0,0.0,0.0,0.0,0.0,0.0,0.0,0.0,0.0,0.0,0.0,0.0,0.0,0.0,0.0,0.0,0.0,2.6499,2.6499,2.6499,2.6499,2.6499,2.6499,2.6499,2.6499,2.6499,2.6499,2.6499,2.6499,2.6499,2.6129,2.55,2.5335,2.53,2.5229,2.4456,2.4886,2.6025,2.4528,0.0,0.0,0.0,0.0,0.0,0.0,0.0,0.0,2.3492,2.3478,2.3493,2.3493,0.0,0.0,0.0,0.0,0.0,2.3101,2.3101,2.3101,2.3101,2.3101,2.3101,2.3101,2.3101,2.3101,2.3101,2.3101,2.3101,2.3101,2.3101,2.3237,0.0,0.0,2.421,0.0,0.0,0.0,0.0,0.0,0.0,0.0,0.0,0.0,0.0,0.0,0.0,0.0,2.1132,2.0637,2.0637,1.9776,1.9272,1.9272,1.9272,1.9272,1.922,1.922,1.9078,1.8817,1.8817,1.8817,1.8817,0.0,1.8541,1.8764,1.8489,1.816,1.7964,1.7964,1.7964,1.8016,1.8722,1.9138,1.9361,0.0,0.0,0.0,0.0,0.0,0.0,0.0,0.0,0.0,0.0,0.0,0.0,0.0,0.0,0.0,0.0,0.0,0.0,2.6499,2.6499,2.6499,2.6499,2.6499,2.6499,2.6499,2.6499,2.6499,2.6499,2.6499,2.6499,2.6499,2.6801,2.6716,2.6399,2.6695,2.6818,2.6782,2.6396,2.671,2.7272,0.0,0.0,0.0,0.0,0.0,0.0,0.0,0.0,0.0,0.0,2.398,2.3861,2.3711,0.0,0.0,0.0,0.0,0.0,2.3144,2.3101,2.3101,2.3101,2.3101,2.3101,2.3101,2.3101,2.3101,2.3101,2.3101,2.3101,2.3101,0.0,2.3711,2.4375,0.0,0.0,0.0,0.0,0.0,0.0,0.0,0.0,0.0,0.0,0.0,0.0,0.0,0.0,0.0,0.0,2.1743,2.1743,2.1285,2.103,2.103,2.0431,1.9879,1.9272,1.9272,1.922,1.913,1.9724,1.9983,1.9983,0.0,2.0621,2.0585,1.9864,1.9346,1.902,1.8422,1.8565,1.9176,2.0004,2.0416,2.0534,0.0,0.0,0.0,0.0,0.0,0.0,0.0,0.0,0.0,0.0,0.0,0.0,0.0,0.0,0.0,0.0,0.0,2.6499,2.6499,2.6499,2.6549,2.6675,2.6675,2.6625,2.6499,2.6499,2.6549,2.6675,2.6675,2.6751,2.6876,2.7304,2.7469,2.7494,2.7921,2.8097,2.8097,2.8097,2.8097,2.8024,0.0,0.0,0.0,0.0,0.0,0.0,0.0,0.0,0.0,0.0,0.0,0.0,0.0,0.0,0.0,2.3363,2.3406,2.3493,2.3276,2.3188,2.3188,2.3144,2.3101,2.3101,2.3101,2.3101,2.3101,2.3101,2.3101,2.312,2.3237,2.373,0.0,2.5008,2.5449,0.0,0.0,0.0,0.0,0.0,0.0,0.0,0.0,0.0,0.0,0.0,0.0,0.0,0.0,0.0,2.2885,2.2885,2.2634,2.2484,2.2484,2.1692,2.0739,1.9672,1.9428,1.9272,1.9324,2.0431,2.0877,2.0979,2.203,2.2383,2.2131,2.1285,2.0759,2.0385,1.9591,1.9886,2.0845,2.1574,2.1794,2.1641,0.0,0.0,0.0,0.0,0.0,0.0,0.0,0.0,0.0,0.0,0.0,0.0,0.0,0.0,0.0,0.0,2.6499,2.6499,2.6499,2.6499,2.6725,2.7228,2.7218,2.7027,2.6499,2.6499,2.6751,2.7218,2.7218,2.7494,2.7996,2.8021,2.8047,2.8047,2.8097,2.8097,2.8097,2.8097,2.8097,2.8097,2.8024,0.0,0.0,0.0,0.0,0.0,0.0,0.0,0.0,0.0,0.0,0.0,0.0,0.0,2.3797,2.3754,2.3754,2.3711,2.3537,2.345,2.3406,2.3144,2.3101,2.3101,2.3101,2.3101,2.3101,2.3101,2.3101,2.3218,2.3672,2.4414,2.5047,2.5106,0.0,0.0,0.0,0.0,0.0,0.0,0.0,0.0,0.0,0.0,0.0,0.0,0.0,0.0,0.0,0.0,0.0,2.398,2.3035,2.2484,2.2484,2.2433,2.1844,2.079,1.9776,1.9272,1.9324,2.0431,2.0877,2.0979,2.203,2.2484,2.2484,2.2383,2.2181,2.1929,2.1878,2.2333,2.3085,2.342,2.3203,2.2785,0.0,0.0,0.0,0.0,0.0,0.0,0.0,0.0,0.0,0.0,0.0,2.6625,2.6977,0.0,0.0,0.0,2.7469,2.7469,2.7469,2.7469,2.757,2.7795,2.7795,2.7695,2.7494,2.7469,2.7595,2.7795,2.7795,2.7896,2.8122,2.8448,2.8624,2.8587,2.9001,2.9151,2.9151,2.9151,2.9151,2.9151,2.9151,2.9151,0.0,0.0,0.0,0.0,0.0,0.0,0.0,0.0,2.5189,2.4378,2.4249,2.4206,2.4186,2.3884,2.3927,2.397,2.358,2.3493,2.345,2.3188,2.3101,2.3101,2.3101,2.3101,2.3179,2.3496,2.3535,2.375,2.4453,0.0,2.5156,2.543,0.0,0.0,0.0,0.0,0.0,0.0,0.0,0.0,0.0,0.0,0.0,0.0,0.0,0.0,0.0,0.0,0.0,2.5069,2.4707,2.4461,2.4461,2.385,2.3285,2.2885,2.1794,2.1285,2.1336,2.2383,2.2885,2.2935,2.3998,2.4461,2.4412,2.375,2.3434,2.3335,2.3335,2.3534,2.3899,2.448,2.4578,2.4313,0.0,0.0,0.0,0.0,0.0,0.0,0.0,0.0,2.7027,0.0,0.0,0.0,0.0,2.7544,0.0,0.0,2.8097,2.8097,2.8097,2.8097,2.8172,2.8373,2.8373,2.8448,2.8624,2.8649,2.8549,2.8373,2.8549,2.8649,2.8649,2.9026,2.9164,2.9189,2.9628,2.9804,2.9804,2.9804,2.9804,2.9804,2.9804,2.9804,0.0,0.0,0.0,0.0,0.0,0.0,0.0,0.0,2.5421,2.4828,2.4401,2.4572,2.4765,2.4186,2.412,2.412,2.3711,2.3537,2.345,2.3188,2.3101,2.314,2.332,2.3296,2.3437,2.373,2.4004,2.4375,2.5008,0.0,0.0,0.0,0.0,0.0,0.0,0.0,0.0,0.0,0.0,0.0,0.0,0.0,0.0,0.0,0.0,0.0,0.0,0.0,0.0,0.0,2.5693,2.5693,2.5693,2.4971,2.4609,2.4609,2.385,2.3153,2.2534,2.3583,2.4097,2.4146,2.5216,2.5693,2.5625,2.4922,2.4609,2.4609,2.4609,2.4609,2.4658,2.5235,2.5382,2.5235,0.0,0.0,0.0,0.0,0.0,0.0,0.0,0.0,2.8097,2.8097,2.8097,0.0,0.0,0.0,0.0,0.0,2.8122,2.8122,2.8122,2.8122,2.8373,2.8888,2.8888,2.9202,2.9779,2.9804,2.9503,2.8888,2.9503,2.9804,2.9804,2.9804,2.9804,2.9804,2.9804,2.9804,2.9804,2.9804,2.9804,2.9804,2.9804,2.9804,2.9804,0.0,0.0,0.0,0.0,0.0,0.0,0.0,2.5819,2.5673,2.4786,2.5105,2.5631,2.4743,2.4378,2.4163,2.3884,2.3667,2.345,2.3188,2.3101,2.3218,2.3691,2.3789,2.3789,2.3809,2.4473,2.5125,2.5125,2.543,0.0,0.0,0.0,0.0,0.0,0.0,0.0,0.0,0.0,0.0,0.0,0.0,0.0,0.0,0.0,0.0,0.0,0.0,0.0,0.0,2.5693,2.5693,2.5693,2.5693,2.5693,2.5693,2.5693,2.4559,2.2584,2.3633,2.4146,2.4196,2.5216,2.5693,2.5693,2.5693,2.5693,2.5693,2.5693,2.5693,2.5693,2.5693,2.5528,2.5284,0.0,0.0,0.0,0.0,0.0,0.0,0.0,0.0,2.8097,2.8097,2.8097,0.0,0.0,0.0,0.0,0.0,0.0,0.0,2.9302,2.9302,2.9377,2.9528,2.9528,2.9628,2.9804,2.9804,2.9704,2.9528,2.9704,2.9804,2.9804,2.9804,2.9804,2.9804,2.9804,2.9804,2.9804,2.9804,2.9804,2.9804,2.9804,2.9804,2.9804,0.0,0.0,0.0,0.0,0.0,0.0,0.0,0.0,0.0,2.5505,2.5189,2.4807,2.4572,2.4464,2.4378,2.4163,2.3884,2.3667,2.3624,2.3493,2.3481,2.3915,2.3924,2.3965,2.4617,2.5137,2.5527,2.5527,2.5596,0.0,0.0,0.0,0.0,0.0,0.0,0.0,0.0,0.0,0.0,0.0,0.0,0.0,0.0,0.0,0.0,0.0,0.0,0.0,0.0,2.5693,2.5693,2.5693,2.5693,2.5693,2.5693,2.5693,2.5382,2.4775,2.5069,2.5216,2.5216,2.5577,2.5693,2.5693,2.5693,2.5693,2.5693,2.5693,2.5693,2.5693,2.5693,2.5645,2.5528,0.0,0.0,0.0,0.0,0.0,0.0,2.8775,2.8775,2.8775,2.8775,2.8775,2.89,0.0,0.0,0.0,2.9754,2.9804,0.0,2.9804,2.9804,2.9804,2.9804,2.9804,2.9804,2.9804,2.9804,2.9804,2.9804,2.9804,2.9804,2.9804,2.9804,2.9804,2.9804,2.9804,2.9804,2.9804,2.9804,2.9804,2.9804,2.9804,2.9804,2.9804,0.0,0.0,0.0,0.0,0.0,0.0,0.0,0.0,0.0,2.6442,2.5966,2.5485,2.5105,2.4658,2.4229,2.4206,2.3947,2.3711,2.3797,2.3851,2.4042,2.4524,2.448,2.4492,2.5195,2.5547,2.5693,2.5693,2.5693,0.0,0.0,0.0,0.0,0.0,0.0,0.0,0.0,0.0,0.0,0.0,0.0,0.0,0.0,0.0,0.0,0.0,0.0,0.0,0.0,2.5693,2.5693,2.5693,2.5693,2.5693,2.5693,2.5693,2.5693,2.5693,2.5693,2.5693,2.5693,2.5693,2.5693,2.5693,2.5693,2.5693,2.5693,2.5693,2.5693,2.5693,2.5693,2.5693,2.5693,0.0,0.0,2.9804,2.9804,0.0,0.0,2.9804,2.9804,2.9804,2.9804,2.9804,2.9804,0.0,0.0,0.0,2.9804,2.9804,2.9804,2.9804,2.9804,2.9804,2.9804,2.9804,2.9804,2.9804,2.9804,2.9804,2.9804,2.9804,2.9804,2.9804,2.9804,2.9804,2.9804,2.9804,2.9804,2.9804,2.9804,2.9804,2.9804,2.9804,2.9804,2.9804,2.9804,0.0,0.0,0.0,0.0,0.0,0.0,0.0,0.0,2.7406,2.7058,2.6812,2.5944,2.4829,2.3927,2.4163,2.3904,2.3624,2.3797,2.4203,2.4761,2.5351,2.5334,2.5282,2.5615,0.0,2.5693,2.5693,2.5693,0.0,0.0,0.0,0.0,0.0,0.0,0.0,0.0,0.0,0.0,0.0,0.0,0.0,0.0,0.0,0.0,0.0,0.0,0.0,2.5693,2.5693,2.5693,2.5693,2.5693,2.5693,2.5693,2.5693,2.5693,2.5693,2.5693,2.5693,2.5693,2.5693,2.5693,2.5693,2.5693,2.5693,2.5693,2.5693,2.5693,2.5693,2.5693,2.5693,2.5693,0.0,0.0,2.9804,2.9804,0.0,0.0,2.9804,2.9804,2.9804,2.9804,2.9804,2.9804,2.9804,2.9804,0.0,2.9804,2.9804,2.9804,2.9804,2.9804,2.9804,2.9804,2.9804,2.9804,2.9804,2.9804,2.9804,2.9804,2.9804,2.9804,2.9804,2.9804,2.9804,2.9804,2.9804,2.9804,2.9804,2.9804,2.9804,2.9804,2.9804,2.9804,2.9804,2.9804,2.9804,0.0,0.0,0.0,0.0,0.0,0.0,0.0,2.7406,2.6607,2.5902,2.502,2.4572,2.4358,2.4421,2.4249,2.412,2.4272,2.4842,2.5351,2.5665,2.5809,2.5847,2.5723,2.5693,2.5693,2.5693,0.0,0.0,0.0,0.0,0.0,0.0,0.0,0.0,0.0,0.0,0.0,0.0,0.0,0.0,0.0,0.0,0.0,0.0,0.0,0.0,2.5693,2.5693,2.5693,2.5693,2.5693,2.5693,0.0,2.5693,2.5693,2.5693,2.5693,2.5693,2.5693,2.5693,2.5693,2.5693,2.5693,2.5693,2.5693,2.5693,2.5693,2.5693,2.5693,2.5693,2.5693,0.0,0.0,0.0,0.0,0.0,0.0,0.0,0.0,2.9478,2.9754,2.9804,2.9804,2.9804,2.9804,0.0,0.0,2.9804,2.9804,2.9804,2.9804,2.9804,2.9804,2.9804,2.9804,2.9804,2.9804,2.9804,2.9804,2.9804,2.9804,2.9804,2.9804,2.993,3.0181,3.0181,3.0331,3.0557,3.0557,3.0557,3.0557,3.0557,3.0557,3.0557,3.0557,3.0407,3.0181,3.0181,0.0,0.0,0.0,0.0,0.0,0.0,0.0,2.7017,2.6547,2.6049,2.5505,2.5232,2.4978,2.4869,2.5111,2.532,2.5671,2.6202,2.622,2.6042,2.5917,2.5771,2.5693,0.0,0.0,0.0,0.0,0.0,0.0,0.0,0.0,0.0,0.0,0.0,0.0,0.0,0.0,0.0,0.0,0.0,0.0,0.0,2.5693,2.5693,2.5693,2.5693,2.5693,2.5693,2.5693,2.5693,2.5693,2.5693,2.5693,2.5693,2.5693,2.5693,2.5693,2.5693,2.5693,2.5693,2.5693,2.5693,2.5693,2.5693,2.5693,2.5693,2.5693,2.5693,2.5693,0.0,0.0,0.0,0.0,0.0,0.0,0.0,0.0,0.0,2.9729,2.9804,2.9804,2.9804,2.9804,2.9804,0.0,0.0,0.0,2.9804,2.9804,2.9804,2.9804,2.9804,2.9804,2.9804,2.9804,2.9804,2.9804,2.988,2.993,2.993,2.993,3.0231,3.0758,3.0758,3.0984,3.1386,3.1386,3.1386,3.1386,3.1386,3.1386,3.1386,3.1386,3.111,3.0758,3.0758,3.0407,2.993,2.993,0.0,0.0,0.0,0.0,2.845,2.8291,2.7585,2.6689,2.5986,2.5589,2.5424,2.5677,2.5653,2.5803,2.6594,2.6484,2.6187,2.6091,2.5868,0.0,0.0,0.0,0.0,0.0,0.0,0.0,0.0,0.0,0.0,0.0,0.0,0.0,0.0,0.0,0.0,0.0,0.0,0.0,2.5693,2.5693,2.5693,2.5693,2.5693,2.5693,2.5693,2.5693,2.5693,2.5693,2.5693,2.5693,2.5693,2.5693,2.5693,2.5693,2.5693,2.5693,2.5693,2.5693,2.5693,2.5693,2.5693,2.5693,2.5693,2.5693,2.5693,2.5693,0.0,0.0,0.0,0.0,0.0,0.0,0.0,0.0,0.0,0.0,2.9804,2.9804,2.9804,2.9804,2.9804,2.9804,2.9804,2.9804,2.9804,0.0,0.0,2.9804,2.9804,2.9804,2.9804,2.9804,2.9804,2.9804,3.0281,3.0507,3.0507,3.0507,3.0783,3.1286,3.1286,3.1311,3.1386,3.1386,3.1386,3.1386,3.1386,3.1386,3.1386,3.1386,3.1361,3.1286,3.1286,3.0959,3.0507,3.0507,3.0181,0.0,0.0,0.0,2.8331,2.7528,2.718,2.6894,2.6027,2.5232,2.474,2.5192,2.5561,2.5929,0.0,0.0,2.664,0.0,0.0,0.0,0.0,0.0,0.0,0.0,0.0,0.0,0.0,0.0,0.0,0.0,0.0,0.0,0.0,0.0,0.0,0.0,0.0,0.0,2.5693,2.5693,2.5693,2.5693,2.5693,2.5693,2.5693,2.5693,2.5693,2.5693,2.5693,2.5693,2.5693,2.5693,2.5693,2.5693,2.5693,2.5693,2.5693,2.5693,2.5693,2.5693,2.5693,2.5693,2.5693,2.5693,2.5693,2.5693,0.0,0.0,0.0,0.0,0.0,0.0,0.0,0.0,0.0,0.0,0.0,2.9804,2.9804,2.9804,2.9804,2.9804,2.9804,2.9804,2.9804,2.9804,2.9804,2.9804,3.008,3.0256,3.0256,3.0532,3.0683,3.0683,3.0934,3.121,3.1512,3.1512,3.1637,3.1863,3.1863,3.2039,3.234,3.234,3.234,3.234,3.234,3.234,3.234,3.234,3.2139,3.1863,3.1863,3.1512,3.106,3.106,3.0683,3.0177,2.9797,0.0,0.0,0.0,2.8593,2.8315,2.6894,2.5883,2.5211,2.5197,2.5564,2.5999,2.6336,2.6668,2.6853,2.6592,0.0,0.0,0.0,0.0,0.0,0.0,0.0,0.0,0.0,0.0,0.0,0.0,0.0,0.0,0.0,0.0,0.0,0.0,2.5693,2.5693,2.5693,2.5693,2.5693,2.5693,2.5693,2.5693,2.5693,2.5693,2.5693,2.5693,2.5693,2.5693,2.5693,2.5693,2.5693,2.5693,2.5693,2.5693,2.5693,2.5693,2.5693,2.5693,2.5693,2.5693,2.5693,2.5693,2.5693,2.5693,0.0,0.0,0.0,0.0,0.0,0.0,0.0,0.0,0.0,0.0,0.0,3.0206,3.0206,0.0,0.0,0.0,3.0206,3.0206,3.0206,3.0206,3.0206,3.0206,3.0583,3.0809,3.0809,3.1185,3.1386,3.1386,3.1537,3.1813,3.2215,3.2365,3.2441,3.2441,3.2441,3.2667,3.3111,3.3111,3.3111,3.3111,3.3111,3.3111,3.3111,3.3111,3.2817,3.2441,3.2441,3.2064,3.1587,3.1587,3.126,3.0809,3.0809,3.0432,0.0,0.0,0.0,2.917,2.781,2.6812,2.599,2.5464,2.5842,2.6396,0.0,0.0,2.7138,0.0,0.0,0.0,0.0,0.0,0.0,0.0,0.0,0.0,0.0,0.0,0.0,0.0,0.0,0.0,0.0,0.0,0.0,0.0,2.5693,2.5693,2.5693,2.5693,2.5693,2.5693,2.5693,2.5693,2.5693,2.5693,2.5693,2.5693,2.5693,2.5693,2.5693,2.5693,2.5693,2.5693,2.5693,2.5693,2.5693,2.5693,2.5693,2.5693,2.5693,2.5693,2.5693,2.5693,2.5693,2.5693,0.0,0.0,0.0,0.0,0.0,0.0,0.0,0.0,0.0,0.0,0.0,3.1311,3.1311,3.1311,3.1311,3.1311,3.1311,3.1311,3.1311,3.1311,3.1311,3.1311,3.1336,0.0,3.1361,3.1386,3.1386,3.1386,3.1913,3.219,3.2215,3.2767,3.3043,3.3043,3.3043,3.3043,3.3111,3.3111,3.3111,3.3111,3.3111,3.3111,3.3111,3.3111,3.3068,3.3043,3.3043,3.2667,3.2164,3.2164,3.1813,3.1361,3.1361,3.0984,3.0583,0.0,0.0,0.0,2.845,2.773,2.6812,2.5988,2.6741,2.7402,0.0,0.0,0.0,0.0,0.0,0.0,0.0,0.0,0.0,0.0,0.0,0.0,0.0,0.0,0.0,0.0,0.0,0.0,0.0,0.0,0.0,0.0,2.5693,2.5693,2.5693,2.5693,2.5693,2.5693,2.5693,2.5693,2.5693,2.5693,2.5693,2.5693,2.5693,2.5693,2.5693,2.5693,2.5693,2.5693,2.5693,2.5693,2.5693,2.5693,2.5693,2.5693,2.5693,2.5693,2.5693,2.5693,2.5693,2.5693,0.0,0.0,0.0,0.0,0.0,0.0,0.0,0.0,0.0,0.0,0.0,0.0,0.0,3.1386,3.1386,3.1386,3.1386,3.1386,3.1386,3.1386,3.1386,3.1386,3.1738,3.1913,3.1913,3.229,3.2466,3.2466,3.2667,3.2767,3.2767,3.2993,3.3111,3.3111,3.3111,3.3111,3.3111,3.3111,3.3111,3.3111,3.3111,3.3111,3.3111,3.3111,3.3111,3.3111,3.3111,3.2943,3.2767,3.2767,3.239,3.1913,3.1913,3.1562,3.111,3.111,3.0533,2.9727,2.9181,2.8514,2.777,2.6853,2.7239,2.7781,2.7719,2.7788,0.0,0.0,0.0,0.0,0.0,0.0,0.0,0.0,0.0,0.0,0.0,0.0,0.0,0.0,0.0,0.0,0.0,0.0,0.0,0.0,0.0,2.6062,2.5742,2.5868,2.5868,2.5693,2.5693,2.5693,2.5693,2.5693,2.5693,2.5693,2.5693,2.5693,2.5693,2.5693,2.5693,2.5693,2.5693,2.5693,2.5693,2.5693,2.5693,2.5693,2.5693,2.5693,2.5693,2.5693,2.5693,2.5693,0.0,0.0,0.0,3.1964,0.0,3.1964,3.1964,3.1964,3.1964,3.1964,0.0,0.0,0.0,0.0,3.1964,3.1964,3.1964,3.1964,3.1964,3.1964,3.1964,3.1964,3.2315,3.2516,3.2516,3.2692,3.2893,3.3111,3.2893,3.2893,3.3111,3.3111,3.3111,3.3111,3.3111,3.3111,3.3111,3.3111,3.3111,3.3111,3.3111,3.3111,3.3111,3.3111,3.3111,3.3111,3.3111,3.3111,3.3111,3.3111,3.2817,3.2516,3.2516,3.2114,3.1637,3.1436,3.116,3.0713,2.9926,2.9487,2.893,2.7857,2.8028,2.8469,2.8414,0.0,0.0,0.0,0.0,0.0,0.0,0.0,0.0,0.0,0.0,0.0,0.0,0.0,0.0,0.0,0.0,0.0,0.0,0.0,0.0,0.0,0.0,0.0,2.5965,2.6159,2.611,2.582,2.5742,2.5693,2.5693,2.5693,2.5693,2.5693,2.5693,2.5693,2.5693,2.5693,2.5693,2.5693,2.5693,2.5693,2.5693,2.5693,2.5693,2.5693,2.5693,2.5693,2.5693,2.5693,2.5693,2.5693,3.3111,3.3111,3.3111,3.3111,3.3111,3.3111,3.3111,3.3111,3.3111,3.3111,0.0,0.0,0.0,0.0,0.0,3.3111,3.3111,3.3111,3.3111,3.3111,3.3111,3.3111,3.3111,3.3111,3.3111,3.2516,3.2516,3.3111,3.2516,3.2516,3.3111,3.3111,3.3111,3.3111,3.3111,3.3111,3.3111,3.3111,3.3111,3.3111,3.3111,3.3111,3.3111,3.3111,3.3111,3.3111,3.3111,3.3111,3.3111,3.3111,0.0,3.3111,3.3111,3.2692,3.2139,3.1587,3.1436,3.1311,0.0,0.0,0.0,2.8897,2.9194,0.0,2.8179,0.0,2.9862,0.0,0.0,0.0,0.0,0.0,0.0,0.0,0.0,0.0,0.0,0.0,0.0,0.0,0.0,0.0,0.0,0.0,0.0,0.0,2.6496,2.6496,2.6496,2.6496,2.64,2.6091,2.5868,2.5693,2.5693,2.5693,2.5693,2.5693,2.5693,2.5693,2.5693,2.5693,2.5693,2.5693,2.5693,2.5693,2.5693,2.5693,2.5693,2.5693,2.5693,2.5693,2.5693,2.5693,2.5693,2.5693,3.3111,3.3111,3.3111,3.3111,3.3111,3.3111,3.3111,3.3111,3.3111,0.0,0.0,0.0,3.3111,3.3111,3.3111,3.3111,3.3111,3.3111,3.3111,3.3111,3.3111,3.3111,3.3111,3.3111,3.3111,3.2918,3.2918,3.3111,3.2918,3.2918,3.3111,3.3111,3.3111,3.3111,3.3111,3.3111,3.3111,3.3111,3.3111,3.3111,3.3111,3.3111,3.3111,3.3111,3.3111,3.3111,3.3111,3.3111,3.3111,0.0,3.3111,3.3111,3.3111,3.3011,3.2817,3.2641,3.2315,3.1964,3.1813,0.0,0.0,0.0,0.0,0.0,2.9917,2.9569,2.9559,0.0,0.0,0.0,0.0,0.0,0.0,0.0,0.0,0.0,0.0,0.0,0.0,0.0,0.0,0.0,0.0,0.0,0.0,0.0,2.6976,2.6928,2.6496,2.6496,2.64,2.6091,2.6042,2.5917,2.5693,2.5693,2.5693,2.5693,2.5693,2.5693,2.5693,2.5693,2.5693,2.5693,2.5693,2.5693,2.5693,2.5693,2.5693,2.5693,2.5693,2.5693,2.5693,2.5693,2.5693,2.5693,3.3111,3.3111,3.3111,3.3111,3.3111,3.3111,3.3111,3.3111,3.3111,0.0,0.0,0.0,3.3111,3.3111,3.3111,3.3111,3.3111,3.3111,3.3111,3.3111,3.3111,3.3111,3.3111,3.3111,3.3111,3.2842,3.2842,3.3111,3.2842,3.2842,3.3111,3.3111,3.3111,3.3111,3.3111,3.3111,3.3111,3.3111,3.3111,3.3111,3.3111,3.3111,3.3111,3.3111,3.3111,3.3111,3.3111,0.0,3.3111,3.3111,3.3111,0.0,3.3111,3.3111,3.3111,3.3111,3.2842,3.2516,3.229,3.1964,3.1612,3.106,0.0,0.0,3.0658,3.0316,3.0245,0.0,0.0,0.0,0.0,0.0,0.0,0.0,0.0,0.0,0.0,0.0,0.0,0.0,0.0,0.0,0.0,2.7309,2.7214,2.7092,2.7214,2.7167,2.6832,2.6736,2.6592,2.6448,2.6207,2.6014,2.5868,2.5791,2.5693,2.5693,2.5693,2.5693,2.5693,2.5693,2.5693,2.5693,2.5693,2.5693,2.5693,2.5693,2.5693,2.5693,2.5693,2.5693,2.5693,2.5693,2.5693,2.5693,0.0,3.3111,3.3111,3.3111,3.3111,3.3111,3.3111,3.3111,3.3111,0.0,3.3111,3.3111,3.3111,3.3111,3.3111,3.3111,3.3111,3.3111,3.3111,3.3111,3.3111,3.3111,3.3111,3.3111,3.3111,3.2566,3.2566,3.3111,3.2566,3.2566,3.3111,3.3111,3.3111,3.3111,3.3111,3.3111,3.3111,3.3111,3.3111,3.3111,3.3111,3.3111,3.3111,3.3111,3.3162,3.3169,3.3093,3.3162,3.3169,3.3093,3.3111,0.0,0.0,0.0,0.0,0.0,3.3111,3.2968,3.2441,3.2315,3.2164,3.1612,3.1486,0.0,3.0809,3.106,3.1386,3.1386,0.0,0.0,0.0,0.0,0.0,0.0,0.0,0.0,0.0,0.0,0.0,0.0,0.0,0.0,2.7715,2.7526,2.7452,2.7452,2.7357,2.7309,2.7309,2.7071,2.6948,2.69,2.6448,2.6187,2.6139,2.5917,2.5791,2.5742,2.5742,2.5742,2.5693,2.5693,2.5742,2.5742,2.5693,2.5742,2.5742,2.5693,2.5693,2.5693,2.5693,2.5693,2.5693,2.5693,2.5693,2.5693,3.3111,3.3111,3.3111,3.3111,3.3111,3.3111,3.3111,3.3111,3.3111,3.3111,3.3111,3.3111,3.3111,3.3111,3.3111,3.3111,3.3111,3.3111,3.3111,3.3111,3.3111,3.3111,3.3111,3.3111,3.3111,3.2968,3.2968,3.3111,3.2968,3.2968,3.3111,3.3111,3.3111,3.3111,3.3111,3.3111,3.3111,3.3111,3.3111,3.3111,3.3111,3.3111,3.3111,3.3111,3.3345,3.3671,3.3244,3.337,3.3671,3.3262,3.3111,3.3111,0.0,0.0,0.0,3.3111,0.0,0.0,3.2943,3.2893,0.0,0.0,0.0,0.0,3.1361,3.1311,3.1386,0.0,0.0,0.0,0.0,0.0,0.0,0.0,0.0,0.0,0.0,0.0,0.0,0.0,0.0,0.0,2.9669,2.891,2.8445,2.8445,2.7715,2.7309,2.7309,2.7262,2.7119,2.69,2.6805,2.664,2.64,2.6352,2.6255,2.6014,2.6014,2.5917,2.5693,2.5693,2.582,2.6014,2.5771,2.582,2.6014,2.5771,2.5693,2.5693,2.5693,2.5693,2.5693,2.5693,2.5693,2.5693,3.3111,3.3111,3.3111,3.3111,3.3111,3.3111,3.3111,3.3111,3.3111,3.3111,3.3111,3.3111,3.3111,3.3111,3.3111,3.3111,3.3111,3.3111,3.3111,3.3111,3.3111,3.3111,3.3111,3.3111,3.3111,3.3111,3.3111,3.3111,3.3111,3.3111,3.3111,3.3111,3.3111,3.3111,3.3111,3.3111,3.3111,3.3111,3.3244,3.3495,3.3495,3.3495,3.352,3.3796,3.4073,3.4274,3.3997,3.3897,3.3847,3.3571,3.3294,0.0,3.3111,3.3111,3.3111,0.0,3.3111,3.3111,0.0,0.0,0.0,3.2717,0.0,0.0,0.0,3.1813,3.1813,0.0,0.0,0.0,0.0,0.0,0.0,0.0,0.0,0.0,0.0,0.0,0.0,0.0,0.0,0.0,3.026,2.9761,2.9211,2.8724,2.8258,2.7809,2.7309,2.7309,2.7214,2.7071,2.6948,2.6853,2.6709,2.6544,2.6448,2.6304,2.6304,2.6159,2.5917,2.6014,2.6014,2.5917,2.6014,2.6014,2.5917,2.5917,2.582,2.5693,2.5693,2.5693,2.5693,2.5693,2.5693,2.5693,3.3162,3.3111,3.3111,3.3111,3.3111,3.3111,3.3111,3.3111,3.3111,3.3111,3.3111,3.3111,3.3111,3.3111,3.3111,3.3111,3.3111,3.3111,3.3111,3.3111,3.3111,3.3111,3.3111,3.3111,3.3111,3.3111,3.3111,3.3111,3.3111,3.3111,3.3111,3.3111,3.3111,3.3111,3.3111,3.3111,3.3136,3.3194,3.3495,3.3922,3.4123,3.4148,3.4098,3.455,3.4731,3.4831,3.4831,3.4525,3.4048,3.4048,3.3696,3.3244,3.3244,3.3169,0.0,0.0,0.0,0.0,0.0,0.0,0.0,0.0,0.0,3.2943,0.0,0.0,0.0,0.0,0.0,0.0,0.0,0.0,0.0,0.0,0.0,0.0,0.0,0.0,0.0,0.0,0.0,0.0,0.0,3.0576,3.0079,2.9073,2.8817,2.8351,2.762,2.7404,2.7309,2.7309,2.7092,2.6996,2.6996,2.6736,2.664,2.6592,2.6592,2.6448,2.6187,2.64,2.6304,2.5936,2.6304,2.6255,2.5936,2.611,2.6014,2.5791,2.5742,2.5693,2.5693,2.5693,2.5693,2.5693,3.3269,3.3111,3.3111,3.3111,3.3111,3.3111,3.3111,3.3111,3.3111,3.3111,3.3111,3.3111,3.3111,3.3111,3.3111,3.3111,3.3111,3.3111,3.3111,3.3111,3.3111,3.3111,3.3111,3.3111,3.3111,3.3111,3.3111,3.3111,3.3111,3.3111,3.3111,3.3111,3.3111,3.3111,3.3111,3.3111,3.3119,3.3596,3.3847,3.3972,3.4931,3.5031,0.0,3.47,3.4981,3.5408,3.5408,3.5056,3.4625,0.0,3.4248,3.3796,0.0,3.347,3.3111,3.3111,0.0,0.0,0.0,0.0,0.0,0.0,3.3111,0.0,0.0,0.0,3.2842,3.2315,0.0,0.0,0.0,0.0,0.0,0.0,0.0,0.0,0.0,0.0,0.0,0.0,0.0,0.0,0.0,3.1933,3.1024,3.0125,2.9211,2.8631,2.8538,2.7762,2.7309,2.7309,2.7262,2.7262,2.7262,2.7214,2.7071,2.6853,2.6853,2.6688,2.6448,2.6496,2.6613,2.6757,2.6592,2.6592,2.6757,2.6544,2.6304,2.6042,2.5771,2.5693,2.5693,2.5693,2.5693,2.5693,3.4198,3.4022,3.4022,3.4022,3.4022,3.4022,3.4022,3.4022,3.4022,3.4022,3.4022,3.4022,3.4022,3.4022,3.4022,3.4022,3.4022,3.3897,0.0,3.3545,3.342,3.3093,3.3111,3.3111,3.3111,3.3111,3.3111,3.3111,3.3111,3.3111,3.3111,3.3111,3.3111,3.3093,3.342,3.3545,3.3596,3.4148,3.455,3.4856,3.5307,3.5558,0.0,3.568,3.583,3.6006,3.6006,3.5655,3.5157,0.0,3.4826,0.0,0.0,0.0,0.0,0.0,0.0,0.0,0.0,0.0,0.0,0.0,0.0,0.0,3.3111,0.0,3.3061,0.0,0.0,0.0,0.0,0.0,0.0,0.0,3.2918,0.0,0.0,0.0,0.0,0.0,0.0,0.0,0.0,0.0,0.0,0.0,3.0621,2.9897,2.8771,2.891,2.8445,2.7357,2.7809,2.7857,2.7309,2.7309,2.7262,2.7119,2.7119,2.6996,2.6757,2.688,2.6832,2.6709,2.688,2.6832,2.664,2.6688,2.6544,2.6304,2.6207,2.5965,2.5693,2.5693,2.5693,2.5693,3.5253,3.4926,3.468,3.468,3.468,3.468,3.468,3.468,3.468,3.468,3.468,3.468,3.468,3.468,3.468,3.468,3.468,3.455,0.0,0.0,3.3947,3.3545,3.3395,3.3294,3.3294,3.3187,3.3111,3.3111,3.3111,3.3111,3.3111,3.3244,3.3294,3.3319,3.3872,3.4123,3.4148,3.468,3.5132,3.5508,3.5658,3.6006,3.6405,3.6405,3.6405,3.6405,3.6405,3.6107,3.578,3.578,3.5403,0.0,3.4474,0.0,0.0,0.0,0.0,0.0,3.3162,0.0,0.0,0.0,0.0,0.0,0.0,0.0,0.0,0.0,0.0,0.0,0.0,0.0,0.0,3.2867,0.0,3.3018,0.0,0.0,0.0,0.0,0.0,0.0,0.0,0.0,0.0,0.0,0.0,3.1003,2.9578,2.9943,2.9532,2.8117,2.8491,2.8351,2.7668,2.7452,2.7309,2.7309,2.7573,2.7452,2.7044,2.7499,2.7336,2.6736,2.7119,2.7071,2.6736,2.6948,2.7023,2.7003,2.7003,2.6907,2.6648,2.6014,2.5771,2.5693,3.6355,3.5454,3.468,3.468,3.468,3.468,3.468,3.468,3.468,3.468,3.468,3.468,3.468,3.468,3.468,3.468,0.0,3.468,3.47,0.0,3.47,0.0,0.0,3.3872,0.0,3.3345,3.3111,3.3111,3.3111,3.3111,3.3136,3.3621,3.3872,3.3897,3.4449,3.4655,3.4726,3.5232,3.5483,3.5533,3.6132,3.638,3.6405,0.0,3.6405,3.6405,3.6405,0.0,0.0,3.638,3.5981,0.0,0.0,0.0,0.0,0.0,0.0,0.0,0.0,0.0,0.0,3.3111,0.0,0.0,0.0,0.0,3.3111,0.0,0.0,0.0,0.0,0.0,3.2893,3.234,3.2717,0.0,0.0,0.0,0.0,0.0,0.0,0.0,0.0,0.0,0.0,0.0,0.0,0.0,3.1492,3.0666,3.017,3.0125,2.9165,2.8678,2.8678,2.7762,2.7309,2.7309,2.8211,2.8186,2.7309,2.8211,2.8117,2.7262,2.7309,2.7309,2.7262,2.7262,2.7668,2.8236,2.8236,2.868,2.9028,2.6887,2.5917,2.5742,3.6405,3.6103,3.5805,3.5805,3.5805,3.5805,3.5805,3.5805,3.5805,3.5805,3.5805,0.0,0.0,3.5805,3.5805,0.0,0.0,3.5655,3.5257,3.5232,0.0,0.0,0.0,3.4449,0.0,0.0,3.4173,3.4173,3.4173,3.4173,3.4173,3.4349,3.4449,3.4474,3.4981,3.5232,3.5257,3.5855,3.6081,0.0,0.0,3.6405,3.6405,0.0,3.6405,3.6405,3.6405,3.6405,0.0,3.6405,3.6279,3.6031,3.5608,3.5382,3.5107,3.46,3.4449,0.0,0.0,0.0,3.3545,3.3212,0.0,0.0,0.0,0.0,0.0,0.0,0.0,0.0,0.0,0.0,3.3018,3.2817,3.2943,3.3061,0.0,0.0,0.0,0.0,0.0,0.0,0.0,0.0,0.0,0.0,3.281,0.0,0.0,3.1933,3.1536,3.026,3.0486,3.0306,2.9715,2.9395,2.9211,2.9211,2.9532,2.9532,2.9211,2.9532,2.9532,2.9211,2.9211,2.8863,2.8233,2.8233,2.7977,2.7715,2.8305,2.8609,2.8541,2.7652,2.7226,2.7105,3.6405,3.6405,3.6405,3.6405,3.6405,3.6405,3.6405,3.6405,3.6405,0.0,3.6405,0.0,3.6681,0.0,3.6707,0.0,3.6707,3.6433,3.5881,3.583,0.0,3.5328,3.5127,0.0,0.0,0.0,0.0,0.0,3.468,3.468,3.468,3.4881,3.4981,3.4981,3.5579,3.583,3.5855,3.6207,3.6405,0.0,0.0,3.6405,0.0,0.0,3.6405,3.6405,0.0,3.6405,3.6405,3.6405,3.6405,3.6355,3.5956,3.583,3.573,3.5132,3.4981,3.4856,3.4349,3.4048,0.0,3.3445,3.3219,0.0,3.3111,0.0,0.0,0.0,0.0,0.0,0.0,0.0,3.3111,3.3111,3.3111,3.3111,0.0,3.3111,0.0,0.0,0.0,0.0,0.0,0.0,0.0,3.3111,3.3111,3.281,0.0,0.0,3.2525,3.1247,3.1492,3.1315,3.0711,3.0351,3.0215,3.0215,3.0531,3.0531,3.0215,3.0531,3.0531,3.0215,3.0215,2.9852,2.9211,2.9211,2.9073,2.891,2.9486,2.9852,2.9875,2.8936,2.8287,2.7793,3.6405,3.6405,3.6405,3.6405,3.6405,3.6405,3.6405,0.0,3.6405,0.0,3.643,3.6656,3.7136,3.7211,3.7236,3.7236,3.7236,3.6985,3.648,3.6455,0.0,0.0,3.5855,3.5533,3.5533,0.0,0.0,0.0,0.0,3.4801,3.4826,3.5307,3.5533,3.5558,3.6132,3.6405,3.6405,3.6405,3.6405,3.6405,3.6405,3.6405,3.6405,3.6405,3.6405,3.6405,3.6405,3.6405,3.6405,3.6405,3.6405,3.6405,3.6405,3.6405,3.6304,3.5683,3.5533,3.5433,3.4881,3.4374,3.3972,3.3947,0.0,0.0,0.0,0.0,3.3111,0.0,0.0,0.0,0.0,0.0,0.0,3.3111,3.3111,3.3111,3.3111,0.0,0.0,0.0,0.0,0.0,0.0,0.0,3.3111,3.3111,3.3111,3.3111,0.0,0.0,3.3111,3.3111,3.2176,3.1669,3.1669,3.08,3.0351,3.0351,3.127,3.1226,3.0396,3.127,3.1181,3.0351,3.0351,3.0306,3.026,3.026,3.0756,3.1536,3.1581,3.222,3.2853,3.0687,2.9074,2.7887,3.6405,3.6405,3.6405,3.6405,3.6405,3.6405,0.0,0.0,0.0,0.0,3.6757,3.7036,3.7161,3.7538,3.7789,3.7789,3.7789,0.0,0.0,0.0,0.0,3.643,3.6279,3.6157,3.6157,3.6006,0.0,3.5931,0.0,3.5931,3.5956,3.6081,3.6157,3.6157,3.6355,3.6405,3.6405,3.6405,3.6405,3.6405,3.6405,3.6405,3.6405,0.0,3.6405,3.6405,3.6405,3.6405,3.6405,3.6405,3.6405,3.6405,3.6405,3.6405,3.638,3.6182,3.6157,3.6031,3.5433,3.5182,3.4981,3.458,3.4098,3.3696,0.0,0.0,0.0,0.0,0.0,0.0,0.0,0.0,0.0,3.3111,3.3111,3.3111,0.0,0.0,0.0,3.3111,0.0,0.0,0.0,3.3111,3.3111,3.3111,3.3111,3.3111,3.3111,0.0,0.0,3.3111,3.2853,3.2698,3.2698,3.2481,3.2351,3.2351,3.2612,3.2568,3.2351,3.2612,3.2568,3.2351,3.2351,3.1933,3.1226,3.1226,3.0979,3.0621,3.1359,3.222,3.2939,3.1625,3.0373,2.9212,3.6405,3.6405,3.6405,3.6405,0.0,0.0,3.6405,3.6606,0.0,3.6782,3.7211,0.0,3.7889,3.8191,3.8391,3.8391,3.8391,0.0,3.7588,0.0,0.0,3.6782,3.6782,3.6656,3.6405,3.6405,0.0,3.6405,0.0,3.6405,3.6405,3.6405,3.6405,3.6405,3.6405,3.6405,3.6405,3.6405,3.6405,3.6405,3.6405,3.6405,0.0,3.6405,3.6405,3.6405,3.6405,3.6405,3.6405,3.6405,3.6405,3.6405,3.6405,3.6405,3.6405,3.6405,3.6405,3.6355,3.5981,3.5683,3.5433,3.5107,3.4675,3.4248,3.4248,3.3822,3.3445,0.0,0.0,0.0,0.0,0.0,0.0,3.3111,3.3111,0.0,0.0,0.0,0.0,0.0,3.3111,0.0,0.0,3.3111,3.3111,3.3111,3.3111,3.3111,0.0,0.0,0.0,3.3111,3.3111,3.3111,3.3111,3.3111,3.3111,3.3111,3.3111,3.3111,3.3111,3.3111,3.3111,3.3111,3.3111,3.2766,3.2264,3.2264,3.1933,3.1536,3.2045,3.2568,3.3025,3.2438,3.1468,3.0305,3.6405,3.6405,3.643,0.0,0.0,0.0,0.0,3.6983,0.0,3.7287,0.0,3.8316,3.8818,3.8944,3.8969,3.8969,0.0,3.8743,3.8165,3.8115,3.7864,3.7312,3.7236,3.696,3.6531,3.6455,3.6405,0.0,0.0,3.6405,3.6405,3.6405,3.6405,3.6405,3.6405,3.6405,3.6405,3.6405,3.6405,3.6405,3.6405,3.6405,3.6405,3.6405,3.6405,3.6405,3.6405,3.6405,3.6405,3.6405,3.6405,3.6405,3.6405,3.6405,3.6405,3.6405,3.6405,3.6405,3.6405,3.6006,3.5608,3.5608,3.5182,3.4781,3.4781,3.4399,3.3997,3.3922,3.352,3.3169,0.0,0.0,0.0,0.0,0.0,0.0,0.0,0.0,0.0,0.0,0.0,0.0,0.0,0.0,3.3111,3.3111,3.3111,3.3111,0.0,0.0,0.0,3.3111,3.3111,3.3111,3.3111,0.0,3.3111,3.3111,3.3111,3.3111,3.3111,3.3111,3.3111,3.3111,3.3111,3.3111,3.3111,3.3111,3.3111,3.3111,3.3111,3.3111,3.3111,3.3111,3.237,3.1356,3.6405,3.6405,3.6556,0.0,0.0,3.7186,3.7638,3.7412,3.7337,3.7789,3.8366,3.8768,3.8919,3.927,3.9546,3.9546,3.9546,0.0,0.0,0.0,0.0,3.7889,3.7437,3.7136,3.7036,3.6631,3.6405,0.0,0.0,3.6405,3.6405,3.6405,3.6405,3.6405,3.6405,3.6405,3.6405,3.6405,0.0,3.6405,3.6405,3.6405,3.6405,3.6405,3.6405,3.6405,3.6405,3.6405,3.6405,3.6405,3.6405,3.6405,3.6405,3.6405,3.6405,3.6405,3.6405,3.6405,3.6405,3.6329,3.6254,3.6254,3.5805,3.5357,3.5357,3.4931,3.4449,3.3997,3.3822,3.3621,3.3169,0.0,0.0,0.0,0.0,0.0,0.0,0.0,0.0,0.0,0.0,3.3111,0.0,0.0,0.0,3.3111,3.3111,3.3111,0.0,0.0,0.0,0.0,3.3111,0.0,0.0,0.0,3.3111,3.3111,3.3111,3.3111,3.3111,3.3111,3.3111,3.3111,3.3111,3.3111,3.3111,3.3111,3.3111,3.3111,3.3111,3.3111,3.3111,3.3111,3.2939,3.2612,3.7211,0.0,3.7287,0.0,0.0,0.0,0.0,3.8216,3.814,3.8417,3.8944,3.9295,3.9295,3.9546,3.9697,3.9697,3.9697,3.9572,3.932,3.9295,3.9044,3.8492,3.7914,3.7487,3.7186,3.6681,3.6405,3.6405,0.0,3.6405,3.6405,3.6405,3.6405,3.6405,3.6405,3.6405,0.0,0.0,0.0,3.6405,3.6405,3.6405,3.6405,3.6405,3.6405,3.6405,3.6405,3.6405,3.6405,3.6405,3.6405,3.6405,3.6405,3.6405,3.6405,3.6405,3.6405,3.6405,3.6405,3.6405,3.6405,3.6405,3.6157,3.5981,3.5981,3.5508,3.5031,3.4756,3.4525,3.4148,3.3596,3.3269,0.0,0.0,0.0,0.0,0.0,0.0,0.0,0.0,0.0,0.0,0.0,0.0,0.0,0.0,0.0,0.0,0.0,0.0,0.0,0.0,0.0,0.0,0.0,0.0,0.0,3.3111,3.3111,3.3111,3.3111,3.3111,3.3111,3.3111,3.3111,3.3111,3.3111,3.3111,3.3111,3.3111,3.3111,3.3111,3.3111,3.3111,3.3111,3.3025,3.8015,3.8015,0.0,0.0,3.8191,3.8391,3.8969,3.9095,3.9095,3.9095,3.9421,3.9697,3.9697,3.9697,3.9697,3.9697,3.9697,3.9697,3.9697,3.9697,3.9496,3.9069,3.8492,3.7939,3.7362,3.681,3.6531,0.0,0.0,0.0,3.6405,3.6405,3.6405,3.6405,0.0,0.0,0.0,0.0,3.6405,3.6405,3.6405,3.6405,3.6405,3.6405,3.6405,3.6405,3.6405,3.6405,3.6405,3.6405,3.6405,3.6405,3.6405,3.6405,3.6405,3.6405,3.6405,3.6405,3.6405,3.6405,3.6405,3.6405,3.6405,3.6405,3.6405,3.6031,3.5633,3.5533,3.5056,3.455,3.3997,3.3545,0.0,0.0,0.0,0.0,0.0,0.0,0.0,0.0,0.0,0.0,3.3111,0.0,0.0,0.0,0.0,3.3111,3.3111,3.3111,3.3111,0.0,0.0,3.3111,3.3111,0.0,3.3111,3.3111,3.3111,3.3111,3.3111,3.3111,3.3111,3.3111,3.3111,3.3111,3.3111,3.3111,3.3111,3.3111,3.3111,3.3111,3.3111,3.3111,3.3111,3.3111,0.0,0.0,0.0,0.0,0.0,0.0,3.9521,3.9622,3.9622,3.9622,3.9672,3.9697,3.9697,3.9697,3.9697,3.9697,3.9697,3.9697,3.9697,3.9697,3.9672,3.9622,3.9094,3.8517,3.7939,3.7387,3.6908,0.0,0.0,3.6405,0.0,3.6405,3.6405,0.0,0.0,0.0,0.0,3.6405,3.6405,3.6405,3.6405,3.6405,3.6405,3.6405,3.6405,3.6405,3.6405,3.6405,3.6405,3.6405,3.6405,3.6405,3.6405,3.6405,3.6405,3.6405,3.6405,3.6405,3.6405,3.6405,3.6405,3.6405,3.6405,3.6405,3.6405,3.638,3.6132,3.5608,3.5056,3.455,3.3997,3.3847,3.3671,0.0,0.0,0.0,0.0,0.0,0.0,0.0,0.0,0.0,0.0,3.3111,0.0,0.0,3.3111,3.3111,3.3111,3.3111,3.3111,3.3111,0.0,3.3111,3.3111,3.3111,3.3111,3.3111,3.3111,3.3111,3.3111,3.3111,3.3111,3.3111,3.3111,3.3111,3.3111,3.3111,3.3111,3.3111,3.3111,3.3111,3.3111,3.3111,3.3111,3.3111,0.0,0.0,0.0,0.0,0.0,0.0,0.0,4.0199,4.03,4.0651,4.04,4.03,4.0651,4.0375,4.0199,4.0199,3.9898,3.9697,3.9697,3.9697,3.9697,3.9697,3.917,3.8818,3.8542,3.7638,3.7086,0.0,0.0,0.0,0.0,0.0,0.0,0.0,0.0,3.6405,3.6405,3.6405,3.6405,3.6405,3.6405,3.6405,3.6405,3.6405,3.6405,3.6405,3.6405,3.6405,3.6405,3.6405,3.6405,3.6405,3.6405,3.6405,3.6405,3.6405,3.6405,3.6405,3.6405,3.6405,3.6405,3.6405,3.6405,3.6405,3.6405,3.6405,3.6355,3.6081,3.5604,3.5107,3.4881,3.4715,3.4401,0.0,0.0,0.0,0.0,0.0,0.0,0.0,0.0,3.3111,0.0,0.0,0.0,0.0,0.0,0.0,3.3111,3.3111,0.0,3.3111,0.0,3.3111,3.3111,3.3111,3.3111,3.3111,3.3111,3.3111,3.3111,3.3111,3.3111,3.3111,3.3111,3.3111,3.3111,3.3111,3.3111,3.3111,3.3111,3.3111,3.3111,3.3111,3.3111,3.3111,4.0174,0.0,4.0174,0.0,4.0174,4.03,4.0701,4.0752,4.0953,4.1505,4.1229,4.1078,4.125,4.0852,4.0526,4.0526,4.0023,3.9697,3.9697,3.9697,3.9697,3.9697,3.932,0.0,3.8919,3.809,3.7513,3.7186,3.6832,0.0,0.0,0.0,0.0,0.0,3.6405,3.6405,3.6405,3.6405,3.6405,3.6405,3.6405,3.6405,3.6405,3.6405,3.6405,3.6405,3.6405,3.6405,3.6405,3.6405,3.6405,3.6405,3.6405,3.6405,3.6405,3.6405,3.6405,3.6405,3.6405,3.6405,3.6405,3.6405,3.6405,3.6405,3.6405,3.6405,3.6405,3.6405,3.6103,3.5776,3.5533,3.5319,3.5027,3.4382,0.0,0.0,0.0,0.0,0.0,0.0,3.3111,3.3111,3.3111,3.3111,0.0,0.0,0.0,0.0,0.0,0.0,0.0,0.0,0.0,0.0,0.0,3.3111,3.3111,3.3111,3.3111,3.3111,3.3111,3.3111,3.3111,3.3111,3.3111,3.3111,3.3111,3.3111,3.3111,3.3111,3.3111,3.3111,3.3111,3.3111,3.3111,3.3111,4.1275,4.1275,4.1275,4.1275,4.1275,4.1275,4.1275,4.1275,4.153,4.2137,4.2187,4.1932,4.1351,4.0852,4.0526,4.0526,4.0023,3.9697,3.9697,3.9697,3.9697,0.0,0.0,3.9421,3.8919,3.8919,3.8316,3.7186,0.0,0.0,3.6405,0.0,3.6405,3.6405,3.6405,3.6405,3.6405,3.6405,3.6405,3.6405,3.6405,3.6405,3.6405,3.6405,3.6405,3.6405,3.6405,3.6405,3.6405,3.6405,3.6405,3.6405,3.6405,3.6405,3.6405,3.6405,3.6405,3.6405,3.6405,3.6405,3.6405,3.6405,3.6405,3.6405,3.6405,3.6405,3.6405,3.6405,3.6521,3.6438,3.5655,3.5483,3.5399,3.5142,0.0,0.0,0.0,0.0,0.0,0.0,3.3111,3.3111,3.3111,3.3111,0.0,0.0,0.0,0.0,0.0,0.0,0.0,3.3111,3.3111,0.0,3.3111,3.3111,3.3111,3.3111,3.3111,3.3111,3.3111,3.3111,3.3111,3.3111,3.3111,3.3111,3.3111,3.3111,3.3111,3.3111,3.3111,3.3111,3.3111,3.3111,3.3111,3.3111,4.1275,4.1275,4.1275,4.1275,4.1275,4.1455,4.1831,4.1882,4.2082,4.2635,4.2766,4.266,4.2484,4.1957,4.148,0.0,4.0576,4.0099,0.0,3.9697,3.9697,3.9697,3.9697,3.9622,3.9446,3.912,3.8743,3.8391,0.0,0.0,0.0,3.7111,3.6983,3.6958,3.6581,3.6405,3.6405,3.6405,3.6405,3.6405,3.6405,3.6405,3.6405,3.6405,3.6405,3.6405,3.6405,3.6405,3.6405,3.6405,3.6499,3.6593,3.6593,3.6499,3.6405,3.6405,3.6405,3.6405,3.6405,3.6499,3.6593,3.6452,3.6499,3.6593,3.6452,3.6405,3.6452,3.6593,3.6662,3.6658,3.6599,3.6759,3.6673,3.6018,3.5878,0.0,0.0,0.0,0.0,0.0,3.3424,3.3154,0.0,3.3197,0.0,0.0,0.0,0.0,0.0,0.0,0.0,0.0,3.3111,0.0,3.3111,3.3111,3.3111,3.3111,3.3111,3.3111,3.3093,3.347,3.3646,3.3671,3.4048,3.4198,3.4173,3.3796,3.3646,3.3596,3.3219,3.3111,3.3111,3.3111,3.3111,3.3111,4.1957,4.1957,4.1957,4.1957,4.1957,4.2082,4.2464,4.2514,4.264,4.2936,4.2986,4.2986,4.2986,4.2715,0.0,4.1351,4.0774,4.0275,3.9722,3.9697,3.9697,3.9697,3.9697,3.9697,3.9697,3.9346,0.0,3.8919,3.8291,3.8015,3.799,3.7663,3.7487,3.7487,3.7136,3.6985,3.6985,3.6985,3.6985,3.6985,3.6985,3.6908,3.6732,3.6732,3.6581,3.6405,3.6405,3.6405,3.6405,3.6499,3.6593,3.6709,3.6803,3.6781,3.664,3.6546,3.6452,3.6405,3.6405,3.6546,3.6662,3.6546,3.6687,3.6781,3.6546,3.6593,3.6687,3.6662,3.6756,3.6922,3.7062,3.7273,3.7237,3.6831,3.6644,3.6432,3.6025,0.0,0.0,0.0,0.0,0.0,0.0,3.3452,3.3283,0.0,0.0,0.0,0.0,0.0,0.0,3.3111,3.3111,0.0,3.3111,3.3111,3.3111,3.3111,3.3294,3.3395,3.3395,3.3947,3.4198,3.4223,3.4575,3.468,3.4655,3.4349,3.4198,3.4173,3.3822,3.3571,3.3395,3.3395,3.3244,3.3111,4.2986,4.2986,4.2986,0.0,4.2986,0.0,4.2986,4.2986,4.2986,4.2986,4.2986,4.2986,4.2986,4.2986,4.2559,4.1426,0.0,0.0,0.0,3.9697,3.9697,3.9697,3.9697,3.9697,3.9697,3.9697,3.9446,3.8969,3.8391,3.8115,3.8115,3.809,3.8065,3.8065,3.8015,3.8015,3.8015,3.8015,3.8015,3.8015,3.8015,3.7737,3.7285,3.7285,3.6983,3.6505,3.648,3.6455,3.6502,3.664,3.6709,3.6756,3.7062,3.7108,3.7062,3.6803,3.6593,3.6452,3.6452,3.6593,3.6756,3.6709,3.6922,3.7015,3.6756,3.6922,3.7015,3.6803,3.6968,3.7108,3.7155,3.7155,3.7273,3.7505,3.6902,3.6521,3.6774,0.0,0.0,0.0,0.0,0.0,0.0,3.3964,3.3504,0.0,0.0,0.0,0.0,0.0,3.3111,3.3111,3.3111,3.3111,3.3111,3.3111,3.3136,3.3144,3.3696,3.3947,3.3972,3.4525,3.4776,3.4776,3.4826,3.4826,3.4826,3.4756,3.4776,3.4731,3.468,3.4399,3.3947,3.3922,3.3571,3.3162,0.0,0.0,4.2986,4.2986,4.2986,4.2986,4.2986,4.2986,4.2986,4.2986,4.2986,4.2986,4.2986,4.2986,4.271,4.2032,4.1455,4.0727,3.9747,3.9697,3.9697,3.9697,3.9697,3.9697,3.9697,3.9697,3.9622,3.9496,3.9371,3.9295,3.9295,3.8868,3.8668,3.8642,3.8216,3.8015,3.8015,3.8015,3.8114,3.831,3.831,3.8382,3.8449,3.8449,3.8227,3.7855,3.745,3.7177,3.6958,3.6767,3.6828,3.7062,3.732,3.7413,3.7366,3.7062,3.6968,3.6922,3.6922,3.7108,3.7248,3.7062,3.7062,3.7062,3.7015,3.7062,3.7155,3.7248,3.7366,3.7459,3.7644,3.7716,3.7716,3.7808,3.7632,3.7554,3.7599,3.6923,0.0,0.0,3.573,3.5282,3.5476,3.4812,3.4392,0.0,0.0,0.0,0.0,3.3326,3.3283,3.3111,3.3111,3.3111,3.3111,3.3111,3.3294,3.3721,3.4248,3.4525,3.455,3.5056,3.5307,3.5332,3.578,3.6028,3.5931,3.5529,3.5307,3.5257,3.4831,3.465,3.4474,3.4048,3.3822,3.3646,4.2986,4.2986,4.2986,4.2986,4.2986,4.2986,4.2986,4.2986,4.2986,4.2986,4.2986,4.2986,4.2986,4.2986,4.2861,4.2615,4.1806,4.0924,4.0124,3.9848,3.9697,3.9697,3.9697,3.9697,3.9697,3.9697,3.9697,3.9697,3.9697,3.9697,3.9697,3.9396,3.9245,3.922,3.8919,3.8768,3.8768,3.8768,3.8919,3.917,3.917,3.9167,3.9184,3.9184,3.8932,3.8554,3.8248,3.8049,3.7899,3.7577,3.7587,3.7702,3.7675,3.769,3.7644,3.7505,3.732,3.7108,3.7108,3.732,3.7505,3.7459,3.7459,3.7413,3.732,3.7248,3.732,3.7459,3.7505,3.7551,3.7854,3.79,3.79,3.79,3.79,3.79,3.79,3.7521,0.0,3.7248,3.6548,3.6141,3.6337,3.5598,3.5156,3.5156,3.4717,0.0,3.3997,3.3997,3.3726,3.3136,3.3319,3.3445,3.3445,3.3696,3.3972,3.4274,3.4781,3.5056,3.5082,3.5655,3.5906,3.5931,3.6279,3.6405,3.638,3.6031,3.5906,3.5881,3.5579,3.5328,3.5006,3.4731,3.45,3.4198,4.2986,4.2986,4.2986,4.2986,4.2986,4.2986,4.2986,4.2986,4.2986,4.2986,4.2986,4.2986,4.2986,4.2986,4.3011,4.3087,4.2108,4.1175,4.0676,4.0049,3.9697,3.9697,3.9697,3.9697,3.9697,3.9697,3.9697,3.9697,3.9697,3.9697,3.9697,3.9697,3.9697,3.9697,3.9697,3.9697,3.9697,3.9697,3.9903,4.0185,4.0185,4.0058,3.9949,3.9949,3.9591,3.9128,3.9051,3.8977,3.8874,3.8622,3.851,3.848,3.8121,3.8031,3.8004,3.7926,3.7551,3.7201,3.7201,3.7413,3.7598,3.7854,3.79,3.7854,3.7598,3.7551,3.7551,3.7551,3.7551,3.7598,3.7854,3.79,3.79,3.79,3.79,3.79,3.79,0.0,3.79,3.79,3.7274,3.6962,3.7142,3.6415,3.59,3.566,3.5583,3.5309,3.4906,3.4816,3.4388,3.3431,3.3771,3.4022,3.4022,3.4575,3.4806,3.4806,3.5357,3.5633,3.5633,3.6157,3.6405,3.6405,3.6405,3.6405,3.6405,3.6405,3.6405,3.6405,3.6405,3.6081,3.5608,3.5533,3.5207,3.4731,4.2986,4.2986,4.2986,4.2986,4.2986,4.2986,4.2986,4.2986,4.2986,4.2986,4.2986,4.2986,4.2986,4.2986,4.3162,4.3639,4.266,4.1806,4.12,4.0249,3.9697,3.9697,3.9697,3.9697,3.9697,3.9697,3.9697,3.9697,3.9697,3.9697,3.9697,3.9697,3.9697,3.9697,3.9697,3.9697,3.9697,3.9697,4.0006,4.0466,4.0466,4.0693,4.1017,4.1017,4.0865,4.0509,4.0068,3.9765,3.949,3.9217,3.9058,3.9003,3.8668,3.8579,3.8501,3.8031,3.7854,3.7762,3.7762,3.7808,3.7854,3.79,3.79,3.79,3.7854,3.7854,3.7854,3.7854,3.7854,3.7854,3.79,3.79,3.79,3.79,3.79,3.79,3.79,0.0,3.79,3.79,3.7776,3.7723,3.7769,3.7175,3.6791,3.672,3.6278,3.5903,3.5639,3.5417,3.5143,3.4812,3.464,3.46,3.46,3.5107,3.5382,3.5382,3.5981,3.6279,3.6279,3.638,3.6405,3.6405,3.6405,3.6405,3.6405,3.6405,3.6405,3.6405,3.6405,3.6355,3.6182,3.5683,3.5433,3.5282,4.2986,4.2986,4.2986,4.2986,4.2986,4.2986,4.2986,4.2986,4.2986,4.2986,4.2986,4.2986,4.2986,4.2986,4.3212,4.374,4.2841,4.2183,4.2208,4.0902,3.9998,3.9697,3.9697,3.9697,3.9697,3.9697,3.9697,3.9697,3.9697,3.9697,3.9697,3.9826,3.9826,3.9697,4.0006,3.9955,3.9697,3.9826,4.0134,4.0517,4.0517,4.0821,4.1324,4.1324,4.1198,4.1071,4.0861,4.0657,4.048,3.9982,3.9849,3.9793,3.9316,3.9181,3.9076,3.8501,3.8135,3.79,3.79,3.79,3.79,3.79,3.79,3.79,3.79,3.79,3.79,3.79,3.79,3.79,3.79,3.79,3.79,3.79,3.79,0.0,0.0,3.79,3.79,3.79,3.79,3.79,3.79,3.7665,3.7436,3.73,3.704,3.6748,3.6521,3.6385,3.6248,3.6157,3.5511,3.5303,3.5604,3.5855,3.5981,3.5981,3.6279,3.6405,3.6405,3.6405,3.6405,3.6405,3.6405,3.6405,3.6405,3.6405,3.6405,3.6405,3.6405,3.6405,3.638,3.6081,3.5981,3.5906,4.2986,4.2986,4.2986,4.2986,4.2986,4.2986,4.2986,4.2986,4.2986,4.2986,4.2986,4.2986,4.2986,4.2986,4.3212,4.374,4.3037,4.266,4.2961,4.1781,4.0727,3.9923,3.9772,3.9697,3.9697,3.9697,3.9697,3.9697,3.9697,3.9697,3.9697,3.9981,3.9981,3.98,4.0313,4.0262,3.98,4.0032,4.0236,4.0517,4.0517,4.0821,4.1324,4.1324,4.1324,4.1324,4.1324,4.1324,4.1246,4.0775,4.0618,4.0514,3.9965,3.9808,3.9677,3.9076,3.8632,3.824,3.7978,3.79,3.79,3.79,3.79,3.79,3.79,3.79,3.79,3.79,3.79,3.79,3.79,3.79,3.79,3.79,0.0,0.0,0.0,3.79,3.79,3.79,3.79,3.79,3.79,3.79,3.7808,3.7598,3.7598,3.7505,3.732,3.7201,3.7155,3.7108,3.6236,3.6024,3.6452,3.6405,3.6405,3.6405,3.6405,3.6405,3.6405,3.6405,3.6405,3.6405,3.6405,3.6405,3.6405,3.6405,3.6405,3.6405,3.6405,3.6405,3.6405,3.6405,3.6405,3.6355,4.2986,4.2986,4.2986,4.2986,4.2986,4.2986,4.2986,4.2986,4.2986,4.2986,4.2986,4.2986,4.2986,4.2986,4.3212,4.374,4.374,4.3489,4.3011,4.2861,4.2108,4.0526,3.9973,3.9697,3.9697,3.9697,3.9697,3.9697,3.9697,3.9697,3.9697,3.9981,4.0083,4.0083,4.0338,4.0338,4.0083,4.0083,4.0236,4.0517,4.0517,4.0821,4.1324,4.1324,4.1324,4.1324,4.1324,4.1324,4.1298,4.1272,4.1246,4.1141,4.054,4.0357,4.0252,3.9703,3.952,3.9259,3.8187,3.79,3.79,3.79,3.79,3.79,3.79,3.79,3.79,3.79,3.79,3.79,3.79,3.79,3.79,3.79,0.0,0.0,3.79,3.79,3.79,3.79,3.79,3.79,3.79,3.79,3.79,3.7854,3.7854,3.7854,3.7854,3.7598,3.7366,3.7108,3.6777,3.6637,3.6662,3.6499,3.6405,3.6405,3.6405,3.6405,3.6405,3.6405,3.6405,3.6405,3.6405,3.6405,3.6405,3.6405,3.6405,3.6405,3.6405,3.6405,3.6405,3.6405,3.6405,3.6405,4.2986,4.2986,4.2986,4.2986,4.2986,4.2986,4.2986,4.2986,4.2986,4.2986,4.2986,4.2986,4.2986,4.2986,4.3062,4.3263,4.3288,4.3212,4.2986,4.2715,4.1882,4.0576,3.9998,3.9697,3.9697,3.9697,3.9697,3.9697,3.9697,3.9697,3.9697,4.0134,4.0236,4.0134,4.0744,4.0744,4.0338,4.0542,4.0643,4.0744,4.0744,4.0946,4.1324,4.1324,4.1324,4.1324,4.1324,4.1324,4.1324,4.1324,4.1324,4.1272,4.1036,4.0984,4.0853,4.0278,3.986,3.952,3.9076,3.8684,3.8318,3.7978,3.79,3.79,3.79,3.79,3.79,3.79,3.79,3.79,3.79,3.79,3.79,3.79,0.0,3.79,3.79,3.79,3.79,3.79,3.79,3.79,3.79,3.79,3.79,3.79,3.79,3.79,3.79,3.7808,3.7716,3.7598,3.7366,3.7108,3.6968,3.6875,3.6734,3.6593,3.6593,3.6546,3.6405,3.6405,3.6405,3.6405,3.6405,3.6405,3.6405,3.6405,3.6405,3.6405,3.6405,3.6405,3.6405,3.6405,3.6405,3.6405,4.2986,4.2986,4.2986,4.2986,4.2986,4.2986,4.2986,4.2986,4.2986,4.2986,4.2986,4.2986,4.2986,4.2986,4.2986,4.2986,4.3137,4.3162,4.2986,4.2514,4.1756,4.0802,4.0249,3.9948,3.9948,3.9798,3.9697,3.9697,3.9697,3.9749,3.9852,4.0313,4.044,4.0389,4.0997,4.1047,4.0643,4.0846,4.0896,4.0896,4.0896,4.1047,4.1324,4.1324,4.1324,4.1324,4.1324,4.1324,4.1324,4.1324,4.1324,4.1324,4.1324,4.1324,4.1246,4.0827,4.0435,4.0095,3.9913,3.9573,3.9128,3.8579,3.8292,3.8161,3.8161,3.8031,3.79,3.79,3.79,3.79,3.79,3.79,3.79,3.79,3.79,3.79,3.79,3.79,3.79,3.79,3.79,3.79,3.79,3.79,3.79,3.79,3.79,3.79,3.79,3.79,3.79,3.79,3.7716,3.7551,3.7366,3.7155,3.7015,3.6803,3.6709,3.6615,3.6499,3.6452,3.6452,3.6499,3.6452,3.6452,3.6499,3.6452,3.6405,3.6405,3.6405,3.6405,3.6405,3.6405,3.6405,3.6405,4.2986,4.2986,4.2986,4.2986,4.2986,4.2986,4.2986,4.2986,4.2986,4.2986,4.2986,4.2986,4.2986,4.2986,4.2986,4.2986,4.3489,4.3564,4.3011,4.2514,4.1907,4.1326,4.0774,4.0526,4.0526,3.9973,3.9697,3.9697,3.9697,3.9826,4.0083,4.0338,4.0643,4.0896,4.1147,4.1147,4.0896,4.0896,4.0896,4.0896,4.0896,4.1047,4.1324,4.1324,4.1324,4.1324,4.1324,4.1324,4.1324,4.1324,4.1324,4.1324,4.1324,4.1324,4.1324,4.1324,4.1324,4.1193,4.0592,4.0435,4.0305,3.9756,3.9155,3.871,3.871,3.8292,3.7926,3.7926,3.79,3.79,3.79,3.79,3.79,3.79,3.79,3.79,3.79,3.79,3.79,3.79,3.79,3.79,3.79,3.79,3.79,3.79,3.79,3.79,3.79,3.79,3.79,3.79,3.79,3.79,3.79,3.7366,3.7108,3.7108,3.6803,3.6709,3.6709,3.6499,3.6499,3.6662,3.6499,3.6546,3.6662,3.6499,3.6405,3.6405,3.6405,3.6405,3.6405,3.6405,3.6405,3.6405,4.2986,4.2986,4.2986,4.2986,4.2986,4.2986,4.2986,4.2986,4.2986,4.2986,4.2986,4.2986,4.2986,4.2986,4.2986,4.2986,4.3137,4.3162,4.2986,4.2866,4.266,4.2484,4.1605,4.105,4.105,4.0551,4.0275,4.0275,3.9873,3.9749,3.9826,4.0313,4.0542,4.0643,4.1123,4.1274,4.1147,4.1147,4.1147,4.1147,4.1147,4.1198,4.1324,4.1324,4.1324,4.1324,4.1324,4.1324,4.1324,4.1324,4.1324,4.1324,4.1324,4.1324,4.1324,4.1324,4.1324,4.1272,4.1089,4.1036,4.0801,3.986,3.9468,3.9337,3.9337,3.8893,3.8475,3.8475,3.8161,3.79,3.79,3.79,3.79,3.79,3.79,3.79,3.79,3.79,3.79,3.79,3.79,3.79,3.79,3.79,3.79,3.79,3.79,3.79,3.79,3.79,3.79,3.79,3.79,3.79,3.79,3.7762,3.7551,3.7366,3.732,3.7155,3.6968,3.6922,3.6922,3.6968,3.6922,3.6828,3.6709,3.6615,3.6546,3.6405,3.6405,3.6405,3.6405,3.6405,3.6405,3.6405,4.3129,4.3129,4.3129,4.3129,4.3129,4.3129,4.3042,4.2986,4.2986,4.2986,4.2986,4.2986,4.2986,4.2986,4.3042,4.3129,4.3129,4.3129,4.3042,4.2986,4.2986,4.2986,4.2443,4.2045,4.1843,4.1288,4.1011,4.1011,4.0431,4.0231,4.0309,4.0543,4.0694,4.0821,4.1174,4.1324,4.1324,4.1324,4.1324,4.1324,4.1324,4.1324,4.1324,4.1324,4.1324,4.1324,4.1324,4.1324,4.1324,4.1324,4.1324,4.1324,4.1324,4.1324,4.1324,4.1324,4.1324,4.1324,4.1324,4.1324,4.1141,4.0461,4.0095,3.9939,3.9939,3.9494,3.9076,3.9076,3.8815,3.8501,3.8266,3.8214,3.8161,3.7926,3.79,3.79,3.79,3.79,3.79,3.79,3.79,3.79,3.79,3.79,3.79,3.79,3.79,3.79,3.79,3.79,3.79,3.79,3.79,3.79,3.79,3.79,3.7808,3.7644,3.7551,3.7413,3.7248,3.7155,3.7155,3.7248,3.7155,3.7062,3.7015,3.6803,3.6615,3.6499,3.6452,3.6405,3.6405,3.6405,3.6405,3.6405,4.3351,4.3381,4.3381,4.3381,4.3432,4.3371,4.3092,4.3143,4.3193,4.3137,4.3143,4.3092,4.3062,4.3067,4.3129,4.3406,4.3381,4.3295,4.3042,4.2986,4.2986,4.2986,4.3295,4.3233,4.2751,4.2192,4.1912,4.1912,4.1328,4.1153,4.1362,4.108,4.1125,4.1326,4.1274,4.1324,4.1324,4.1324,4.1324,4.1324,4.1324,4.1324,4.1324,4.1324,4.1324,4.1324,4.1324,4.1324,4.1324,4.1324,4.1324,4.1324,4.1324,4.1324,4.1324,4.1324,4.1324,4.1324,4.1324,4.1324,4.1324,4.1324,4.0906,4.0488,4.0488,4.0069,3.9677,3.9677,3.9651,3.9442,3.8893,3.8789,3.8632,3.8135,3.8057,3.8057,3.8057,3.8004,3.7978,3.7978,3.7926,3.79,3.79,3.79,3.79,3.79,3.79,3.79,3.79,3.79,3.79,3.79,3.79,3.79,3.79,3.79,3.79,3.79,3.767,3.7551,3.7505,3.7248,3.732,3.7505,3.7273,3.732,3.7459,3.6968,3.6756,3.6709,3.6499,3.6452,3.6452,3.6452,3.6405,3.6405,4.3482,4.3381,4.3381,4.3381,4.3762,4.401,4.3671,4.4219,4.4554,4.4267,4.4118,4.3922,4.3671,4.3437,4.3351,4.3381,4.3381,4.3295,4.3042,4.2986,4.2986,4.2986,4.3487,4.3713,4.361,4.3022,4.2741,4.2741,4.2153,4.195,4.1977,4.175,4.1646,4.1671,4.1406,4.1324,4.1324,4.1324,4.1324,4.1324,4.1324,4.1324,4.1324,4.1324,4.1324,4.1324,4.1324,4.1324,4.1324,4.1324,4.1324,4.1324,4.1324,4.1324,4.1324,4.1324,4.1324,4.1324,4.1324,4.1324,4.1324,4.1324,4.1219,4.1115,4.1115,4.0671,4.0252,4.0252,3.9913,3.9573,3.9442,3.9416,3.939,3.9259,3.9233,3.9233,3.9233,3.8841,3.8527,3.8527,3.8161,3.79,3.79,3.79,3.79,3.79,3.79,3.79,3.79,3.79,3.79,3.79,3.79,3.79,3.79,3.79,3.79,3.79,3.7854,3.7808,3.7808,3.7762,3.7762,3.7808,3.7762,3.7644,3.7505,3.7366,3.7201,3.6968,3.6734,3.6615,3.6615,3.6615,3.6546,3.6405,4.4663,4.4643,4.4643,4.4643,4.4812,4.4846,4.4675,4.4903,4.5081,4.5106,4.4852,4.4675,4.4649,4.4142,4.3685,4.3432,4.3517,4.3487,4.3042,4.2986,4.2986,4.2986,4.3543,4.3899,4.3899,4.3865,4.3738,4.3656,4.3063,4.278,4.278,4.2475,4.2372,4.2372,4.2214,4.1977,4.1716,4.1716,4.1559,4.1324,4.1324,4.1324,4.1324,4.1324,4.1324,4.1324,4.1324,4.1324,4.1324,4.1324,4.1324,4.1324,4.1324,4.1324,4.1324,4.1324,4.1324,4.1324,4.1324,4.1324,4.1324,4.1324,4.1324,4.1324,4.1324,4.1063,4.0853,4.0853,4.0618,4.0331,4.0043,3.9991,3.9913,3.9651,3.9599,3.9599,3.9599,3.9337,3.9128,3.9128,3.8893,3.8606,3.8318,3.8057,3.79,3.79,3.79,3.79,3.79,3.79,3.79,3.79,3.79,3.79,3.79,3.79,3.79,3.79,3.79,3.79,3.79,3.79,3.79,3.79,3.79,3.7808,3.769,3.7551,3.7413,3.7248,3.7015,3.6922,3.6922,3.6922,3.6828,3.6734,4.5964,4.5995,4.5995,4.5995,4.5928,4.5776,4.5776,4.5623,4.5617,4.5847,4.554,4.5431,4.5662,4.4979,4.428,4.3751,4.3947,4.3811,4.3098,4.3073,4.3017,4.2986,4.3543,4.3899,4.3899,4.4422,4.4559,4.4367,4.3875,4.3616,4.3616,4.3336,4.3154,4.3154,4.3075,4.2762,4.2368,4.2368,4.203,4.1611,4.1611,4.1559,4.1455,4.1455,4.1402,4.1324,4.1324,4.1324,4.1324,4.1324,4.1324,4.1324,4.1324,4.1324,4.1324,4.1324,4.1324,4.1324,4.1324,4.1324,4.1324,4.1324,4.1324,4.1324,4.1324,4.1324,4.1324,4.1324,4.1324,4.1167,4.0671,4.0566,4.0435,3.9965,3.9886,3.9886,3.9886,3.9808,3.9756,3.9756,3.9677,3.9416,3.8919,3.837,3.8031,3.8031,3.7952,3.79,3.79,3.79,3.79,3.79,3.79,3.79,3.79,3.79,3.79,3.79,3.79,3.79,3.79,3.79,3.79,3.79,3.79,3.79,3.79,3.7644,3.7551,3.7551,3.7248,3.7155,3.7155,3.7108,3.7108,3.7108,4.6099,4.5995,4.5995,4.5995,4.6378,4.6598,4.6367,4.6868,4.7295,4.7034,4.6532,4.6108,4.5875,4.5623,4.5289,4.4978,4.4982,4.4553,4.3432,4.3351,4.324,4.3042,4.3543,4.3899,4.3899,4.4422,4.4668,4.4668,4.4535,4.4509,4.4483,4.4016,4.3755,4.3729,4.3232,4.2971,4.2892,4.2892,4.2866,4.2788,4.2788,4.25,4.2107,4.2107,4.1742,4.1324,4.1324,4.1324,4.1324,4.1324,4.1324,4.1324,4.1324,4.1324,4.1324,4.1324,4.1324,4.1324,4.1324,4.1324,4.1324,4.1324,4.1324,4.1324,4.1324,4.1324,4.1324,4.1324,4.1324,4.1298,4.1219,4.1193,4.1167,4.1089,4.1089,4.1089,4.1089,4.0644,4.0305,4.0305,3.9886,3.9573,3.9494,3.8945,3.8606,3.8606,3.8161,3.79,3.79,3.79,3.79,3.79,3.79,3.79,3.79,3.79,3.79,3.79,3.79,3.79,3.79,3.79,3.79,3.79,3.79,3.79,3.79,3.7854,3.7854,3.7808,3.7551,3.7459,3.7413,3.7201,3.7248,3.7413,4.7294,4.7241,4.7241,4.7241,4.7276,4.7341,4.7399,4.7548,4.7703,4.7762,4.7353,4.7166,4.7166,4.6766,4.6311,4.5684,4.5633,4.5206,4.4168,4.4142,4.3959,4.3513,4.3874,4.4094,4.4094,4.4531,4.4668,4.4668,4.4668,4.4668,4.4668,4.446,4.4356,4.433,4.4095,4.3781,4.3493,4.3493,4.331,4.3023,4.3023,4.2866,4.2657,4.2657,4.2474,4.2265,4.2265,4.2056,4.1794,4.1794,4.1585,4.1324,4.1324,4.1324,4.1324,4.1324,4.1324,4.1324,4.1324,4.1324,4.1324,4.1324,4.1324,4.1324,4.1324,4.1324,4.1324,4.1324,4.1324,4.1324,4.1324,4.1324,4.1324,4.1324,4.1324,4.1324,4.1324,4.1089,4.0906,4.0906,4.0409,4.0069,4.0069,3.9547,3.9207,3.9207,3.8684,3.8344,3.8344,3.8057,3.79,3.79,3.79,3.79,3.79,3.79,3.79,3.79,3.79,3.79,3.79,3.79,3.79,3.79,3.79,3.79,3.79,3.79,3.79,3.79,3.7762,3.7716,3.7716,3.7598,3.7598,3.7716]}]]